<?xml version="1.0" encoding="UTF-8" standalone="no" ?>
<gpx xmlns="http://www.topografix.com/GPX/1/1" xmlns:xsi="http://www.w3.org/2001/XMLSchema-instance" xsi:schemaLocation="http://www.topografix.com/GPX/1/1 http://www.topografix.com/GPX/1/1/gpx.xsd" version="1.1" creator="VisuGPX - https://www.visugpx.com">
  <metadata>
    <name>20150426 M1 les bourgeons - Adomph</name>
    <desc><![CDATA[Régate Les Bourgeons.
Trace de Adomph
Manche 1]]></desc>
  </metadata>
  <trk>
    <name><![CDATA[20150426 M1 les bourgeons - Adomph_1]]></name>
    <trkseg>
      <trkpt lat="45.78334" lon="4.98245">
        <ele>191.8</ele>
        <time>2015-04-26T09:53:21Z</time>
      </trkpt>
      <trkpt lat="45.78331" lon="4.98246">
        <ele>211</ele>
        <time>2015-04-26T09:53:25Z</time>
      </trkpt>
      <trkpt lat="45.78328" lon="4.98248">
        <ele>216.7</ele>
        <time>2015-04-26T09:53:27Z</time>
      </trkpt>
      <trkpt lat="45.78328" lon="4.98248">
        <ele>216.7</ele>
        <time>2015-04-26T09:53:29Z</time>
      </trkpt>
      <trkpt lat="45.78327" lon="4.98253">
        <ele>222.3</ele>
        <time>2015-04-26T09:53:32Z</time>
      </trkpt>
      <trkpt lat="45.78325" lon="4.98258">
        <ele>223</ele>
        <time>2015-04-26T09:53:35Z</time>
      </trkpt>
      <trkpt lat="45.78323" lon="4.98256">
        <ele>225.5</ele>
        <time>2015-04-26T09:53:40Z</time>
      </trkpt>
      <trkpt lat="45.78324" lon="4.98246">
        <ele>226</ele>
        <time>2015-04-26T09:53:45Z</time>
      </trkpt>
      <trkpt lat="45.78323" lon="4.98243">
        <ele>225</ele>
        <time>2015-04-26T09:53:46Z</time>
      </trkpt>
      <trkpt lat="45.78322" lon="4.98236">
        <ele>225</ele>
        <time>2015-04-26T09:53:48Z</time>
      </trkpt>
      <trkpt lat="45.78321" lon="4.98233">
        <ele>225</ele>
        <time>2015-04-26T09:53:49Z</time>
      </trkpt>
      <trkpt lat="45.78321" lon="4.98226">
        <ele>226</ele>
        <time>2015-04-26T09:53:51Z</time>
      </trkpt>
      <trkpt lat="45.78321" lon="4.98222">
        <ele>227</ele>
        <time>2015-04-26T09:53:52Z</time>
      </trkpt>
      <trkpt lat="45.78322" lon="4.98215">
        <ele>227</ele>
        <time>2015-04-26T09:53:54Z</time>
      </trkpt>
      <trkpt lat="45.78324" lon="4.98212">
        <ele>226</ele>
        <time>2015-04-26T09:53:55Z</time>
      </trkpt>
      <trkpt lat="45.78328" lon="4.98205">
        <ele>226</ele>
        <time>2015-04-26T09:53:57Z</time>
      </trkpt>
      <trkpt lat="45.7833" lon="4.98201">
        <ele>226</ele>
        <time>2015-04-26T09:53:58Z</time>
      </trkpt>
      <trkpt lat="45.78331" lon="4.98194">
        <ele>226</ele>
        <time>2015-04-26T09:54:00Z</time>
      </trkpt>
      <trkpt lat="45.78332" lon="4.9819">
        <ele>226</ele>
        <time>2015-04-26T09:54:01Z</time>
      </trkpt>
      <trkpt lat="45.78332" lon="4.98182">
        <ele>226</ele>
        <time>2015-04-26T09:54:03Z</time>
      </trkpt>
      <trkpt lat="45.78333" lon="4.98179">
        <ele>226</ele>
        <time>2015-04-26T09:54:04Z</time>
      </trkpt>
      <trkpt lat="45.78336" lon="4.98173">
        <ele>226</ele>
        <time>2015-04-26T09:54:06Z</time>
      </trkpt>
      <trkpt lat="45.78338" lon="4.9817">
        <ele>226</ele>
        <time>2015-04-26T09:54:07Z</time>
      </trkpt>
      <trkpt lat="45.78341" lon="4.98165">
        <ele>226</ele>
        <time>2015-04-26T09:54:09Z</time>
      </trkpt>
      <trkpt lat="45.78342" lon="4.98162">
        <ele>226</ele>
        <time>2015-04-26T09:54:10Z</time>
      </trkpt>
      <trkpt lat="45.78343" lon="4.98155">
        <ele>226</ele>
        <time>2015-04-26T09:54:12Z</time>
      </trkpt>
      <trkpt lat="45.78343" lon="4.98152">
        <ele>226</ele>
        <time>2015-04-26T09:54:13Z</time>
      </trkpt>
      <trkpt lat="45.78342" lon="4.98145">
        <ele>228</ele>
        <time>2015-04-26T09:54:15Z</time>
      </trkpt>
      <trkpt lat="45.78342" lon="4.98141">
        <ele>228</ele>
        <time>2015-04-26T09:54:16Z</time>
      </trkpt>
      <trkpt lat="45.78344" lon="4.98135">
        <ele>228</ele>
        <time>2015-04-26T09:54:18Z</time>
      </trkpt>
      <trkpt lat="45.78345" lon="4.9813">
        <ele>228</ele>
        <time>2015-04-26T09:54:19Z</time>
      </trkpt>
      <trkpt lat="45.78342" lon="4.98129">
        <ele>228</ele>
        <time>2015-04-26T09:54:24Z</time>
      </trkpt>
      <trkpt lat="45.78342" lon="4.98138">
        <ele>227</ele>
        <time>2015-04-26T09:54:28Z</time>
      </trkpt>
      <trkpt lat="45.78343" lon="4.98142">
        <ele>227</ele>
        <time>2015-04-26T09:54:29Z</time>
      </trkpt>
      <trkpt lat="45.78344" lon="4.98149">
        <ele>227</ele>
        <time>2015-04-26T09:54:32Z</time>
      </trkpt>
      <trkpt lat="45.78344" lon="4.98153">
        <ele>227</ele>
        <time>2015-04-26T09:54:33Z</time>
      </trkpt>
      <trkpt lat="45.78344" lon="4.9816">
        <ele>227</ele>
        <time>2015-04-26T09:54:35Z</time>
      </trkpt>
      <trkpt lat="45.78343" lon="4.98164">
        <ele>227</ele>
        <time>2015-04-26T09:54:36Z</time>
      </trkpt>
      <trkpt lat="45.7834" lon="4.9817">
        <ele>228</ele>
        <time>2015-04-26T09:54:39Z</time>
      </trkpt>
      <trkpt lat="45.78338" lon="4.98175">
        <ele>228</ele>
        <time>2015-04-26T09:54:40Z</time>
      </trkpt>
      <trkpt lat="45.78336" lon="4.98181">
        <ele>228</ele>
        <time>2015-04-26T09:54:43Z</time>
      </trkpt>
      <trkpt lat="45.78335" lon="4.98185">
        <ele>228.5</ele>
        <time>2015-04-26T09:54:44Z</time>
      </trkpt>
      <trkpt lat="45.78333" lon="4.98192">
        <ele>229</ele>
        <time>2015-04-26T09:54:47Z</time>
      </trkpt>
      <trkpt lat="45.78332" lon="4.98196">
        <ele>228</ele>
        <time>2015-04-26T09:54:48Z</time>
      </trkpt>
      <trkpt lat="45.78331" lon="4.98203">
        <ele>229</ele>
        <time>2015-04-26T09:54:51Z</time>
      </trkpt>
      <trkpt lat="45.78331" lon="4.98207">
        <ele>228.5</ele>
        <time>2015-04-26T09:54:52Z</time>
      </trkpt>
      <trkpt lat="45.78329" lon="4.98213">
        <ele>228</ele>
        <time>2015-04-26T09:54:55Z</time>
      </trkpt>
      <trkpt lat="45.78329" lon="4.98217">
        <ele>228.5</ele>
        <time>2015-04-26T09:54:56Z</time>
      </trkpt>
      <trkpt lat="45.78328" lon="4.98224">
        <ele>229</ele>
        <time>2015-04-26T09:54:59Z</time>
      </trkpt>
      <trkpt lat="45.78327" lon="4.98229">
        <ele>229</ele>
        <time>2015-04-26T09:55:00Z</time>
      </trkpt>
      <trkpt lat="45.78325" lon="4.98236">
        <ele>229</ele>
        <time>2015-04-26T09:55:03Z</time>
      </trkpt>
      <trkpt lat="45.78323" lon="4.9824">
        <ele>229</ele>
        <time>2015-04-26T09:55:04Z</time>
      </trkpt>
      <trkpt lat="45.78318" lon="4.9824">
        <ele>229</ele>
        <time>2015-04-26T09:55:07Z</time>
      </trkpt>
      <trkpt lat="45.78318" lon="4.98237">
        <ele>228.5</ele>
        <time>2015-04-26T09:55:08Z</time>
      </trkpt>
      <trkpt lat="45.7832" lon="4.9823">
        <ele>228</ele>
        <time>2015-04-26T09:55:11Z</time>
      </trkpt>
      <trkpt lat="45.78321" lon="4.98227">
        <ele>228</ele>
        <time>2015-04-26T09:55:12Z</time>
      </trkpt>
      <trkpt lat="45.78326" lon="4.98222">
        <ele>228</ele>
        <time>2015-04-26T09:55:15Z</time>
      </trkpt>
      <trkpt lat="45.78328" lon="4.98222">
        <ele>228</ele>
        <time>2015-04-26T09:55:16Z</time>
      </trkpt>
      <trkpt lat="45.78332" lon="4.98226">
        <ele>229</ele>
        <time>2015-04-26T09:55:18Z</time>
      </trkpt>
      <trkpt lat="45.78332" lon="4.98232">
        <ele>229</ele>
        <time>2015-04-26T09:55:20Z</time>
      </trkpt>
      <trkpt lat="45.78334" lon="4.98238">
        <ele>228</ele>
        <time>2015-04-26T09:55:22Z</time>
      </trkpt>
      <trkpt lat="45.78335" lon="4.98244">
        <ele>228</ele>
        <time>2015-04-26T09:55:24Z</time>
      </trkpt>
      <trkpt lat="45.78334" lon="4.9825">
        <ele>228</ele>
        <time>2015-04-26T09:55:26Z</time>
      </trkpt>
      <trkpt lat="45.78332" lon="4.98256">
        <ele>228</ele>
        <time>2015-04-26T09:55:28Z</time>
      </trkpt>
      <trkpt lat="45.78329" lon="4.98261">
        <ele>228</ele>
        <time>2015-04-26T09:55:30Z</time>
      </trkpt>
      <trkpt lat="45.78327" lon="4.98265">
        <ele>229</ele>
        <time>2015-04-26T09:55:31Z</time>
      </trkpt>
      <trkpt lat="45.78324" lon="4.9827">
        <ele>229</ele>
        <time>2015-04-26T09:55:34Z</time>
      </trkpt>
      <trkpt lat="45.78323" lon="4.98273">
        <ele>230</ele>
        <time>2015-04-26T09:55:35Z</time>
      </trkpt>
      <trkpt lat="45.7832" lon="4.98278">
        <ele>230</ele>
        <time>2015-04-26T09:55:38Z</time>
      </trkpt>
      <trkpt lat="45.78318" lon="4.98281">
        <ele>230</ele>
        <time>2015-04-26T09:55:40Z</time>
      </trkpt>
      <trkpt lat="45.78317" lon="4.98286">
        <ele>231</ele>
        <time>2015-04-26T09:55:42Z</time>
      </trkpt>
      <trkpt lat="45.78316" lon="4.98292">
        <ele>231</ele>
        <time>2015-04-26T09:55:45Z</time>
      </trkpt>
      <trkpt lat="45.78316" lon="4.98297">
        <ele>231</ele>
        <time>2015-04-26T09:55:47Z</time>
      </trkpt>
      <trkpt lat="45.78315" lon="4.98302">
        <ele>232</ele>
        <time>2015-04-26T09:55:49Z</time>
      </trkpt>
      <trkpt lat="45.78315" lon="4.98307">
        <ele>231</ele>
        <time>2015-04-26T09:55:51Z</time>
      </trkpt>
      <trkpt lat="45.78314" lon="4.98312">
        <ele>231</ele>
        <time>2015-04-26T09:55:53Z</time>
      </trkpt>
      <trkpt lat="45.78313" lon="4.98317">
        <ele>232</ele>
        <time>2015-04-26T09:55:55Z</time>
      </trkpt>
      <trkpt lat="45.78312" lon="4.98322">
        <ele>232</ele>
        <time>2015-04-26T09:55:57Z</time>
      </trkpt>
      <trkpt lat="45.78309" lon="4.98326">
        <ele>232</ele>
        <time>2015-04-26T09:55:59Z</time>
      </trkpt>
      <trkpt lat="45.78307" lon="4.9833">
        <ele>231</ele>
        <time>2015-04-26T09:56:01Z</time>
      </trkpt>
      <trkpt lat="45.78304" lon="4.98334">
        <ele>231</ele>
        <time>2015-04-26T09:56:03Z</time>
      </trkpt>
      <trkpt lat="45.78302" lon="4.98338">
        <ele>230</ele>
        <time>2015-04-26T09:56:05Z</time>
      </trkpt>
      <trkpt lat="45.783" lon="4.98342">
        <ele>230</ele>
        <time>2015-04-26T09:56:07Z</time>
      </trkpt>
      <trkpt lat="45.78298" lon="4.98346">
        <ele>230</ele>
        <time>2015-04-26T09:56:09Z</time>
      </trkpt>
      <trkpt lat="45.78296" lon="4.9835">
        <ele>230</ele>
        <time>2015-04-26T09:56:11Z</time>
      </trkpt>
      <trkpt lat="45.78294" lon="4.98354">
        <ele>229</ele>
        <time>2015-04-26T09:56:13Z</time>
      </trkpt>
      <trkpt lat="45.78291" lon="4.98359">
        <ele>229</ele>
        <time>2015-04-26T09:56:15Z</time>
      </trkpt>
      <trkpt lat="45.78288" lon="4.98363">
        <ele>228</ele>
        <time>2015-04-26T09:56:17Z</time>
      </trkpt>
      <trkpt lat="45.78285" lon="4.98367">
        <ele>229</ele>
        <time>2015-04-26T09:56:19Z</time>
      </trkpt>
      <trkpt lat="45.78282" lon="4.98371">
        <ele>228</ele>
        <time>2015-04-26T09:56:21Z</time>
      </trkpt>
      <trkpt lat="45.78279" lon="4.98375">
        <ele>228</ele>
        <time>2015-04-26T09:56:23Z</time>
      </trkpt>
      <trkpt lat="45.78276" lon="4.9838">
        <ele>228</ele>
        <time>2015-04-26T09:56:25Z</time>
      </trkpt>
      <trkpt lat="45.78273" lon="4.98384">
        <ele>228</ele>
        <time>2015-04-26T09:56:27Z</time>
      </trkpt>
      <trkpt lat="45.78271" lon="4.98388">
        <ele>228</ele>
        <time>2015-04-26T09:56:29Z</time>
      </trkpt>
      <trkpt lat="45.78268" lon="4.98394">
        <ele>227</ele>
        <time>2015-04-26T09:56:31Z</time>
      </trkpt>
      <trkpt lat="45.78266" lon="4.98399">
        <ele>227</ele>
        <time>2015-04-26T09:56:33Z</time>
      </trkpt>
      <trkpt lat="45.78264" lon="4.98402">
        <ele>227</ele>
        <time>2015-04-26T09:56:34Z</time>
      </trkpt>
      <trkpt lat="45.78261" lon="4.98406">
        <ele>227</ele>
        <time>2015-04-26T09:56:36Z</time>
      </trkpt>
      <trkpt lat="45.7826" lon="4.98409">
        <ele>226</ele>
        <time>2015-04-26T09:56:37Z</time>
      </trkpt>
      <trkpt lat="45.78256" lon="4.98414">
        <ele>226</ele>
        <time>2015-04-26T09:56:39Z</time>
      </trkpt>
      <trkpt lat="45.78255" lon="4.98416">
        <ele>226</ele>
        <time>2015-04-26T09:56:40Z</time>
      </trkpt>
      <trkpt lat="45.78252" lon="4.98422">
        <ele>226</ele>
        <time>2015-04-26T09:56:42Z</time>
      </trkpt>
      <trkpt lat="45.78251" lon="4.98425">
        <ele>227</ele>
        <time>2015-04-26T09:56:43Z</time>
      </trkpt>
      <trkpt lat="45.78248" lon="4.9843">
        <ele>226</ele>
        <time>2015-04-26T09:56:45Z</time>
      </trkpt>
      <trkpt lat="45.78247" lon="4.98433">
        <ele>226</ele>
        <time>2015-04-26T09:56:46Z</time>
      </trkpt>
      <trkpt lat="45.78244" lon="4.98438">
        <ele>226</ele>
        <time>2015-04-26T09:56:48Z</time>
      </trkpt>
      <trkpt lat="45.7824" lon="4.98441">
        <ele>227</ele>
        <time>2015-04-26T09:56:50Z</time>
      </trkpt>
      <trkpt lat="45.78237" lon="4.98445">
        <ele>227</ele>
        <time>2015-04-26T09:56:52Z</time>
      </trkpt>
      <trkpt lat="45.78234" lon="4.98449">
        <ele>227</ele>
        <time>2015-04-26T09:56:54Z</time>
      </trkpt>
      <trkpt lat="45.7823" lon="4.98451">
        <ele>227</ele>
        <time>2015-04-26T09:56:56Z</time>
      </trkpt>
      <trkpt lat="45.78227" lon="4.98447">
        <ele>228</ele>
        <time>2015-04-26T09:56:58Z</time>
      </trkpt>
      <trkpt lat="45.78225" lon="4.98443">
        <ele>229</ele>
        <time>2015-04-26T09:57:00Z</time>
      </trkpt>
      <trkpt lat="45.78223" lon="4.98438">
        <ele>230</ele>
        <time>2015-04-26T09:57:02Z</time>
      </trkpt>
      <trkpt lat="45.78221" lon="4.98434">
        <ele>230</ele>
        <time>2015-04-26T09:57:04Z</time>
      </trkpt>
      <trkpt lat="45.78218" lon="4.98431">
        <ele>230</ele>
        <time>2015-04-26T09:57:06Z</time>
      </trkpt>
      <trkpt lat="45.78215" lon="4.98427">
        <ele>230</ele>
        <time>2015-04-26T09:57:08Z</time>
      </trkpt>
      <trkpt lat="45.78212" lon="4.98422">
        <ele>230</ele>
        <time>2015-04-26T09:57:10Z</time>
      </trkpt>
      <trkpt lat="45.78209" lon="4.98417">
        <ele>230</ele>
        <time>2015-04-26T09:57:12Z</time>
      </trkpt>
      <trkpt lat="45.78207" lon="4.98414">
        <ele>230</ele>
        <time>2015-04-26T09:57:13Z</time>
      </trkpt>
      <trkpt lat="45.78204" lon="4.9841">
        <ele>230</ele>
        <time>2015-04-26T09:57:15Z</time>
      </trkpt>
      <trkpt lat="45.78202" lon="4.98408">
        <ele>231</ele>
        <time>2015-04-26T09:57:16Z</time>
      </trkpt>
      <trkpt lat="45.78198" lon="4.98404">
        <ele>231</ele>
        <time>2015-04-26T09:57:18Z</time>
      </trkpt>
      <trkpt lat="45.78196" lon="4.98401">
        <ele>231</ele>
        <time>2015-04-26T09:57:19Z</time>
      </trkpt>
      <trkpt lat="45.78193" lon="4.98395">
        <ele>231</ele>
        <time>2015-04-26T09:57:22Z</time>
      </trkpt>
      <trkpt lat="45.78191" lon="4.98391">
        <ele>231</ele>
        <time>2015-04-26T09:57:23Z</time>
      </trkpt>
      <trkpt lat="45.78189" lon="4.98385">
        <ele>231</ele>
        <time>2015-04-26T09:57:26Z</time>
      </trkpt>
      <trkpt lat="45.78188" lon="4.98381">
        <ele>231</ele>
        <time>2015-04-26T09:57:27Z</time>
      </trkpt>
      <trkpt lat="45.78185" lon="4.98375">
        <ele>231</ele>
        <time>2015-04-26T09:57:30Z</time>
      </trkpt>
      <trkpt lat="45.78183" lon="4.98371">
        <ele>231</ele>
        <time>2015-04-26T09:57:31Z</time>
      </trkpt>
      <trkpt lat="45.78179" lon="4.98366">
        <ele>231</ele>
        <time>2015-04-26T09:57:34Z</time>
      </trkpt>
      <trkpt lat="45.78178" lon="4.98361">
        <ele>231</ele>
        <time>2015-04-26T09:57:35Z</time>
      </trkpt>
      <trkpt lat="45.78177" lon="4.98354">
        <ele>231</ele>
        <time>2015-04-26T09:57:38Z</time>
      </trkpt>
      <trkpt lat="45.78176" lon="4.9835">
        <ele>231</ele>
        <time>2015-04-26T09:57:39Z</time>
      </trkpt>
      <trkpt lat="45.78175" lon="4.98343">
        <ele>230</ele>
        <time>2015-04-26T09:57:42Z</time>
      </trkpt>
      <trkpt lat="45.78174" lon="4.98339">
        <ele>230</ele>
        <time>2015-04-26T09:57:43Z</time>
      </trkpt>
      <trkpt lat="45.78173" lon="4.98332">
        <ele>230</ele>
        <time>2015-04-26T09:57:46Z</time>
      </trkpt>
      <trkpt lat="45.78172" lon="4.98327">
        <ele>231</ele>
        <time>2015-04-26T09:57:47Z</time>
      </trkpt>
      <trkpt lat="45.78169" lon="4.98321">
        <ele>231</ele>
        <time>2015-04-26T09:57:50Z</time>
      </trkpt>
      <trkpt lat="45.78167" lon="4.98317">
        <ele>232</ele>
        <time>2015-04-26T09:57:51Z</time>
      </trkpt>
      <trkpt lat="45.78165" lon="4.9831">
        <ele>232</ele>
        <time>2015-04-26T09:57:54Z</time>
      </trkpt>
      <trkpt lat="45.78164" lon="4.98306">
        <ele>232</ele>
        <time>2015-04-26T09:57:55Z</time>
      </trkpt>
      <trkpt lat="45.7816" lon="4.983">
        <ele>232</ele>
        <time>2015-04-26T09:57:58Z</time>
      </trkpt>
      <trkpt lat="45.78157" lon="4.98298">
        <ele>232</ele>
        <time>2015-04-26T09:57:59Z</time>
      </trkpt>
      <trkpt lat="45.78154" lon="4.98292">
        <ele>232</ele>
        <time>2015-04-26T09:58:02Z</time>
      </trkpt>
      <trkpt lat="45.78153" lon="4.98288">
        <ele>232</ele>
        <time>2015-04-26T09:58:03Z</time>
      </trkpt>
      <trkpt lat="45.78151" lon="4.98281">
        <ele>232</ele>
        <time>2015-04-26T09:58:06Z</time>
      </trkpt>
      <trkpt lat="45.78149" lon="4.98276">
        <ele>232</ele>
        <time>2015-04-26T09:58:07Z</time>
      </trkpt>
      <trkpt lat="45.78146" lon="4.9827">
        <ele>233</ele>
        <time>2015-04-26T09:58:10Z</time>
      </trkpt>
      <trkpt lat="45.78144" lon="4.98268">
        <ele>233</ele>
        <time>2015-04-26T09:58:11Z</time>
      </trkpt>
      <trkpt lat="45.78141" lon="4.98263">
        <ele>233</ele>
        <time>2015-04-26T09:58:13Z</time>
      </trkpt>
      <trkpt lat="45.78139" lon="4.98261">
        <ele>233</ele>
        <time>2015-04-26T09:58:14Z</time>
      </trkpt>
      <trkpt lat="45.78135" lon="4.98258">
        <ele>233</ele>
        <time>2015-04-26T09:58:16Z</time>
      </trkpt>
      <trkpt lat="45.78133" lon="4.98257">
        <ele>233</ele>
        <time>2015-04-26T09:58:17Z</time>
      </trkpt>
      <trkpt lat="45.78129" lon="4.98254">
        <ele>233</ele>
        <time>2015-04-26T09:58:19Z</time>
      </trkpt>
      <trkpt lat="45.78127" lon="4.98252">
        <ele>233</ele>
        <time>2015-04-26T09:58:20Z</time>
      </trkpt>
      <trkpt lat="45.78123" lon="4.98249">
        <ele>234</ele>
        <time>2015-04-26T09:58:22Z</time>
      </trkpt>
      <trkpt lat="45.7812" lon="4.98246">
        <ele>234</ele>
        <time>2015-04-26T09:58:23Z</time>
      </trkpt>
      <trkpt lat="45.78117" lon="4.9824">
        <ele>234</ele>
        <time>2015-04-26T09:58:26Z</time>
      </trkpt>
      <trkpt lat="45.78115" lon="4.98236">
        <ele>234</ele>
        <time>2015-04-26T09:58:27Z</time>
      </trkpt>
      <trkpt lat="45.78111" lon="4.98231">
        <ele>234</ele>
        <time>2015-04-26T09:58:30Z</time>
      </trkpt>
      <trkpt lat="45.78109" lon="4.98228">
        <ele>234</ele>
        <time>2015-04-26T09:58:31Z</time>
      </trkpt>
      <trkpt lat="45.78106" lon="4.98222">
        <ele>234</ele>
        <time>2015-04-26T09:58:34Z</time>
      </trkpt>
      <trkpt lat="45.78104" lon="4.98219">
        <ele>234</ele>
        <time>2015-04-26T09:58:35Z</time>
      </trkpt>
      <trkpt lat="45.781" lon="4.98214">
        <ele>234</ele>
        <time>2015-04-26T09:58:38Z</time>
      </trkpt>
      <trkpt lat="45.78098" lon="4.98211">
        <ele>234</ele>
        <time>2015-04-26T09:58:39Z</time>
      </trkpt>
      <trkpt lat="45.78096" lon="4.98205">
        <ele>234</ele>
        <time>2015-04-26T09:58:42Z</time>
      </trkpt>
      <trkpt lat="45.78096" lon="4.98202">
        <ele>234</ele>
        <time>2015-04-26T09:58:43Z</time>
      </trkpt>
      <trkpt lat="45.78096" lon="4.98196">
        <ele>234</ele>
        <time>2015-04-26T09:58:46Z</time>
      </trkpt>
      <trkpt lat="45.78095" lon="4.98191">
        <ele>234</ele>
        <time>2015-04-26T09:58:48Z</time>
      </trkpt>
      <trkpt lat="45.78095" lon="4.98186">
        <ele>234</ele>
        <time>2015-04-26T09:58:51Z</time>
      </trkpt>
      <trkpt lat="45.78094" lon="4.98182">
        <ele>234</ele>
        <time>2015-04-26T09:58:53Z</time>
      </trkpt>
      <trkpt lat="45.78094" lon="4.98176">
        <ele>234</ele>
        <time>2015-04-26T09:58:56Z</time>
      </trkpt>
      <trkpt lat="45.78093" lon="4.98171">
        <ele>233</ele>
        <time>2015-04-26T09:58:59Z</time>
      </trkpt>
      <trkpt lat="45.78092" lon="4.98167">
        <ele>234</ele>
        <time>2015-04-26T09:59:02Z</time>
      </trkpt>
      <trkpt lat="45.7809" lon="4.98163">
        <ele>234</ele>
        <time>2015-04-26T09:59:05Z</time>
      </trkpt>
      <trkpt lat="45.78088" lon="4.98159">
        <ele>235</ele>
        <time>2015-04-26T09:59:09Z</time>
      </trkpt>
      <trkpt lat="45.78087" lon="4.98154">
        <ele>235.4</ele>
        <time>2015-04-26T09:59:14Z</time>
      </trkpt>
      <trkpt lat="45.78084" lon="4.98156">
        <ele>235</ele>
        <time>2015-04-26T09:59:19Z</time>
      </trkpt>
      <trkpt lat="45.78081" lon="4.98159">
        <ele>235</ele>
        <time>2015-04-26T09:59:24Z</time>
      </trkpt>
      <trkpt lat="45.78079" lon="4.98162">
        <ele>234.8</ele>
        <time>2015-04-26T09:59:28Z</time>
      </trkpt>
      <trkpt lat="45.78077" lon="4.98166">
        <ele>234</ele>
        <time>2015-04-26T09:59:33Z</time>
      </trkpt>
      <trkpt lat="45.78074" lon="4.98169">
        <ele>234</ele>
        <time>2015-04-26T09:59:36Z</time>
      </trkpt>
      <trkpt lat="45.78072" lon="4.98172">
        <ele>234</ele>
        <time>2015-04-26T09:59:39Z</time>
      </trkpt>
      <trkpt lat="45.78069" lon="4.98175">
        <ele>233.5</ele>
        <time>2015-04-26T09:59:41Z</time>
      </trkpt>
      <trkpt lat="45.78066" lon="4.98178">
        <ele>232.5</ele>
        <time>2015-04-26T09:59:44Z</time>
      </trkpt>
      <trkpt lat="45.78063" lon="4.9818">
        <ele>232</ele>
        <time>2015-04-26T09:59:47Z</time>
      </trkpt>
      <trkpt lat="45.7806" lon="4.98182">
        <ele>231</ele>
        <time>2015-04-26T09:59:50Z</time>
      </trkpt>
      <trkpt lat="45.78057" lon="4.98184">
        <ele>231</ele>
        <time>2015-04-26T09:59:53Z</time>
      </trkpt>
      <trkpt lat="45.78053" lon="4.98184">
        <ele>231</ele>
        <time>2015-04-26T09:59:56Z</time>
      </trkpt>
      <trkpt lat="45.7805" lon="4.98186">
        <ele>231</ele>
        <time>2015-04-26T10:00:00Z</time>
      </trkpt>
      <trkpt lat="45.78049" lon="4.9819">
        <ele>231</ele>
        <time>2015-04-26T10:00:03Z</time>
      </trkpt>
      <trkpt lat="45.78051" lon="4.98194">
        <ele>231</ele>
        <time>2015-04-26T10:00:06Z</time>
      </trkpt>
      <trkpt lat="45.78054" lon="4.98198">
        <ele>231</ele>
        <time>2015-04-26T10:00:09Z</time>
      </trkpt>
      <trkpt lat="45.78056" lon="4.98202">
        <ele>231</ele>
        <time>2015-04-26T10:00:12Z</time>
      </trkpt>
      <trkpt lat="45.78058" lon="4.98206">
        <ele>231</ele>
        <time>2015-04-26T10:00:15Z</time>
      </trkpt>
      <trkpt lat="45.7806" lon="4.9821">
        <ele>232</ele>
        <time>2015-04-26T10:00:17Z</time>
      </trkpt>
      <trkpt lat="45.78062" lon="4.98216">
        <ele>232</ele>
        <time>2015-04-26T10:00:20Z</time>
      </trkpt>
      <trkpt lat="45.78064" lon="4.98221">
        <ele>232</ele>
        <time>2015-04-26T10:00:22Z</time>
      </trkpt>
      <trkpt lat="45.78067" lon="4.98226">
        <ele>232</ele>
        <time>2015-04-26T10:00:24Z</time>
      </trkpt>
      <trkpt lat="45.7807" lon="4.98231">
        <ele>232</ele>
        <time>2015-04-26T10:00:26Z</time>
      </trkpt>
      <trkpt lat="45.78071" lon="4.98234">
        <ele>232</ele>
        <time>2015-04-26T10:00:27Z</time>
      </trkpt>
      <trkpt lat="45.78075" lon="4.9824">
        <ele>232</ele>
        <time>2015-04-26T10:00:29Z</time>
      </trkpt>
      <trkpt lat="45.78077" lon="4.98243">
        <ele>232</ele>
        <time>2015-04-26T10:00:30Z</time>
      </trkpt>
      <trkpt lat="45.7808" lon="4.98248">
        <ele>232</ele>
        <time>2015-04-26T10:00:32Z</time>
      </trkpt>
      <trkpt lat="45.78082" lon="4.98251">
        <ele>232</ele>
        <time>2015-04-26T10:00:33Z</time>
      </trkpt>
      <trkpt lat="45.78086" lon="4.98256">
        <ele>233</ele>
        <time>2015-04-26T10:00:35Z</time>
      </trkpt>
      <trkpt lat="45.78088" lon="4.98259">
        <ele>233</ele>
        <time>2015-04-26T10:00:36Z</time>
      </trkpt>
      <trkpt lat="45.78091" lon="4.98263">
        <ele>233</ele>
        <time>2015-04-26T10:00:38Z</time>
      </trkpt>
      <trkpt lat="45.78093" lon="4.98266">
        <ele>233</ele>
        <time>2015-04-26T10:00:39Z</time>
      </trkpt>
      <trkpt lat="45.78096" lon="4.9827">
        <ele>233</ele>
        <time>2015-04-26T10:00:41Z</time>
      </trkpt>
      <trkpt lat="45.78098" lon="4.98273">
        <ele>233</ele>
        <time>2015-04-26T10:00:42Z</time>
      </trkpt>
      <trkpt lat="45.78101" lon="4.98278">
        <ele>233</ele>
        <time>2015-04-26T10:00:44Z</time>
      </trkpt>
      <trkpt lat="45.78103" lon="4.9828">
        <ele>233</ele>
        <time>2015-04-26T10:00:45Z</time>
      </trkpt>
      <trkpt lat="45.78105" lon="4.98285">
        <ele>232</ele>
        <time>2015-04-26T10:00:47Z</time>
      </trkpt>
      <trkpt lat="45.78107" lon="4.98288">
        <ele>232</ele>
        <time>2015-04-26T10:00:48Z</time>
      </trkpt>
      <trkpt lat="45.7811" lon="4.98293">
        <ele>232</ele>
        <time>2015-04-26T10:00:50Z</time>
      </trkpt>
      <trkpt lat="45.78112" lon="4.98296">
        <ele>232</ele>
        <time>2015-04-26T10:00:51Z</time>
      </trkpt>
      <trkpt lat="45.78115" lon="4.98301">
        <ele>233</ele>
        <time>2015-04-26T10:00:53Z</time>
      </trkpt>
      <trkpt lat="45.78117" lon="4.98303">
        <ele>233</ele>
        <time>2015-04-26T10:00:54Z</time>
      </trkpt>
      <trkpt lat="45.78121" lon="4.98307">
        <ele>233</ele>
        <time>2015-04-26T10:00:56Z</time>
      </trkpt>
      <trkpt lat="45.78123" lon="4.98309">
        <ele>233</ele>
        <time>2015-04-26T10:00:57Z</time>
      </trkpt>
      <trkpt lat="45.78127" lon="4.98313">
        <ele>233</ele>
        <time>2015-04-26T10:00:59Z</time>
      </trkpt>
      <trkpt lat="45.7813" lon="4.98315">
        <ele>233.5</ele>
        <time>2015-04-26T10:01:00Z</time>
      </trkpt>
      <trkpt lat="45.78135" lon="4.98318">
        <ele>233</ele>
        <time>2015-04-26T10:01:03Z</time>
      </trkpt>
      <trkpt lat="45.78137" lon="4.98319">
        <ele>233</ele>
        <time>2015-04-26T10:01:04Z</time>
      </trkpt>
      <trkpt lat="45.78141" lon="4.98321">
        <ele>233</ele>
        <time>2015-04-26T10:01:07Z</time>
      </trkpt>
      <trkpt lat="45.78143" lon="4.98324">
        <ele>233</ele>
        <time>2015-04-26T10:01:09Z</time>
      </trkpt>
      <trkpt lat="45.78146" lon="4.98326">
        <ele>233</ele>
        <time>2015-04-26T10:01:11Z</time>
      </trkpt>
      <trkpt lat="45.78148" lon="4.98329">
        <ele>233</ele>
        <time>2015-04-26T10:01:13Z</time>
      </trkpt>
      <trkpt lat="45.7815" lon="4.98333">
        <ele>233</ele>
        <time>2015-04-26T10:01:15Z</time>
      </trkpt>
      <trkpt lat="45.78153" lon="4.98337">
        <ele>233.5</ele>
        <time>2015-04-26T10:01:17Z</time>
      </trkpt>
      <trkpt lat="45.78155" lon="4.9834">
        <ele>234</ele>
        <time>2015-04-26T10:01:20Z</time>
      </trkpt>
      <trkpt lat="45.78158" lon="4.98343">
        <ele>234</ele>
        <time>2015-04-26T10:01:22Z</time>
      </trkpt>
      <trkpt lat="45.7816" lon="4.98347">
        <ele>234</ele>
        <time>2015-04-26T10:01:24Z</time>
      </trkpt>
      <trkpt lat="45.78162" lon="4.98349">
        <ele>234</ele>
        <time>2015-04-26T10:01:26Z</time>
      </trkpt>
      <trkpt lat="45.78165" lon="4.98352">
        <ele>234</ele>
        <time>2015-04-26T10:01:28Z</time>
      </trkpt>
      <trkpt lat="45.78168" lon="4.98355">
        <ele>234</ele>
        <time>2015-04-26T10:01:30Z</time>
      </trkpt>
      <trkpt lat="45.78172" lon="4.98358">
        <ele>234</ele>
        <time>2015-04-26T10:01:32Z</time>
      </trkpt>
      <trkpt lat="45.78175" lon="4.98361">
        <ele>234</ele>
        <time>2015-04-26T10:01:34Z</time>
      </trkpt>
      <trkpt lat="45.78179" lon="4.98364">
        <ele>235</ele>
        <time>2015-04-26T10:01:36Z</time>
      </trkpt>
      <trkpt lat="45.78183" lon="4.98367">
        <ele>234</ele>
        <time>2015-04-26T10:01:38Z</time>
      </trkpt>
      <trkpt lat="45.78186" lon="4.9837">
        <ele>234</ele>
        <time>2015-04-26T10:01:40Z</time>
      </trkpt>
      <trkpt lat="45.7819" lon="4.98373">
        <ele>234</ele>
        <time>2015-04-26T10:01:42Z</time>
      </trkpt>
      <trkpt lat="45.78193" lon="4.98376">
        <ele>233</ele>
        <time>2015-04-26T10:01:44Z</time>
      </trkpt>
      <trkpt lat="45.78196" lon="4.98379">
        <ele>233</ele>
        <time>2015-04-26T10:01:46Z</time>
      </trkpt>
      <trkpt lat="45.78199" lon="4.98382">
        <ele>234</ele>
        <time>2015-04-26T10:01:48Z</time>
      </trkpt>
      <trkpt lat="45.78203" lon="4.98385">
        <ele>233</ele>
        <time>2015-04-26T10:01:50Z</time>
      </trkpt>
      <trkpt lat="45.78206" lon="4.98389">
        <ele>233</ele>
        <time>2015-04-26T10:01:52Z</time>
      </trkpt>
      <trkpt lat="45.7821" lon="4.98393">
        <ele>233</ele>
        <time>2015-04-26T10:01:54Z</time>
      </trkpt>
      <trkpt lat="45.78213" lon="4.98396">
        <ele>233</ele>
        <time>2015-04-26T10:01:56Z</time>
      </trkpt>
      <trkpt lat="45.78217" lon="4.98399">
        <ele>233</ele>
        <time>2015-04-26T10:01:58Z</time>
      </trkpt>
      <trkpt lat="45.7822" lon="4.98402">
        <ele>233</ele>
        <time>2015-04-26T10:02:00Z</time>
      </trkpt>
      <trkpt lat="45.78223" lon="4.98405">
        <ele>233</ele>
        <time>2015-04-26T10:02:02Z</time>
      </trkpt>
      <trkpt lat="45.78226" lon="4.98408">
        <ele>234</ele>
        <time>2015-04-26T10:02:04Z</time>
      </trkpt>
      <trkpt lat="45.78229" lon="4.98411">
        <ele>234</ele>
        <time>2015-04-26T10:02:06Z</time>
      </trkpt>
      <trkpt lat="45.78232" lon="4.98414">
        <ele>235</ele>
        <time>2015-04-26T10:02:08Z</time>
      </trkpt>
      <trkpt lat="45.78235" lon="4.98417">
        <ele>235</ele>
        <time>2015-04-26T10:02:10Z</time>
      </trkpt>
      <trkpt lat="45.78238" lon="4.98421">
        <ele>235</ele>
        <time>2015-04-26T10:02:12Z</time>
      </trkpt>
      <trkpt lat="45.78242" lon="4.98424">
        <ele>235</ele>
        <time>2015-04-26T10:02:14Z</time>
      </trkpt>
      <trkpt lat="45.78245" lon="4.98428">
        <ele>235</ele>
        <time>2015-04-26T10:02:16Z</time>
      </trkpt>
      <trkpt lat="45.78248" lon="4.98432">
        <ele>235</ele>
        <time>2015-04-26T10:02:18Z</time>
      </trkpt>
      <trkpt lat="45.78252" lon="4.98436">
        <ele>235</ele>
        <time>2015-04-26T10:02:20Z</time>
      </trkpt>
      <trkpt lat="45.78254" lon="4.98438">
        <ele>235</ele>
        <time>2015-04-26T10:02:21Z</time>
      </trkpt>
      <trkpt lat="45.78258" lon="4.98442">
        <ele>235</ele>
        <time>2015-04-26T10:02:23Z</time>
      </trkpt>
      <trkpt lat="45.7826" lon="4.98443">
        <ele>235</ele>
        <time>2015-04-26T10:02:24Z</time>
      </trkpt>
      <trkpt lat="45.78264" lon="4.98446">
        <ele>235</ele>
        <time>2015-04-26T10:02:26Z</time>
      </trkpt>
      <trkpt lat="45.78266" lon="4.98448">
        <ele>235</ele>
        <time>2015-04-26T10:02:27Z</time>
      </trkpt>
      <trkpt lat="45.7827" lon="4.98452">
        <ele>234</ele>
        <time>2015-04-26T10:02:29Z</time>
      </trkpt>
      <trkpt lat="45.78273" lon="4.98455">
        <ele>234</ele>
        <time>2015-04-26T10:02:30Z</time>
      </trkpt>
      <trkpt lat="45.78277" lon="4.98459">
        <ele>234</ele>
        <time>2015-04-26T10:02:33Z</time>
      </trkpt>
      <trkpt lat="45.7828" lon="4.98462">
        <ele>234</ele>
        <time>2015-04-26T10:02:34Z</time>
      </trkpt>
      <trkpt lat="45.78284" lon="4.98465">
        <ele>234</ele>
        <time>2015-04-26T10:02:37Z</time>
      </trkpt>
      <trkpt lat="45.78287" lon="4.98467">
        <ele>233.5</ele>
        <time>2015-04-26T10:02:38Z</time>
      </trkpt>
      <trkpt lat="45.78291" lon="4.9847">
        <ele>233</ele>
        <time>2015-04-26T10:02:41Z</time>
      </trkpt>
      <trkpt lat="45.78294" lon="4.98472">
        <ele>234</ele>
        <time>2015-04-26T10:02:42Z</time>
      </trkpt>
      <trkpt lat="45.78298" lon="4.98475">
        <ele>233</ele>
        <time>2015-04-26T10:02:45Z</time>
      </trkpt>
      <trkpt lat="45.783" lon="4.98477">
        <ele>234</ele>
        <time>2015-04-26T10:02:46Z</time>
      </trkpt>
      <trkpt lat="45.78304" lon="4.98482">
        <ele>234</ele>
        <time>2015-04-26T10:02:48Z</time>
      </trkpt>
      <trkpt lat="45.78306" lon="4.98484">
        <ele>234</ele>
        <time>2015-04-26T10:02:49Z</time>
      </trkpt>
      <trkpt lat="45.78311" lon="4.98489">
        <ele>234</ele>
        <time>2015-04-26T10:02:51Z</time>
      </trkpt>
      <trkpt lat="45.78313" lon="4.9849">
        <ele>234</ele>
        <time>2015-04-26T10:02:52Z</time>
      </trkpt>
      <trkpt lat="45.78318" lon="4.98494">
        <ele>234</ele>
        <time>2015-04-26T10:02:54Z</time>
      </trkpt>
      <trkpt lat="45.7832" lon="4.98496">
        <ele>234</ele>
        <time>2015-04-26T10:02:55Z</time>
      </trkpt>
      <trkpt lat="45.78325" lon="4.985">
        <ele>233</ele>
        <time>2015-04-26T10:02:57Z</time>
      </trkpt>
      <trkpt lat="45.78327" lon="4.98502">
        <ele>234</ele>
        <time>2015-04-26T10:02:58Z</time>
      </trkpt>
      <trkpt lat="45.78331" lon="4.98506">
        <ele>234</ele>
        <time>2015-04-26T10:03:00Z</time>
      </trkpt>
      <trkpt lat="45.78331" lon="4.9851">
        <ele>233.7</ele>
        <time>2015-04-26T10:03:02Z</time>
      </trkpt>
      <trkpt lat="45.78331" lon="4.98515">
        <ele>233</ele>
        <time>2015-04-26T10:03:05Z</time>
      </trkpt>
      <trkpt lat="45.78333" lon="4.98519">
        <ele>234</ele>
        <time>2015-04-26T10:03:07Z</time>
      </trkpt>
      <trkpt lat="45.78337" lon="4.98523">
        <ele>234</ele>
        <time>2015-04-26T10:03:09Z</time>
      </trkpt>
      <trkpt lat="45.78339" lon="4.98525">
        <ele>234</ele>
        <time>2015-04-26T10:03:10Z</time>
      </trkpt>
      <trkpt lat="45.78343" lon="4.98528">
        <ele>234</ele>
        <time>2015-04-26T10:03:12Z</time>
      </trkpt>
      <trkpt lat="45.78345" lon="4.9853">
        <ele>234</ele>
        <time>2015-04-26T10:03:13Z</time>
      </trkpt>
      <trkpt lat="45.7835" lon="4.98533">
        <ele>233</ele>
        <time>2015-04-26T10:03:15Z</time>
      </trkpt>
      <trkpt lat="45.78352" lon="4.98534">
        <ele>233</ele>
        <time>2015-04-26T10:03:16Z</time>
      </trkpt>
      <trkpt lat="45.78357" lon="4.98538">
        <ele>233</ele>
        <time>2015-04-26T10:03:18Z</time>
      </trkpt>
      <trkpt lat="45.78359" lon="4.98539">
        <ele>233</ele>
        <time>2015-04-26T10:03:19Z</time>
      </trkpt>
      <trkpt lat="45.78364" lon="4.98543">
        <ele>233</ele>
        <time>2015-04-26T10:03:21Z</time>
      </trkpt>
      <trkpt lat="45.78366" lon="4.98545">
        <ele>233</ele>
        <time>2015-04-26T10:03:22Z</time>
      </trkpt>
      <trkpt lat="45.78371" lon="4.9855">
        <ele>234</ele>
        <time>2015-04-26T10:03:24Z</time>
      </trkpt>
      <trkpt lat="45.78373" lon="4.98552">
        <ele>234</ele>
        <time>2015-04-26T10:03:25Z</time>
      </trkpt>
      <trkpt lat="45.78378" lon="4.98556">
        <ele>234</ele>
        <time>2015-04-26T10:03:27Z</time>
      </trkpt>
      <trkpt lat="45.78381" lon="4.98558">
        <ele>234</ele>
        <time>2015-04-26T10:03:28Z</time>
      </trkpt>
      <trkpt lat="45.78386" lon="4.98562">
        <ele>234</ele>
        <time>2015-04-26T10:03:30Z</time>
      </trkpt>
      <trkpt lat="45.78389" lon="4.98565">
        <ele>234</ele>
        <time>2015-04-26T10:03:31Z</time>
      </trkpt>
      <trkpt lat="45.78396" lon="4.98572">
        <ele>235</ele>
        <time>2015-04-26T10:03:33Z</time>
      </trkpt>
      <trkpt lat="45.78399" lon="4.98575">
        <ele>235</ele>
        <time>2015-04-26T10:03:34Z</time>
      </trkpt>
      <trkpt lat="45.78404" lon="4.9858">
        <ele>234</ele>
        <time>2015-04-26T10:03:36Z</time>
      </trkpt>
      <trkpt lat="45.78406" lon="4.98582">
        <ele>234</ele>
        <time>2015-04-26T10:03:37Z</time>
      </trkpt>
      <trkpt lat="45.78411" lon="4.98587">
        <ele>235</ele>
        <time>2015-04-26T10:03:39Z</time>
      </trkpt>
      <trkpt lat="45.78413" lon="4.98589">
        <ele>235</ele>
        <time>2015-04-26T10:03:40Z</time>
      </trkpt>
      <trkpt lat="45.78418" lon="4.98594">
        <ele>235</ele>
        <time>2015-04-26T10:03:42Z</time>
      </trkpt>
      <trkpt lat="45.7842" lon="4.98596">
        <ele>235</ele>
        <time>2015-04-26T10:03:43Z</time>
      </trkpt>
      <trkpt lat="45.78425" lon="4.986">
        <ele>235</ele>
        <time>2015-04-26T10:03:45Z</time>
      </trkpt>
      <trkpt lat="45.78427" lon="4.98603">
        <ele>235</ele>
        <time>2015-04-26T10:03:46Z</time>
      </trkpt>
      <trkpt lat="45.78432" lon="4.98607">
        <ele>236</ele>
        <time>2015-04-26T10:03:48Z</time>
      </trkpt>
      <trkpt lat="45.78434" lon="4.98609">
        <ele>235</ele>
        <time>2015-04-26T10:03:49Z</time>
      </trkpt>
      <trkpt lat="45.78439" lon="4.98614">
        <ele>235</ele>
        <time>2015-04-26T10:03:51Z</time>
      </trkpt>
      <trkpt lat="45.78442" lon="4.98616">
        <ele>235</ele>
        <time>2015-04-26T10:03:52Z</time>
      </trkpt>
      <trkpt lat="45.78447" lon="4.98621">
        <ele>234</ele>
        <time>2015-04-26T10:03:54Z</time>
      </trkpt>
      <trkpt lat="45.78449" lon="4.98624">
        <ele>234</ele>
        <time>2015-04-26T10:03:55Z</time>
      </trkpt>
      <trkpt lat="45.78454" lon="4.98628">
        <ele>235</ele>
        <time>2015-04-26T10:03:57Z</time>
      </trkpt>
      <trkpt lat="45.78456" lon="4.98631">
        <ele>235</ele>
        <time>2015-04-26T10:03:58Z</time>
      </trkpt>
      <trkpt lat="45.78461" lon="4.98635">
        <ele>234</ele>
        <time>2015-04-26T10:04:00Z</time>
      </trkpt>
      <trkpt lat="45.78463" lon="4.98638">
        <ele>235</ele>
        <time>2015-04-26T10:04:01Z</time>
      </trkpt>
      <trkpt lat="45.78468" lon="4.98643">
        <ele>235</ele>
        <time>2015-04-26T10:04:03Z</time>
      </trkpt>
      <trkpt lat="45.7847" lon="4.98645">
        <ele>235</ele>
        <time>2015-04-26T10:04:04Z</time>
      </trkpt>
      <trkpt lat="45.78475" lon="4.9865">
        <ele>235</ele>
        <time>2015-04-26T10:04:06Z</time>
      </trkpt>
      <trkpt lat="45.78477" lon="4.98652">
        <ele>235</ele>
        <time>2015-04-26T10:04:07Z</time>
      </trkpt>
      <trkpt lat="45.78482" lon="4.98656">
        <ele>235</ele>
        <time>2015-04-26T10:04:09Z</time>
      </trkpt>
      <trkpt lat="45.78484" lon="4.98658">
        <ele>235</ele>
        <time>2015-04-26T10:04:10Z</time>
      </trkpt>
      <trkpt lat="45.78488" lon="4.98662">
        <ele>236</ele>
        <time>2015-04-26T10:04:12Z</time>
      </trkpt>
      <trkpt lat="45.78491" lon="4.98663">
        <ele>236</ele>
        <time>2015-04-26T10:04:13Z</time>
      </trkpt>
      <trkpt lat="45.78495" lon="4.98667">
        <ele>236</ele>
        <time>2015-04-26T10:04:15Z</time>
      </trkpt>
      <trkpt lat="45.78497" lon="4.98669">
        <ele>236</ele>
        <time>2015-04-26T10:04:16Z</time>
      </trkpt>
      <trkpt lat="45.78502" lon="4.98674">
        <ele>235</ele>
        <time>2015-04-26T10:04:18Z</time>
      </trkpt>
      <trkpt lat="45.78504" lon="4.98676">
        <ele>235</ele>
        <time>2015-04-26T10:04:19Z</time>
      </trkpt>
      <trkpt lat="45.78508" lon="4.98681">
        <ele>235</ele>
        <time>2015-04-26T10:04:21Z</time>
      </trkpt>
      <trkpt lat="45.7851" lon="4.98683">
        <ele>235</ele>
        <time>2015-04-26T10:04:22Z</time>
      </trkpt>
      <trkpt lat="45.78515" lon="4.98687">
        <ele>236</ele>
        <time>2015-04-26T10:04:24Z</time>
      </trkpt>
      <trkpt lat="45.78517" lon="4.9869">
        <ele>235</ele>
        <time>2015-04-26T10:04:25Z</time>
      </trkpt>
      <trkpt lat="45.78521" lon="4.98695">
        <ele>235</ele>
        <time>2015-04-26T10:04:27Z</time>
      </trkpt>
      <trkpt lat="45.78523" lon="4.98697">
        <ele>235</ele>
        <time>2015-04-26T10:04:28Z</time>
      </trkpt>
      <trkpt lat="45.78528" lon="4.98701">
        <ele>234</ele>
        <time>2015-04-26T10:04:30Z</time>
      </trkpt>
      <trkpt lat="45.7853" lon="4.98703">
        <ele>234</ele>
        <time>2015-04-26T10:04:31Z</time>
      </trkpt>
      <trkpt lat="45.78535" lon="4.98707">
        <ele>234</ele>
        <time>2015-04-26T10:04:33Z</time>
      </trkpt>
      <trkpt lat="45.78537" lon="4.9871">
        <ele>234</ele>
        <time>2015-04-26T10:04:34Z</time>
      </trkpt>
      <trkpt lat="45.78542" lon="4.98715">
        <ele>233</ele>
        <time>2015-04-26T10:04:36Z</time>
      </trkpt>
      <trkpt lat="45.78545" lon="4.98717">
        <ele>233</ele>
        <time>2015-04-26T10:04:37Z</time>
      </trkpt>
      <trkpt lat="45.7855" lon="4.98721">
        <ele>233</ele>
        <time>2015-04-26T10:04:39Z</time>
      </trkpt>
      <trkpt lat="45.78552" lon="4.98723">
        <ele>232</ele>
        <time>2015-04-26T10:04:40Z</time>
      </trkpt>
      <trkpt lat="45.78557" lon="4.98727">
        <ele>232</ele>
        <time>2015-04-26T10:04:42Z</time>
      </trkpt>
      <trkpt lat="45.78559" lon="4.98729">
        <ele>232</ele>
        <time>2015-04-26T10:04:43Z</time>
      </trkpt>
      <trkpt lat="45.78564" lon="4.98732">
        <ele>232</ele>
        <time>2015-04-26T10:04:45Z</time>
      </trkpt>
      <trkpt lat="45.78566" lon="4.98734">
        <ele>232</ele>
        <time>2015-04-26T10:04:46Z</time>
      </trkpt>
      <trkpt lat="45.78571" lon="4.98737">
        <ele>232</ele>
        <time>2015-04-26T10:04:48Z</time>
      </trkpt>
      <trkpt lat="45.78573" lon="4.98739">
        <ele>231</ele>
        <time>2015-04-26T10:04:49Z</time>
      </trkpt>
      <trkpt lat="45.78578" lon="4.98743">
        <ele>232</ele>
        <time>2015-04-26T10:04:51Z</time>
      </trkpt>
      <trkpt lat="45.7858" lon="4.98744">
        <ele>231</ele>
        <time>2015-04-26T10:04:52Z</time>
      </trkpt>
      <trkpt lat="45.78585" lon="4.98747">
        <ele>231</ele>
        <time>2015-04-26T10:04:54Z</time>
      </trkpt>
      <trkpt lat="45.78588" lon="4.98747">
        <ele>230</ele>
        <time>2015-04-26T10:04:55Z</time>
      </trkpt>
      <trkpt lat="45.78593" lon="4.98749">
        <ele>231</ele>
        <time>2015-04-26T10:04:57Z</time>
      </trkpt>
      <trkpt lat="45.78596" lon="4.9875">
        <ele>230</ele>
        <time>2015-04-26T10:04:58Z</time>
      </trkpt>
      <trkpt lat="45.78601" lon="4.98751">
        <ele>230</ele>
        <time>2015-04-26T10:05:00Z</time>
      </trkpt>
      <trkpt lat="45.78604" lon="4.98751">
        <ele>229</ele>
        <time>2015-04-26T10:05:01Z</time>
      </trkpt>
      <trkpt lat="45.78611" lon="4.9875">
        <ele>229</ele>
        <time>2015-04-26T10:05:03Z</time>
      </trkpt>
      <trkpt lat="45.78613" lon="4.98749">
        <ele>229</ele>
        <time>2015-04-26T10:05:04Z</time>
      </trkpt>
      <trkpt lat="45.78619" lon="4.98747">
        <ele>229</ele>
        <time>2015-04-26T10:05:06Z</time>
      </trkpt>
      <trkpt lat="45.78622" lon="4.98746">
        <ele>229</ele>
        <time>2015-04-26T10:05:07Z</time>
      </trkpt>
      <trkpt lat="45.78627" lon="4.98744">
        <ele>229</ele>
        <time>2015-04-26T10:05:09Z</time>
      </trkpt>
      <trkpt lat="45.78631" lon="4.98743">
        <ele>230</ele>
        <time>2015-04-26T10:05:10Z</time>
      </trkpt>
      <trkpt lat="45.78637" lon="4.98742">
        <ele>230</ele>
        <time>2015-04-26T10:05:12Z</time>
      </trkpt>
      <trkpt lat="45.7864" lon="4.98741">
        <ele>230</ele>
        <time>2015-04-26T10:05:13Z</time>
      </trkpt>
      <trkpt lat="45.78646" lon="4.98738">
        <ele>229</ele>
        <time>2015-04-26T10:05:15Z</time>
      </trkpt>
      <trkpt lat="45.78649" lon="4.98737">
        <ele>229</ele>
        <time>2015-04-26T10:05:16Z</time>
      </trkpt>
      <trkpt lat="45.78655" lon="4.98735">
        <ele>228</ele>
        <time>2015-04-26T10:05:18Z</time>
      </trkpt>
      <trkpt lat="45.78658" lon="4.98733">
        <ele>228</ele>
        <time>2015-04-26T10:05:19Z</time>
      </trkpt>
      <trkpt lat="45.78664" lon="4.98731">
        <ele>229</ele>
        <time>2015-04-26T10:05:21Z</time>
      </trkpt>
      <trkpt lat="45.78666" lon="4.98729">
        <ele>229</ele>
        <time>2015-04-26T10:05:22Z</time>
      </trkpt>
      <trkpt lat="45.78671" lon="4.98727">
        <ele>229</ele>
        <time>2015-04-26T10:05:24Z</time>
      </trkpt>
      <trkpt lat="45.78674" lon="4.98726">
        <ele>228</ele>
        <time>2015-04-26T10:05:25Z</time>
      </trkpt>
      <trkpt lat="45.78679" lon="4.98724">
        <ele>228</ele>
        <time>2015-04-26T10:05:27Z</time>
      </trkpt>
      <trkpt lat="45.78681" lon="4.98723">
        <ele>228</ele>
        <time>2015-04-26T10:05:28Z</time>
      </trkpt>
      <trkpt lat="45.78685" lon="4.98721">
        <ele>228</ele>
        <time>2015-04-26T10:05:30Z</time>
      </trkpt>
      <trkpt lat="45.78688" lon="4.9872">
        <ele>228</ele>
        <time>2015-04-26T10:05:31Z</time>
      </trkpt>
      <trkpt lat="45.78692" lon="4.98718">
        <ele>228</ele>
        <time>2015-04-26T10:05:33Z</time>
      </trkpt>
      <trkpt lat="45.78694" lon="4.98717">
        <ele>228</ele>
        <time>2015-04-26T10:05:34Z</time>
      </trkpt>
      <trkpt lat="45.78699" lon="4.98715">
        <ele>228</ele>
        <time>2015-04-26T10:05:36Z</time>
      </trkpt>
      <trkpt lat="45.78701" lon="4.98714">
        <ele>228</ele>
        <time>2015-04-26T10:05:37Z</time>
      </trkpt>
      <trkpt lat="45.78706" lon="4.98712">
        <ele>228</ele>
        <time>2015-04-26T10:05:39Z</time>
      </trkpt>
      <trkpt lat="45.78708" lon="4.98712">
        <ele>228</ele>
        <time>2015-04-26T10:05:40Z</time>
      </trkpt>
      <trkpt lat="45.78713" lon="4.9871">
        <ele>228</ele>
        <time>2015-04-26T10:05:42Z</time>
      </trkpt>
      <trkpt lat="45.78715" lon="4.98709">
        <ele>228</ele>
        <time>2015-04-26T10:05:43Z</time>
      </trkpt>
      <trkpt lat="45.7872" lon="4.98706">
        <ele>228</ele>
        <time>2015-04-26T10:05:45Z</time>
      </trkpt>
      <trkpt lat="45.78723" lon="4.98705">
        <ele>228</ele>
        <time>2015-04-26T10:05:46Z</time>
      </trkpt>
      <trkpt lat="45.78728" lon="4.98703">
        <ele>228</ele>
        <time>2015-04-26T10:05:48Z</time>
      </trkpt>
      <trkpt lat="45.7873" lon="4.98701">
        <ele>228</ele>
        <time>2015-04-26T10:05:49Z</time>
      </trkpt>
      <trkpt lat="45.78735" lon="4.98698">
        <ele>228</ele>
        <time>2015-04-26T10:05:51Z</time>
      </trkpt>
      <trkpt lat="45.78738" lon="4.98697">
        <ele>228</ele>
        <time>2015-04-26T10:05:52Z</time>
      </trkpt>
      <trkpt lat="45.78743" lon="4.98694">
        <ele>228</ele>
        <time>2015-04-26T10:05:54Z</time>
      </trkpt>
      <trkpt lat="45.78745" lon="4.98693">
        <ele>228</ele>
        <time>2015-04-26T10:05:55Z</time>
      </trkpt>
      <trkpt lat="45.7875" lon="4.98691">
        <ele>227</ele>
        <time>2015-04-26T10:05:57Z</time>
      </trkpt>
      <trkpt lat="45.78753" lon="4.9869">
        <ele>228</ele>
        <time>2015-04-26T10:05:58Z</time>
      </trkpt>
      <trkpt lat="45.78758" lon="4.98688">
        <ele>228</ele>
        <time>2015-04-26T10:06:00Z</time>
      </trkpt>
      <trkpt lat="45.78761" lon="4.98686">
        <ele>228</ele>
        <time>2015-04-26T10:06:01Z</time>
      </trkpt>
      <trkpt lat="45.78766" lon="4.98684">
        <ele>227</ele>
        <time>2015-04-26T10:06:03Z</time>
      </trkpt>
      <trkpt lat="45.78769" lon="4.98683">
        <ele>227</ele>
        <time>2015-04-26T10:06:04Z</time>
      </trkpt>
      <trkpt lat="45.78774" lon="4.98681">
        <ele>228</ele>
        <time>2015-04-26T10:06:06Z</time>
      </trkpt>
      <trkpt lat="45.78777" lon="4.9868">
        <ele>227</ele>
        <time>2015-04-26T10:06:07Z</time>
      </trkpt>
      <trkpt lat="45.78782" lon="4.98678">
        <ele>228</ele>
        <time>2015-04-26T10:06:09Z</time>
      </trkpt>
      <trkpt lat="45.78785" lon="4.98676">
        <ele>229</ele>
        <time>2015-04-26T10:06:10Z</time>
      </trkpt>
      <trkpt lat="45.78791" lon="4.98674">
        <ele>229</ele>
        <time>2015-04-26T10:06:12Z</time>
      </trkpt>
      <trkpt lat="45.78794" lon="4.98673">
        <ele>229</ele>
        <time>2015-04-26T10:06:13Z</time>
      </trkpt>
      <trkpt lat="45.78799" lon="4.9867">
        <ele>229</ele>
        <time>2015-04-26T10:06:15Z</time>
      </trkpt>
      <trkpt lat="45.78802" lon="4.98669">
        <ele>229</ele>
        <time>2015-04-26T10:06:16Z</time>
      </trkpt>
      <trkpt lat="45.78808" lon="4.98666">
        <ele>228</ele>
        <time>2015-04-26T10:06:18Z</time>
      </trkpt>
      <trkpt lat="45.78811" lon="4.98664">
        <ele>228</ele>
        <time>2015-04-26T10:06:19Z</time>
      </trkpt>
      <trkpt lat="45.78816" lon="4.98661">
        <ele>228</ele>
        <time>2015-04-26T10:06:21Z</time>
      </trkpt>
      <trkpt lat="45.78819" lon="4.98659">
        <ele>227</ele>
        <time>2015-04-26T10:06:22Z</time>
      </trkpt>
      <trkpt lat="45.78824" lon="4.98655">
        <ele>227</ele>
        <time>2015-04-26T10:06:24Z</time>
      </trkpt>
      <trkpt lat="45.78827" lon="4.98654">
        <ele>227</ele>
        <time>2015-04-26T10:06:25Z</time>
      </trkpt>
      <trkpt lat="45.78833" lon="4.98651">
        <ele>227</ele>
        <time>2015-04-26T10:06:27Z</time>
      </trkpt>
      <trkpt lat="45.78836" lon="4.98649">
        <ele>227</ele>
        <time>2015-04-26T10:06:28Z</time>
      </trkpt>
      <trkpt lat="45.78841" lon="4.98646">
        <ele>227</ele>
        <time>2015-04-26T10:06:30Z</time>
      </trkpt>
      <trkpt lat="45.78844" lon="4.98645">
        <ele>227</ele>
        <time>2015-04-26T10:06:31Z</time>
      </trkpt>
      <trkpt lat="45.78849" lon="4.98642">
        <ele>226</ele>
        <time>2015-04-26T10:06:33Z</time>
      </trkpt>
      <trkpt lat="45.78852" lon="4.98641">
        <ele>227</ele>
        <time>2015-04-26T10:06:34Z</time>
      </trkpt>
      <trkpt lat="45.78857" lon="4.98638">
        <ele>227</ele>
        <time>2015-04-26T10:06:36Z</time>
      </trkpt>
      <trkpt lat="45.7886" lon="4.98637">
        <ele>228</ele>
        <time>2015-04-26T10:06:37Z</time>
      </trkpt>
      <trkpt lat="45.78865" lon="4.98634">
        <ele>228</ele>
        <time>2015-04-26T10:06:39Z</time>
      </trkpt>
      <trkpt lat="45.78867" lon="4.98633">
        <ele>228</ele>
        <time>2015-04-26T10:06:40Z</time>
      </trkpt>
      <trkpt lat="45.78872" lon="4.98631">
        <ele>228</ele>
        <time>2015-04-26T10:06:42Z</time>
      </trkpt>
      <trkpt lat="45.78875" lon="4.9863">
        <ele>227</ele>
        <time>2015-04-26T10:06:43Z</time>
      </trkpt>
      <trkpt lat="45.7888" lon="4.98627">
        <ele>227</ele>
        <time>2015-04-26T10:06:45Z</time>
      </trkpt>
      <trkpt lat="45.78882" lon="4.98626">
        <ele>227</ele>
        <time>2015-04-26T10:06:46Z</time>
      </trkpt>
      <trkpt lat="45.78886" lon="4.98623">
        <ele>227</ele>
        <time>2015-04-26T10:06:48Z</time>
      </trkpt>
      <trkpt lat="45.78889" lon="4.98621">
        <ele>228</ele>
        <time>2015-04-26T10:06:49Z</time>
      </trkpt>
      <trkpt lat="45.78893" lon="4.98619">
        <ele>227</ele>
        <time>2015-04-26T10:06:51Z</time>
      </trkpt>
      <trkpt lat="45.78896" lon="4.98618">
        <ele>227</ele>
        <time>2015-04-26T10:06:52Z</time>
      </trkpt>
      <trkpt lat="45.789" lon="4.98616">
        <ele>227</ele>
        <time>2015-04-26T10:06:54Z</time>
      </trkpt>
      <trkpt lat="45.78902" lon="4.98615">
        <ele>228</ele>
        <time>2015-04-26T10:06:55Z</time>
      </trkpt>
      <trkpt lat="45.78907" lon="4.98613">
        <ele>227</ele>
        <time>2015-04-26T10:06:57Z</time>
      </trkpt>
      <trkpt lat="45.78909" lon="4.98613">
        <ele>228</ele>
        <time>2015-04-26T10:06:58Z</time>
      </trkpt>
      <trkpt lat="45.78914" lon="4.98611">
        <ele>227</ele>
        <time>2015-04-26T10:07:00Z</time>
      </trkpt>
      <trkpt lat="45.78916" lon="4.9861">
        <ele>227</ele>
        <time>2015-04-26T10:07:01Z</time>
      </trkpt>
      <trkpt lat="45.78921" lon="4.98608">
        <ele>227</ele>
        <time>2015-04-26T10:07:03Z</time>
      </trkpt>
      <trkpt lat="45.78923" lon="4.98607">
        <ele>227</ele>
        <time>2015-04-26T10:07:04Z</time>
      </trkpt>
      <trkpt lat="45.78927" lon="4.98605">
        <ele>228</ele>
        <time>2015-04-26T10:07:06Z</time>
      </trkpt>
      <trkpt lat="45.7893" lon="4.98605">
        <ele>228</ele>
        <time>2015-04-26T10:07:07Z</time>
      </trkpt>
      <trkpt lat="45.78934" lon="4.98603">
        <ele>228</ele>
        <time>2015-04-26T10:07:09Z</time>
      </trkpt>
      <trkpt lat="45.78936" lon="4.98601">
        <ele>227</ele>
        <time>2015-04-26T10:07:10Z</time>
      </trkpt>
      <trkpt lat="45.78941" lon="4.98599">
        <ele>227</ele>
        <time>2015-04-26T10:07:12Z</time>
      </trkpt>
      <trkpt lat="45.78943" lon="4.98598">
        <ele>227</ele>
        <time>2015-04-26T10:07:13Z</time>
      </trkpt>
      <trkpt lat="45.78947" lon="4.98595">
        <ele>227</ele>
        <time>2015-04-26T10:07:15Z</time>
      </trkpt>
      <trkpt lat="45.7895" lon="4.98594">
        <ele>228</ele>
        <time>2015-04-26T10:07:16Z</time>
      </trkpt>
      <trkpt lat="45.78954" lon="4.98591">
        <ele>227</ele>
        <time>2015-04-26T10:07:18Z</time>
      </trkpt>
      <trkpt lat="45.78956" lon="4.9859">
        <ele>227</ele>
        <time>2015-04-26T10:07:19Z</time>
      </trkpt>
      <trkpt lat="45.78961" lon="4.98587">
        <ele>227</ele>
        <time>2015-04-26T10:07:21Z</time>
      </trkpt>
      <trkpt lat="45.78963" lon="4.98586">
        <ele>227</ele>
        <time>2015-04-26T10:07:22Z</time>
      </trkpt>
      <trkpt lat="45.78967" lon="4.98583">
        <ele>227</ele>
        <time>2015-04-26T10:07:24Z</time>
      </trkpt>
      <trkpt lat="45.7897" lon="4.98578">
        <ele>228</ele>
        <time>2015-04-26T10:07:26Z</time>
      </trkpt>
      <trkpt lat="45.78972" lon="4.98572">
        <ele>227</ele>
        <time>2015-04-26T10:07:28Z</time>
      </trkpt>
      <trkpt lat="45.78971" lon="4.98568">
        <ele>227.5</ele>
        <time>2015-04-26T10:07:29Z</time>
      </trkpt>
      <trkpt lat="45.78969" lon="4.98562">
        <ele>227</ele>
        <time>2015-04-26T10:07:32Z</time>
      </trkpt>
      <trkpt lat="45.78965" lon="4.98559">
        <ele>228</ele>
        <time>2015-04-26T10:07:34Z</time>
      </trkpt>
      <trkpt lat="45.78962" lon="4.98555">
        <ele>228</ele>
        <time>2015-04-26T10:07:36Z</time>
      </trkpt>
      <trkpt lat="45.78958" lon="4.98551">
        <ele>228</ele>
        <time>2015-04-26T10:07:38Z</time>
      </trkpt>
      <trkpt lat="45.78957" lon="4.98549">
        <ele>228</ele>
        <time>2015-04-26T10:07:39Z</time>
      </trkpt>
      <trkpt lat="45.78953" lon="4.98544">
        <ele>228</ele>
        <time>2015-04-26T10:07:41Z</time>
      </trkpt>
      <trkpt lat="45.78952" lon="4.98542">
        <ele>228</ele>
        <time>2015-04-26T10:07:42Z</time>
      </trkpt>
      <trkpt lat="45.78948" lon="4.98538">
        <ele>229</ele>
        <time>2015-04-26T10:07:44Z</time>
      </trkpt>
      <trkpt lat="45.78946" lon="4.98535">
        <ele>229</ele>
        <time>2015-04-26T10:07:45Z</time>
      </trkpt>
      <trkpt lat="45.78943" lon="4.98531">
        <ele>229</ele>
        <time>2015-04-26T10:07:47Z</time>
      </trkpt>
      <trkpt lat="45.78941" lon="4.98528">
        <ele>230</ele>
        <time>2015-04-26T10:07:48Z</time>
      </trkpt>
      <trkpt lat="45.78938" lon="4.98523">
        <ele>231</ele>
        <time>2015-04-26T10:07:50Z</time>
      </trkpt>
      <trkpt lat="45.78936" lon="4.98521">
        <ele>231</ele>
        <time>2015-04-26T10:07:51Z</time>
      </trkpt>
      <trkpt lat="45.78933" lon="4.98516">
        <ele>231</ele>
        <time>2015-04-26T10:07:53Z</time>
      </trkpt>
      <trkpt lat="45.78932" lon="4.98513">
        <ele>231</ele>
        <time>2015-04-26T10:07:54Z</time>
      </trkpt>
      <trkpt lat="45.78929" lon="4.98509">
        <ele>231</ele>
        <time>2015-04-26T10:07:56Z</time>
      </trkpt>
      <trkpt lat="45.78927" lon="4.98506">
        <ele>232</ele>
        <time>2015-04-26T10:07:57Z</time>
      </trkpt>
      <trkpt lat="45.78924" lon="4.98502">
        <ele>232</ele>
        <time>2015-04-26T10:07:59Z</time>
      </trkpt>
      <trkpt lat="45.78922" lon="4.98499">
        <ele>232</ele>
        <time>2015-04-26T10:08:00Z</time>
      </trkpt>
      <trkpt lat="45.78919" lon="4.98495">
        <ele>232</ele>
        <time>2015-04-26T10:08:02Z</time>
      </trkpt>
      <trkpt lat="45.78918" lon="4.98493">
        <ele>232</ele>
        <time>2015-04-26T10:08:03Z</time>
      </trkpt>
      <trkpt lat="45.78914" lon="4.98488">
        <ele>233</ele>
        <time>2015-04-26T10:08:05Z</time>
      </trkpt>
      <trkpt lat="45.78913" lon="4.98485">
        <ele>234</ele>
        <time>2015-04-26T10:08:06Z</time>
      </trkpt>
      <trkpt lat="45.7891" lon="4.9848">
        <ele>234</ele>
        <time>2015-04-26T10:08:08Z</time>
      </trkpt>
      <trkpt lat="45.78908" lon="4.98478">
        <ele>234</ele>
        <time>2015-04-26T10:08:09Z</time>
      </trkpt>
      <trkpt lat="45.78905" lon="4.98474">
        <ele>233</ele>
        <time>2015-04-26T10:08:11Z</time>
      </trkpt>
      <trkpt lat="45.78903" lon="4.98471">
        <ele>233</ele>
        <time>2015-04-26T10:08:12Z</time>
      </trkpt>
      <trkpt lat="45.789" lon="4.98467">
        <ele>234</ele>
        <time>2015-04-26T10:08:14Z</time>
      </trkpt>
      <trkpt lat="45.78898" lon="4.98465">
        <ele>234</ele>
        <time>2015-04-26T10:08:15Z</time>
      </trkpt>
      <trkpt lat="45.78894" lon="4.9846">
        <ele>234</ele>
        <time>2015-04-26T10:08:17Z</time>
      </trkpt>
      <trkpt lat="45.78892" lon="4.98458">
        <ele>234</ele>
        <time>2015-04-26T10:08:18Z</time>
      </trkpt>
      <trkpt lat="45.78889" lon="4.98454">
        <ele>234</ele>
        <time>2015-04-26T10:08:20Z</time>
      </trkpt>
      <trkpt lat="45.78887" lon="4.98451">
        <ele>234</ele>
        <time>2015-04-26T10:08:21Z</time>
      </trkpt>
      <trkpt lat="45.78884" lon="4.98446">
        <ele>234</ele>
        <time>2015-04-26T10:08:23Z</time>
      </trkpt>
      <trkpt lat="45.78882" lon="4.98444">
        <ele>234</ele>
        <time>2015-04-26T10:08:24Z</time>
      </trkpt>
      <trkpt lat="45.78879" lon="4.98439">
        <ele>234</ele>
        <time>2015-04-26T10:08:26Z</time>
      </trkpt>
      <trkpt lat="45.78877" lon="4.98435">
        <ele>234</ele>
        <time>2015-04-26T10:08:27Z</time>
      </trkpt>
      <trkpt lat="45.78873" lon="4.98429">
        <ele>234</ele>
        <time>2015-04-26T10:08:30Z</time>
      </trkpt>
      <trkpt lat="45.78872" lon="4.98427">
        <ele>234</ele>
        <time>2015-04-26T10:08:31Z</time>
      </trkpt>
      <trkpt lat="45.78869" lon="4.98422">
        <ele>234</ele>
        <time>2015-04-26T10:08:33Z</time>
      </trkpt>
      <trkpt lat="45.78867" lon="4.98419">
        <ele>234</ele>
        <time>2015-04-26T10:08:34Z</time>
      </trkpt>
      <trkpt lat="45.78865" lon="4.98414">
        <ele>234</ele>
        <time>2015-04-26T10:08:36Z</time>
      </trkpt>
      <trkpt lat="45.78864" lon="4.98411">
        <ele>234</ele>
        <time>2015-04-26T10:08:37Z</time>
      </trkpt>
      <trkpt lat="45.78861" lon="4.98406">
        <ele>234</ele>
        <time>2015-04-26T10:08:39Z</time>
      </trkpt>
      <trkpt lat="45.7886" lon="4.98401">
        <ele>234</ele>
        <time>2015-04-26T10:08:40Z</time>
      </trkpt>
      <trkpt lat="45.78856" lon="4.98395">
        <ele>234</ele>
        <time>2015-04-26T10:08:43Z</time>
      </trkpt>
      <trkpt lat="45.78854" lon="4.98392">
        <ele>234</ele>
        <time>2015-04-26T10:08:44Z</time>
      </trkpt>
      <trkpt lat="45.7885" lon="4.98387">
        <ele>234</ele>
        <time>2015-04-26T10:08:47Z</time>
      </trkpt>
      <trkpt lat="45.78848" lon="4.98384">
        <ele>235</ele>
        <time>2015-04-26T10:08:48Z</time>
      </trkpt>
      <trkpt lat="45.78846" lon="4.98379">
        <ele>235</ele>
        <time>2015-04-26T10:08:50Z</time>
      </trkpt>
      <trkpt lat="45.78844" lon="4.98377">
        <ele>235</ele>
        <time>2015-04-26T10:08:51Z</time>
      </trkpt>
      <trkpt lat="45.78842" lon="4.98371">
        <ele>235</ele>
        <time>2015-04-26T10:08:53Z</time>
      </trkpt>
      <trkpt lat="45.7884" lon="4.98368">
        <ele>234.5</ele>
        <time>2015-04-26T10:08:54Z</time>
      </trkpt>
      <trkpt lat="45.78836" lon="4.98362">
        <ele>234</ele>
        <time>2015-04-26T10:08:57Z</time>
      </trkpt>
      <trkpt lat="45.78834" lon="4.98359">
        <ele>234</ele>
        <time>2015-04-26T10:08:58Z</time>
      </trkpt>
      <trkpt lat="45.78831" lon="4.98354">
        <ele>234</ele>
        <time>2015-04-26T10:09:00Z</time>
      </trkpt>
      <trkpt lat="45.78829" lon="4.98352">
        <ele>234</ele>
        <time>2015-04-26T10:09:01Z</time>
      </trkpt>
      <trkpt lat="45.78826" lon="4.98347">
        <ele>234</ele>
        <time>2015-04-26T10:09:03Z</time>
      </trkpt>
      <trkpt lat="45.78824" lon="4.98345">
        <ele>234</ele>
        <time>2015-04-26T10:09:04Z</time>
      </trkpt>
      <trkpt lat="45.78821" lon="4.9834">
        <ele>234</ele>
        <time>2015-04-26T10:09:06Z</time>
      </trkpt>
      <trkpt lat="45.78819" lon="4.98338">
        <ele>234</ele>
        <time>2015-04-26T10:09:07Z</time>
      </trkpt>
      <trkpt lat="45.78815" lon="4.98333">
        <ele>234</ele>
        <time>2015-04-26T10:09:09Z</time>
      </trkpt>
      <trkpt lat="45.78814" lon="4.9833">
        <ele>234</ele>
        <time>2015-04-26T10:09:10Z</time>
      </trkpt>
      <trkpt lat="45.78811" lon="4.98324">
        <ele>234</ele>
        <time>2015-04-26T10:09:12Z</time>
      </trkpt>
      <trkpt lat="45.78809" lon="4.98322">
        <ele>234</ele>
        <time>2015-04-26T10:09:13Z</time>
      </trkpt>
      <trkpt lat="45.78806" lon="4.98317">
        <ele>234</ele>
        <time>2015-04-26T10:09:15Z</time>
      </trkpt>
      <trkpt lat="45.78805" lon="4.98314">
        <ele>235</ele>
        <time>2015-04-26T10:09:16Z</time>
      </trkpt>
      <trkpt lat="45.78802" lon="4.98308">
        <ele>235</ele>
        <time>2015-04-26T10:09:18Z</time>
      </trkpt>
      <trkpt lat="45.78801" lon="4.98304">
        <ele>234</ele>
        <time>2015-04-26T10:09:19Z</time>
      </trkpt>
      <trkpt lat="45.788" lon="4.98298">
        <ele>234</ele>
        <time>2015-04-26T10:09:21Z</time>
      </trkpt>
      <trkpt lat="45.78799" lon="4.98295">
        <ele>234</ele>
        <time>2015-04-26T10:09:22Z</time>
      </trkpt>
      <trkpt lat="45.78796" lon="4.98289">
        <ele>234</ele>
        <time>2015-04-26T10:09:24Z</time>
      </trkpt>
      <trkpt lat="45.78795" lon="4.98287">
        <ele>234</ele>
        <time>2015-04-26T10:09:25Z</time>
      </trkpt>
      <trkpt lat="45.78793" lon="4.98281">
        <ele>234</ele>
        <time>2015-04-26T10:09:27Z</time>
      </trkpt>
      <trkpt lat="45.78792" lon="4.98278">
        <ele>234</ele>
        <time>2015-04-26T10:09:28Z</time>
      </trkpt>
      <trkpt lat="45.78789" lon="4.98272">
        <ele>233</ele>
        <time>2015-04-26T10:09:30Z</time>
      </trkpt>
      <trkpt lat="45.78788" lon="4.98269">
        <ele>233</ele>
        <time>2015-04-26T10:09:31Z</time>
      </trkpt>
      <trkpt lat="45.78786" lon="4.98263">
        <ele>234</ele>
        <time>2015-04-26T10:09:33Z</time>
      </trkpt>
      <trkpt lat="45.78785" lon="4.9826">
        <ele>234</ele>
        <time>2015-04-26T10:09:34Z</time>
      </trkpt>
      <trkpt lat="45.78782" lon="4.98255">
        <ele>235</ele>
        <time>2015-04-26T10:09:36Z</time>
      </trkpt>
      <trkpt lat="45.78781" lon="4.9825">
        <ele>235</ele>
        <time>2015-04-26T10:09:37Z</time>
      </trkpt>
      <trkpt lat="45.78778" lon="4.98243">
        <ele>235</ele>
        <time>2015-04-26T10:09:40Z</time>
      </trkpt>
      <trkpt lat="45.78776" lon="4.98239">
        <ele>236</ele>
        <time>2015-04-26T10:09:41Z</time>
      </trkpt>
      <trkpt lat="45.78773" lon="4.98233">
        <ele>236</ele>
        <time>2015-04-26T10:09:44Z</time>
      </trkpt>
      <trkpt lat="45.78771" lon="4.98229">
        <ele>236</ele>
        <time>2015-04-26T10:09:45Z</time>
      </trkpt>
      <trkpt lat="45.78769" lon="4.98222">
        <ele>236</ele>
        <time>2015-04-26T10:09:48Z</time>
      </trkpt>
      <trkpt lat="45.78767" lon="4.98218">
        <ele>236</ele>
        <time>2015-04-26T10:09:49Z</time>
      </trkpt>
      <trkpt lat="45.78764" lon="4.98211">
        <ele>236</ele>
        <time>2015-04-26T10:09:52Z</time>
      </trkpt>
      <trkpt lat="45.78762" lon="4.98207">
        <ele>235</ele>
        <time>2015-04-26T10:09:53Z</time>
      </trkpt>
      <trkpt lat="45.78759" lon="4.982">
        <ele>235</ele>
        <time>2015-04-26T10:09:56Z</time>
      </trkpt>
      <trkpt lat="45.78758" lon="4.98197">
        <ele>235</ele>
        <time>2015-04-26T10:09:57Z</time>
      </trkpt>
      <trkpt lat="45.78756" lon="4.98192">
        <ele>235</ele>
        <time>2015-04-26T10:09:59Z</time>
      </trkpt>
      <trkpt lat="45.78755" lon="4.98187">
        <ele>235</ele>
        <time>2015-04-26T10:10:00Z</time>
      </trkpt>
      <trkpt lat="45.78753" lon="4.9818">
        <ele>235</ele>
        <time>2015-04-26T10:10:03Z</time>
      </trkpt>
      <trkpt lat="45.78751" lon="4.98176">
        <ele>235</ele>
        <time>2015-04-26T10:10:04Z</time>
      </trkpt>
      <trkpt lat="45.78749" lon="4.9817">
        <ele>235</ele>
        <time>2015-04-26T10:10:07Z</time>
      </trkpt>
      <trkpt lat="45.78748" lon="4.98166">
        <ele>235</ele>
        <time>2015-04-26T10:10:08Z</time>
      </trkpt>
      <trkpt lat="45.78745" lon="4.98159">
        <ele>235</ele>
        <time>2015-04-26T10:10:11Z</time>
      </trkpt>
      <trkpt lat="45.78744" lon="4.98155">
        <ele>235</ele>
        <time>2015-04-26T10:10:12Z</time>
      </trkpt>
      <trkpt lat="45.78742" lon="4.98147">
        <ele>236</ele>
        <time>2015-04-26T10:10:15Z</time>
      </trkpt>
      <trkpt lat="45.78741" lon="4.98144">
        <ele>236</ele>
        <time>2015-04-26T10:10:16Z</time>
      </trkpt>
      <trkpt lat="45.78738" lon="4.98138">
        <ele>235</ele>
        <time>2015-04-26T10:10:18Z</time>
      </trkpt>
      <trkpt lat="45.78737" lon="4.98135">
        <ele>235</ele>
        <time>2015-04-26T10:10:19Z</time>
      </trkpt>
      <trkpt lat="45.78735" lon="4.9813">
        <ele>235</ele>
        <time>2015-04-26T10:10:21Z</time>
      </trkpt>
      <trkpt lat="45.78733" lon="4.98127">
        <ele>235</ele>
        <time>2015-04-26T10:10:22Z</time>
      </trkpt>
      <trkpt lat="45.7873" lon="4.98121">
        <ele>236</ele>
        <time>2015-04-26T10:10:24Z</time>
      </trkpt>
      <trkpt lat="45.78729" lon="4.98118">
        <ele>236</ele>
        <time>2015-04-26T10:10:25Z</time>
      </trkpt>
      <trkpt lat="45.78726" lon="4.98113">
        <ele>235</ele>
        <time>2015-04-26T10:10:27Z</time>
      </trkpt>
      <trkpt lat="45.78725" lon="4.9811">
        <ele>235</ele>
        <time>2015-04-26T10:10:28Z</time>
      </trkpt>
      <trkpt lat="45.78722" lon="4.98103">
        <ele>236</ele>
        <time>2015-04-26T10:10:30Z</time>
      </trkpt>
      <trkpt lat="45.78721" lon="4.981">
        <ele>236</ele>
        <time>2015-04-26T10:10:31Z</time>
      </trkpt>
      <trkpt lat="45.78719" lon="4.98093">
        <ele>236</ele>
        <time>2015-04-26T10:10:33Z</time>
      </trkpt>
      <trkpt lat="45.78718" lon="4.9809">
        <ele>236</ele>
        <time>2015-04-26T10:10:34Z</time>
      </trkpt>
      <trkpt lat="45.78716" lon="4.98084">
        <ele>236</ele>
        <time>2015-04-26T10:10:36Z</time>
      </trkpt>
      <trkpt lat="45.78715" lon="4.98082">
        <ele>236</ele>
        <time>2015-04-26T10:10:37Z</time>
      </trkpt>
      <trkpt lat="45.78712" lon="4.98076">
        <ele>235</ele>
        <time>2015-04-26T10:10:39Z</time>
      </trkpt>
      <trkpt lat="45.78711" lon="4.98073">
        <ele>235</ele>
        <time>2015-04-26T10:10:40Z</time>
      </trkpt>
      <trkpt lat="45.78708" lon="4.98068">
        <ele>235</ele>
        <time>2015-04-26T10:10:42Z</time>
      </trkpt>
      <trkpt lat="45.78707" lon="4.98065">
        <ele>236</ele>
        <time>2015-04-26T10:10:43Z</time>
      </trkpt>
      <trkpt lat="45.78704" lon="4.98059">
        <ele>235</ele>
        <time>2015-04-26T10:10:45Z</time>
      </trkpt>
      <trkpt lat="45.78702" lon="4.98057">
        <ele>235</ele>
        <time>2015-04-26T10:10:46Z</time>
      </trkpt>
      <trkpt lat="45.78699" lon="4.98051">
        <ele>235</ele>
        <time>2015-04-26T10:10:48Z</time>
      </trkpt>
      <trkpt lat="45.78698" lon="4.98049">
        <ele>234</ele>
        <time>2015-04-26T10:10:49Z</time>
      </trkpt>
      <trkpt lat="45.78694" lon="4.98044">
        <ele>234</ele>
        <time>2015-04-26T10:10:51Z</time>
      </trkpt>
      <trkpt lat="45.78693" lon="4.98042">
        <ele>233</ele>
        <time>2015-04-26T10:10:52Z</time>
      </trkpt>
      <trkpt lat="45.78689" lon="4.98037">
        <ele>234</ele>
        <time>2015-04-26T10:10:54Z</time>
      </trkpt>
      <trkpt lat="45.78688" lon="4.98034">
        <ele>234</ele>
        <time>2015-04-26T10:10:55Z</time>
      </trkpt>
      <trkpt lat="45.78685" lon="4.9803">
        <ele>234</ele>
        <time>2015-04-26T10:10:57Z</time>
      </trkpt>
      <trkpt lat="45.78682" lon="4.98026">
        <ele>233.5</ele>
        <time>2015-04-26T10:10:58Z</time>
      </trkpt>
      <trkpt lat="45.78678" lon="4.9802">
        <ele>233</ele>
        <time>2015-04-26T10:11:01Z</time>
      </trkpt>
      <trkpt lat="45.78676" lon="4.98017">
        <ele>233</ele>
        <time>2015-04-26T10:11:02Z</time>
      </trkpt>
      <trkpt lat="45.78673" lon="4.98011">
        <ele>233</ele>
        <time>2015-04-26T10:11:05Z</time>
      </trkpt>
      <trkpt lat="45.78671" lon="4.98007">
        <ele>233</ele>
        <time>2015-04-26T10:11:06Z</time>
      </trkpt>
      <trkpt lat="45.78668" lon="4.98001">
        <ele>233</ele>
        <time>2015-04-26T10:11:09Z</time>
      </trkpt>
      <trkpt lat="45.78667" lon="4.97997">
        <ele>233</ele>
        <time>2015-04-26T10:11:10Z</time>
      </trkpt>
      <trkpt lat="45.78664" lon="4.9799">
        <ele>233</ele>
        <time>2015-04-26T10:11:13Z</time>
      </trkpt>
      <trkpt lat="45.78663" lon="4.97986">
        <ele>233</ele>
        <time>2015-04-26T10:11:14Z</time>
      </trkpt>
      <trkpt lat="45.7866" lon="4.97979">
        <ele>232</ele>
        <time>2015-04-26T10:11:17Z</time>
      </trkpt>
      <trkpt lat="45.78659" lon="4.97974">
        <ele>232</ele>
        <time>2015-04-26T10:11:18Z</time>
      </trkpt>
      <trkpt lat="45.78657" lon="4.97967">
        <ele>232</ele>
        <time>2015-04-26T10:11:21Z</time>
      </trkpt>
      <trkpt lat="45.78656" lon="4.97964">
        <ele>232</ele>
        <time>2015-04-26T10:11:22Z</time>
      </trkpt>
      <trkpt lat="45.78653" lon="4.97959">
        <ele>232</ele>
        <time>2015-04-26T10:11:24Z</time>
      </trkpt>
      <trkpt lat="45.78652" lon="4.97956">
        <ele>233</ele>
        <time>2015-04-26T10:11:25Z</time>
      </trkpt>
      <trkpt lat="45.7865" lon="4.9795">
        <ele>232</ele>
        <time>2015-04-26T10:11:27Z</time>
      </trkpt>
      <trkpt lat="45.78649" lon="4.97947">
        <ele>232</ele>
        <time>2015-04-26T10:11:28Z</time>
      </trkpt>
      <trkpt lat="45.78647" lon="4.97941">
        <ele>232</ele>
        <time>2015-04-26T10:11:30Z</time>
      </trkpt>
      <trkpt lat="45.78646" lon="4.97938">
        <ele>232</ele>
        <time>2015-04-26T10:11:31Z</time>
      </trkpt>
      <trkpt lat="45.78644" lon="4.97932">
        <ele>232</ele>
        <time>2015-04-26T10:11:33Z</time>
      </trkpt>
      <trkpt lat="45.78643" lon="4.97929">
        <ele>231</ele>
        <time>2015-04-26T10:11:34Z</time>
      </trkpt>
      <trkpt lat="45.7864" lon="4.97924">
        <ele>231</ele>
        <time>2015-04-26T10:11:36Z</time>
      </trkpt>
      <trkpt lat="45.78638" lon="4.9792">
        <ele>231</ele>
        <time>2015-04-26T10:11:37Z</time>
      </trkpt>
      <trkpt lat="45.78635" lon="4.97914">
        <ele>232</ele>
        <time>2015-04-26T10:11:40Z</time>
      </trkpt>
      <trkpt lat="45.78634" lon="4.97911">
        <ele>232</ele>
        <time>2015-04-26T10:11:41Z</time>
      </trkpt>
      <trkpt lat="45.78631" lon="4.97906">
        <ele>231</ele>
        <time>2015-04-26T10:11:43Z</time>
      </trkpt>
      <trkpt lat="45.7863" lon="4.97903">
        <ele>231</ele>
        <time>2015-04-26T10:11:44Z</time>
      </trkpt>
      <trkpt lat="45.78627" lon="4.97898">
        <ele>232</ele>
        <time>2015-04-26T10:11:46Z</time>
      </trkpt>
      <trkpt lat="45.78625" lon="4.97895">
        <ele>232</ele>
        <time>2015-04-26T10:11:47Z</time>
      </trkpt>
      <trkpt lat="45.78623" lon="4.97889">
        <ele>232</ele>
        <time>2015-04-26T10:11:49Z</time>
      </trkpt>
      <trkpt lat="45.78622" lon="4.97885">
        <ele>232</ele>
        <time>2015-04-26T10:11:50Z</time>
      </trkpt>
      <trkpt lat="45.78618" lon="4.97879">
        <ele>232</ele>
        <time>2015-04-26T10:11:53Z</time>
      </trkpt>
      <trkpt lat="45.78617" lon="4.97876">
        <ele>232</ele>
        <time>2015-04-26T10:11:54Z</time>
      </trkpt>
      <trkpt lat="45.78615" lon="4.9787">
        <ele>231</ele>
        <time>2015-04-26T10:11:56Z</time>
      </trkpt>
      <trkpt lat="45.78614" lon="4.97867">
        <ele>232</ele>
        <time>2015-04-26T10:11:57Z</time>
      </trkpt>
      <trkpt lat="45.78613" lon="4.97861">
        <ele>232</ele>
        <time>2015-04-26T10:11:59Z</time>
      </trkpt>
      <trkpt lat="45.78612" lon="4.97858">
        <ele>232</ele>
        <time>2015-04-26T10:12:00Z</time>
      </trkpt>
      <trkpt lat="45.7861" lon="4.97852">
        <ele>232</ele>
        <time>2015-04-26T10:12:02Z</time>
      </trkpt>
      <trkpt lat="45.78609" lon="4.97849">
        <ele>232</ele>
        <time>2015-04-26T10:12:03Z</time>
      </trkpt>
      <trkpt lat="45.78607" lon="4.97843">
        <ele>233</ele>
        <time>2015-04-26T10:12:05Z</time>
      </trkpt>
      <trkpt lat="45.78606" lon="4.9784">
        <ele>233</ele>
        <time>2015-04-26T10:12:06Z</time>
      </trkpt>
      <trkpt lat="45.78604" lon="4.97834">
        <ele>233</ele>
        <time>2015-04-26T10:12:08Z</time>
      </trkpt>
      <trkpt lat="45.78603" lon="4.97831">
        <ele>233</ele>
        <time>2015-04-26T10:12:09Z</time>
      </trkpt>
      <trkpt lat="45.78601" lon="4.97825">
        <ele>232</ele>
        <time>2015-04-26T10:12:11Z</time>
      </trkpt>
      <trkpt lat="45.786" lon="4.97822">
        <ele>232</ele>
        <time>2015-04-26T10:12:12Z</time>
      </trkpt>
      <trkpt lat="45.78598" lon="4.97816">
        <ele>232</ele>
        <time>2015-04-26T10:12:14Z</time>
      </trkpt>
      <trkpt lat="45.78596" lon="4.97814">
        <ele>231</ele>
        <time>2015-04-26T10:12:15Z</time>
      </trkpt>
      <trkpt lat="45.78594" lon="4.97809">
        <ele>231</ele>
        <time>2015-04-26T10:12:17Z</time>
      </trkpt>
      <trkpt lat="45.78592" lon="4.97806">
        <ele>231</ele>
        <time>2015-04-26T10:12:18Z</time>
      </trkpt>
      <trkpt lat="45.7859" lon="4.97801">
        <ele>232</ele>
        <time>2015-04-26T10:12:20Z</time>
      </trkpt>
      <trkpt lat="45.78588" lon="4.97798">
        <ele>232</ele>
        <time>2015-04-26T10:12:21Z</time>
      </trkpt>
      <trkpt lat="45.78586" lon="4.97793">
        <ele>232</ele>
        <time>2015-04-26T10:12:23Z</time>
      </trkpt>
      <trkpt lat="45.78584" lon="4.9779">
        <ele>232</ele>
        <time>2015-04-26T10:12:24Z</time>
      </trkpt>
      <trkpt lat="45.78581" lon="4.97785">
        <ele>232</ele>
        <time>2015-04-26T10:12:26Z</time>
      </trkpt>
      <trkpt lat="45.78579" lon="4.97783">
        <ele>232</ele>
        <time>2015-04-26T10:12:27Z</time>
      </trkpt>
      <trkpt lat="45.78576" lon="4.97778">
        <ele>233</ele>
        <time>2015-04-26T10:12:29Z</time>
      </trkpt>
      <trkpt lat="45.78574" lon="4.97776">
        <ele>233</ele>
        <time>2015-04-26T10:12:30Z</time>
      </trkpt>
      <trkpt lat="45.78571" lon="4.97772">
        <ele>233</ele>
        <time>2015-04-26T10:12:32Z</time>
      </trkpt>
      <trkpt lat="45.78569" lon="4.9777">
        <ele>233</ele>
        <time>2015-04-26T10:12:33Z</time>
      </trkpt>
      <trkpt lat="45.78566" lon="4.97765">
        <ele>232</ele>
        <time>2015-04-26T10:12:35Z</time>
      </trkpt>
      <trkpt lat="45.78564" lon="4.97762">
        <ele>232</ele>
        <time>2015-04-26T10:12:36Z</time>
      </trkpt>
      <trkpt lat="45.78561" lon="4.97755">
        <ele>233</ele>
        <time>2015-04-26T10:12:39Z</time>
      </trkpt>
      <trkpt lat="45.78559" lon="4.97751">
        <ele>233</ele>
        <time>2015-04-26T10:12:40Z</time>
      </trkpt>
      <trkpt lat="45.78557" lon="4.97745">
        <ele>233</ele>
        <time>2015-04-26T10:12:43Z</time>
      </trkpt>
      <trkpt lat="45.78555" lon="4.97741">
        <ele>233</ele>
        <time>2015-04-26T10:12:44Z</time>
      </trkpt>
      <trkpt lat="45.78553" lon="4.97734">
        <ele>233</ele>
        <time>2015-04-26T10:12:47Z</time>
      </trkpt>
      <trkpt lat="45.78551" lon="4.9773">
        <ele>233</ele>
        <time>2015-04-26T10:12:48Z</time>
      </trkpt>
      <trkpt lat="45.78548" lon="4.97724">
        <ele>233</ele>
        <time>2015-04-26T10:12:51Z</time>
      </trkpt>
      <trkpt lat="45.78547" lon="4.9772">
        <ele>233</ele>
        <time>2015-04-26T10:12:52Z</time>
      </trkpt>
      <trkpt lat="45.78544" lon="4.97713">
        <ele>234</ele>
        <time>2015-04-26T10:12:55Z</time>
      </trkpt>
      <trkpt lat="45.78542" lon="4.9771">
        <ele>234</ele>
        <time>2015-04-26T10:12:56Z</time>
      </trkpt>
      <trkpt lat="45.78538" lon="4.97706">
        <ele>234</ele>
        <time>2015-04-26T10:12:59Z</time>
      </trkpt>
      <trkpt lat="45.78535" lon="4.97702">
        <ele>234</ele>
        <time>2015-04-26T10:13:00Z</time>
      </trkpt>
      <trkpt lat="45.78532" lon="4.97696">
        <ele>234</ele>
        <time>2015-04-26T10:13:03Z</time>
      </trkpt>
      <trkpt lat="45.78531" lon="4.97693">
        <ele>234</ele>
        <time>2015-04-26T10:13:04Z</time>
      </trkpt>
      <trkpt lat="45.78528" lon="4.97686">
        <ele>233</ele>
        <time>2015-04-26T10:13:07Z</time>
      </trkpt>
      <trkpt lat="45.78527" lon="4.97682">
        <ele>233</ele>
        <time>2015-04-26T10:13:08Z</time>
      </trkpt>
      <trkpt lat="45.78525" lon="4.97676">
        <ele>233</ele>
        <time>2015-04-26T10:13:11Z</time>
      </trkpt>
      <trkpt lat="45.78523" lon="4.97672">
        <ele>233.5</ele>
        <time>2015-04-26T10:13:12Z</time>
      </trkpt>
      <trkpt lat="45.78521" lon="4.97666">
        <ele>234</ele>
        <time>2015-04-26T10:13:15Z</time>
      </trkpt>
      <trkpt lat="45.78519" lon="4.97663">
        <ele>234</ele>
        <time>2015-04-26T10:13:16Z</time>
      </trkpt>
      <trkpt lat="45.78517" lon="4.97656">
        <ele>234</ele>
        <time>2015-04-26T10:13:19Z</time>
      </trkpt>
      <trkpt lat="45.78515" lon="4.97653">
        <ele>234</ele>
        <time>2015-04-26T10:13:20Z</time>
      </trkpt>
      <trkpt lat="45.78512" lon="4.97646">
        <ele>234</ele>
        <time>2015-04-26T10:13:23Z</time>
      </trkpt>
      <trkpt lat="45.7851" lon="4.97643">
        <ele>234</ele>
        <time>2015-04-26T10:13:24Z</time>
      </trkpt>
      <trkpt lat="45.78507" lon="4.97637">
        <ele>234</ele>
        <time>2015-04-26T10:13:27Z</time>
      </trkpt>
      <trkpt lat="45.78505" lon="4.97634">
        <ele>234</ele>
        <time>2015-04-26T10:13:28Z</time>
      </trkpt>
      <trkpt lat="45.78502" lon="4.97628">
        <ele>235</ele>
        <time>2015-04-26T10:13:31Z</time>
      </trkpt>
      <trkpt lat="45.78501" lon="4.97625">
        <ele>234.5</ele>
        <time>2015-04-26T10:13:32Z</time>
      </trkpt>
      <trkpt lat="45.78498" lon="4.97618">
        <ele>234</ele>
        <time>2015-04-26T10:13:35Z</time>
      </trkpt>
      <trkpt lat="45.78497" lon="4.97615">
        <ele>233.5</ele>
        <time>2015-04-26T10:13:36Z</time>
      </trkpt>
      <trkpt lat="45.78495" lon="4.97609">
        <ele>234</ele>
        <time>2015-04-26T10:13:39Z</time>
      </trkpt>
      <trkpt lat="45.78494" lon="4.97605">
        <ele>234</ele>
        <time>2015-04-26T10:13:40Z</time>
      </trkpt>
      <trkpt lat="45.78492" lon="4.976">
        <ele>234</ele>
        <time>2015-04-26T10:13:43Z</time>
      </trkpt>
      <trkpt lat="45.7849" lon="4.97596">
        <ele>234</ele>
        <time>2015-04-26T10:13:44Z</time>
      </trkpt>
      <trkpt lat="45.78487" lon="4.97591">
        <ele>234</ele>
        <time>2015-04-26T10:13:47Z</time>
      </trkpt>
      <trkpt lat="45.78486" lon="4.97587">
        <ele>234</ele>
        <time>2015-04-26T10:13:48Z</time>
      </trkpt>
      <trkpt lat="45.78483" lon="4.97582">
        <ele>234</ele>
        <time>2015-04-26T10:13:51Z</time>
      </trkpt>
      <trkpt lat="45.78482" lon="4.97578">
        <ele>234</ele>
        <time>2015-04-26T10:13:52Z</time>
      </trkpt>
      <trkpt lat="45.7848" lon="4.97572">
        <ele>234</ele>
        <time>2015-04-26T10:13:55Z</time>
      </trkpt>
      <trkpt lat="45.78478" lon="4.97568">
        <ele>234</ele>
        <time>2015-04-26T10:13:57Z</time>
      </trkpt>
      <trkpt lat="45.78477" lon="4.97564">
        <ele>234</ele>
        <time>2015-04-26T10:13:59Z</time>
      </trkpt>
      <trkpt lat="45.78475" lon="4.9756">
        <ele>234</ele>
        <time>2015-04-26T10:14:01Z</time>
      </trkpt>
      <trkpt lat="45.78473" lon="4.97556">
        <ele>234</ele>
        <time>2015-04-26T10:14:03Z</time>
      </trkpt>
      <trkpt lat="45.78471" lon="4.97551">
        <ele>234</ele>
        <time>2015-04-26T10:14:05Z</time>
      </trkpt>
      <trkpt lat="45.78468" lon="4.97546">
        <ele>235</ele>
        <time>2015-04-26T10:14:07Z</time>
      </trkpt>
      <trkpt lat="45.78466" lon="4.97541">
        <ele>235</ele>
        <time>2015-04-26T10:14:09Z</time>
      </trkpt>
      <trkpt lat="45.78464" lon="4.97536">
        <ele>235</ele>
        <time>2015-04-26T10:14:11Z</time>
      </trkpt>
      <trkpt lat="45.78462" lon="4.97531">
        <ele>234</ele>
        <time>2015-04-26T10:14:13Z</time>
      </trkpt>
      <trkpt lat="45.78461" lon="4.97525">
        <ele>234</ele>
        <time>2015-04-26T10:14:15Z</time>
      </trkpt>
      <trkpt lat="45.78459" lon="4.9752">
        <ele>234</ele>
        <time>2015-04-26T10:14:17Z</time>
      </trkpt>
      <trkpt lat="45.78457" lon="4.97514">
        <ele>235</ele>
        <time>2015-04-26T10:14:19Z</time>
      </trkpt>
      <trkpt lat="45.78455" lon="4.97509">
        <ele>235</ele>
        <time>2015-04-26T10:14:21Z</time>
      </trkpt>
      <trkpt lat="45.78452" lon="4.97504">
        <ele>235</ele>
        <time>2015-04-26T10:14:23Z</time>
      </trkpt>
      <trkpt lat="45.78451" lon="4.97498">
        <ele>234</ele>
        <time>2015-04-26T10:14:25Z</time>
      </trkpt>
      <trkpt lat="45.78448" lon="4.97495">
        <ele>234</ele>
        <time>2015-04-26T10:14:27Z</time>
      </trkpt>
      <trkpt lat="45.78444" lon="4.97496">
        <ele>233</ele>
        <time>2015-04-26T10:14:29Z</time>
      </trkpt>
      <trkpt lat="45.78441" lon="4.97498">
        <ele>233</ele>
        <time>2015-04-26T10:14:32Z</time>
      </trkpt>
      <trkpt lat="45.78438" lon="4.97499">
        <ele>233</ele>
        <time>2015-04-26T10:14:34Z</time>
      </trkpt>
      <trkpt lat="45.78435" lon="4.97502">
        <ele>234</ele>
        <time>2015-04-26T10:14:36Z</time>
      </trkpt>
      <trkpt lat="45.78432" lon="4.97502">
        <ele>233</ele>
        <time>2015-04-26T10:14:38Z</time>
      </trkpt>
      <trkpt lat="45.78429" lon="4.97504">
        <ele>234</ele>
        <time>2015-04-26T10:14:40Z</time>
      </trkpt>
      <trkpt lat="45.78426" lon="4.97507">
        <ele>233</ele>
        <time>2015-04-26T10:14:42Z</time>
      </trkpt>
      <trkpt lat="45.78422" lon="4.97509">
        <ele>233</ele>
        <time>2015-04-26T10:14:44Z</time>
      </trkpt>
      <trkpt lat="45.78418" lon="4.9751">
        <ele>233</ele>
        <time>2015-04-26T10:14:46Z</time>
      </trkpt>
      <trkpt lat="45.78414" lon="4.97511">
        <ele>233</ele>
        <time>2015-04-26T10:14:47Z</time>
      </trkpt>
      <trkpt lat="45.78409" lon="4.97513">
        <ele>233</ele>
        <time>2015-04-26T10:14:50Z</time>
      </trkpt>
      <trkpt lat="45.78406" lon="4.97515">
        <ele>233</ele>
        <time>2015-04-26T10:14:51Z</time>
      </trkpt>
      <trkpt lat="45.78401" lon="4.97518">
        <ele>233</ele>
        <time>2015-04-26T10:14:54Z</time>
      </trkpt>
      <trkpt lat="45.78398" lon="4.9752">
        <ele>233</ele>
        <time>2015-04-26T10:14:55Z</time>
      </trkpt>
      <trkpt lat="45.78393" lon="4.97524">
        <ele>233</ele>
        <time>2015-04-26T10:14:58Z</time>
      </trkpt>
      <trkpt lat="45.7839" lon="4.97526">
        <ele>233</ele>
        <time>2015-04-26T10:14:59Z</time>
      </trkpt>
      <trkpt lat="45.78386" lon="4.9753">
        <ele>233</ele>
        <time>2015-04-26T10:15:02Z</time>
      </trkpt>
      <trkpt lat="45.78383" lon="4.97533">
        <ele>233</ele>
        <time>2015-04-26T10:15:03Z</time>
      </trkpt>
      <trkpt lat="45.78377" lon="4.97536">
        <ele>233</ele>
        <time>2015-04-26T10:15:06Z</time>
      </trkpt>
      <trkpt lat="45.78375" lon="4.97537">
        <ele>233</ele>
        <time>2015-04-26T10:15:07Z</time>
      </trkpt>
      <trkpt lat="45.78371" lon="4.9754">
        <ele>233</ele>
        <time>2015-04-26T10:15:09Z</time>
      </trkpt>
      <trkpt lat="45.78369" lon="4.97542">
        <ele>233</ele>
        <time>2015-04-26T10:15:10Z</time>
      </trkpt>
      <trkpt lat="45.78365" lon="4.97545">
        <ele>233</ele>
        <time>2015-04-26T10:15:12Z</time>
      </trkpt>
      <trkpt lat="45.78363" lon="4.97547">
        <ele>232</ele>
        <time>2015-04-26T10:15:13Z</time>
      </trkpt>
      <trkpt lat="45.78359" lon="4.97551">
        <ele>232</ele>
        <time>2015-04-26T10:15:15Z</time>
      </trkpt>
      <trkpt lat="45.78357" lon="4.97553">
        <ele>232</ele>
        <time>2015-04-26T10:15:16Z</time>
      </trkpt>
      <trkpt lat="45.78353" lon="4.97557">
        <ele>233</ele>
        <time>2015-04-26T10:15:18Z</time>
      </trkpt>
      <trkpt lat="45.78351" lon="4.97559">
        <ele>232</ele>
        <time>2015-04-26T10:15:19Z</time>
      </trkpt>
      <trkpt lat="45.78348" lon="4.97564">
        <ele>232</ele>
        <time>2015-04-26T10:15:21Z</time>
      </trkpt>
      <trkpt lat="45.78346" lon="4.97566">
        <ele>232</ele>
        <time>2015-04-26T10:15:22Z</time>
      </trkpt>
      <trkpt lat="45.78342" lon="4.97569">
        <ele>232</ele>
        <time>2015-04-26T10:15:24Z</time>
      </trkpt>
      <trkpt lat="45.7834" lon="4.97571">
        <ele>232</ele>
        <time>2015-04-26T10:15:25Z</time>
      </trkpt>
      <trkpt lat="45.78336" lon="4.97574">
        <ele>232</ele>
        <time>2015-04-26T10:15:27Z</time>
      </trkpt>
      <trkpt lat="45.78333" lon="4.97575">
        <ele>232</ele>
        <time>2015-04-26T10:15:28Z</time>
      </trkpt>
      <trkpt lat="45.78329" lon="4.97578">
        <ele>232</ele>
        <time>2015-04-26T10:15:30Z</time>
      </trkpt>
      <trkpt lat="45.78327" lon="4.97581">
        <ele>232</ele>
        <time>2015-04-26T10:15:31Z</time>
      </trkpt>
      <trkpt lat="45.78323" lon="4.97584">
        <ele>233</ele>
        <time>2015-04-26T10:15:33Z</time>
      </trkpt>
      <trkpt lat="45.78321" lon="4.97586">
        <ele>233</ele>
        <time>2015-04-26T10:15:34Z</time>
      </trkpt>
      <trkpt lat="45.78317" lon="4.9759">
        <ele>233</ele>
        <time>2015-04-26T10:15:36Z</time>
      </trkpt>
      <trkpt lat="45.78316" lon="4.97592">
        <ele>232</ele>
        <time>2015-04-26T10:15:37Z</time>
      </trkpt>
      <trkpt lat="45.78312" lon="4.97597">
        <ele>233</ele>
        <time>2015-04-26T10:15:39Z</time>
      </trkpt>
      <trkpt lat="45.7831" lon="4.97599">
        <ele>233</ele>
        <time>2015-04-26T10:15:40Z</time>
      </trkpt>
      <trkpt lat="45.78306" lon="4.97602">
        <ele>233</ele>
        <time>2015-04-26T10:15:42Z</time>
      </trkpt>
      <trkpt lat="45.78305" lon="4.97605">
        <ele>233</ele>
        <time>2015-04-26T10:15:43Z</time>
      </trkpt>
      <trkpt lat="45.78301" lon="4.97609">
        <ele>233</ele>
        <time>2015-04-26T10:15:45Z</time>
      </trkpt>
      <trkpt lat="45.78299" lon="4.9761">
        <ele>233</ele>
        <time>2015-04-26T10:15:46Z</time>
      </trkpt>
      <trkpt lat="45.78295" lon="4.97614">
        <ele>233</ele>
        <time>2015-04-26T10:15:48Z</time>
      </trkpt>
      <trkpt lat="45.78293" lon="4.97615">
        <ele>233</ele>
        <time>2015-04-26T10:15:49Z</time>
      </trkpt>
      <trkpt lat="45.78289" lon="4.97619">
        <ele>233</ele>
        <time>2015-04-26T10:15:51Z</time>
      </trkpt>
      <trkpt lat="45.78287" lon="4.97621">
        <ele>233</ele>
        <time>2015-04-26T10:15:52Z</time>
      </trkpt>
      <trkpt lat="45.78283" lon="4.97624">
        <ele>233</ele>
        <time>2015-04-26T10:15:54Z</time>
      </trkpt>
      <trkpt lat="45.78281" lon="4.97626">
        <ele>233</ele>
        <time>2015-04-26T10:15:55Z</time>
      </trkpt>
      <trkpt lat="45.78276" lon="4.97629">
        <ele>233</ele>
        <time>2015-04-26T10:15:57Z</time>
      </trkpt>
      <trkpt lat="45.78274" lon="4.97631">
        <ele>233</ele>
        <time>2015-04-26T10:15:58Z</time>
      </trkpt>
      <trkpt lat="45.7827" lon="4.97635">
        <ele>234</ele>
        <time>2015-04-26T10:16:00Z</time>
      </trkpt>
      <trkpt lat="45.78268" lon="4.97637">
        <ele>234</ele>
        <time>2015-04-26T10:16:01Z</time>
      </trkpt>
      <trkpt lat="45.78264" lon="4.97641">
        <ele>234</ele>
        <time>2015-04-26T10:16:03Z</time>
      </trkpt>
      <trkpt lat="45.78262" lon="4.97643">
        <ele>233</ele>
        <time>2015-04-26T10:16:04Z</time>
      </trkpt>
      <trkpt lat="45.78258" lon="4.97645">
        <ele>234</ele>
        <time>2015-04-26T10:16:06Z</time>
      </trkpt>
      <trkpt lat="45.78255" lon="4.97647">
        <ele>234</ele>
        <time>2015-04-26T10:16:07Z</time>
      </trkpt>
      <trkpt lat="45.78251" lon="4.9765">
        <ele>234</ele>
        <time>2015-04-26T10:16:09Z</time>
      </trkpt>
      <trkpt lat="45.78248" lon="4.97651">
        <ele>234</ele>
        <time>2015-04-26T10:16:10Z</time>
      </trkpt>
      <trkpt lat="45.78243" lon="4.97654">
        <ele>234</ele>
        <time>2015-04-26T10:16:13Z</time>
      </trkpt>
      <trkpt lat="45.78241" lon="4.97655">
        <ele>234</ele>
        <time>2015-04-26T10:16:14Z</time>
      </trkpt>
      <trkpt lat="45.78237" lon="4.97658">
        <ele>234</ele>
        <time>2015-04-26T10:16:16Z</time>
      </trkpt>
      <trkpt lat="45.78234" lon="4.97659">
        <ele>234</ele>
        <time>2015-04-26T10:16:17Z</time>
      </trkpt>
      <trkpt lat="45.7823" lon="4.97662">
        <ele>234</ele>
        <time>2015-04-26T10:16:19Z</time>
      </trkpt>
      <trkpt lat="45.78228" lon="4.97662">
        <ele>234</ele>
        <time>2015-04-26T10:16:20Z</time>
      </trkpt>
      <trkpt lat="45.78223" lon="4.97663">
        <ele>234</ele>
        <time>2015-04-26T10:16:22Z</time>
      </trkpt>
      <trkpt lat="45.78221" lon="4.97663">
        <ele>234</ele>
        <time>2015-04-26T10:16:23Z</time>
      </trkpt>
      <trkpt lat="45.78216" lon="4.97663">
        <ele>234</ele>
        <time>2015-04-26T10:16:25Z</time>
      </trkpt>
      <trkpt lat="45.78213" lon="4.97663">
        <ele>234</ele>
        <time>2015-04-26T10:16:27Z</time>
      </trkpt>
      <trkpt lat="45.78211" lon="4.97659">
        <ele>234</ele>
        <time>2015-04-26T10:16:29Z</time>
      </trkpt>
      <trkpt lat="45.7821" lon="4.97653">
        <ele>234</ele>
        <time>2015-04-26T10:16:32Z</time>
      </trkpt>
      <trkpt lat="45.78209" lon="4.97648">
        <ele>233</ele>
        <time>2015-04-26T10:16:34Z</time>
      </trkpt>
      <trkpt lat="45.78209" lon="4.97643">
        <ele>234</ele>
        <time>2015-04-26T10:16:36Z</time>
      </trkpt>
      <trkpt lat="45.78208" lon="4.97638">
        <ele>234</ele>
        <time>2015-04-26T10:16:38Z</time>
      </trkpt>
      <trkpt lat="45.78206" lon="4.97633">
        <ele>234</ele>
        <time>2015-04-26T10:16:40Z</time>
      </trkpt>
      <trkpt lat="45.78205" lon="4.97627">
        <ele>235</ele>
        <time>2015-04-26T10:16:42Z</time>
      </trkpt>
      <trkpt lat="45.78204" lon="4.97622">
        <ele>234.5</ele>
        <time>2015-04-26T10:16:43Z</time>
      </trkpt>
      <trkpt lat="45.78201" lon="4.97616">
        <ele>234</ele>
        <time>2015-04-26T10:16:46Z</time>
      </trkpt>
      <trkpt lat="45.78199" lon="4.97613">
        <ele>234</ele>
        <time>2015-04-26T10:16:47Z</time>
      </trkpt>
      <trkpt lat="45.78196" lon="4.97607">
        <ele>234</ele>
        <time>2015-04-26T10:16:50Z</time>
      </trkpt>
      <trkpt lat="45.78195" lon="4.97603">
        <ele>234.5</ele>
        <time>2015-04-26T10:16:51Z</time>
      </trkpt>
      <trkpt lat="45.78194" lon="4.97596">
        <ele>234</ele>
        <time>2015-04-26T10:16:54Z</time>
      </trkpt>
      <trkpt lat="45.78193" lon="4.97591">
        <ele>234</ele>
        <time>2015-04-26T10:16:55Z</time>
      </trkpt>
      <trkpt lat="45.78192" lon="4.97585">
        <ele>234</ele>
        <time>2015-04-26T10:16:58Z</time>
      </trkpt>
      <trkpt lat="45.78191" lon="4.97581">
        <ele>234</ele>
        <time>2015-04-26T10:16:59Z</time>
      </trkpt>
      <trkpt lat="45.78189" lon="4.97574">
        <ele>234</ele>
        <time>2015-04-26T10:17:02Z</time>
      </trkpt>
      <trkpt lat="45.78188" lon="4.9757">
        <ele>234</ele>
        <time>2015-04-26T10:17:03Z</time>
      </trkpt>
      <trkpt lat="45.78187" lon="4.97563">
        <ele>234</ele>
        <time>2015-04-26T10:17:06Z</time>
      </trkpt>
      <trkpt lat="45.78186" lon="4.97558">
        <ele>234</ele>
        <time>2015-04-26T10:17:07Z</time>
      </trkpt>
      <trkpt lat="45.78184" lon="4.97552">
        <ele>234</ele>
        <time>2015-04-26T10:17:10Z</time>
      </trkpt>
      <trkpt lat="45.78182" lon="4.97548">
        <ele>234</ele>
        <time>2015-04-26T10:17:11Z</time>
      </trkpt>
      <trkpt lat="45.7818" lon="4.97541">
        <ele>234</ele>
        <time>2015-04-26T10:17:14Z</time>
      </trkpt>
      <trkpt lat="45.78179" lon="4.97537">
        <ele>234.5</ele>
        <time>2015-04-26T10:17:15Z</time>
      </trkpt>
      <trkpt lat="45.78178" lon="4.9753">
        <ele>235</ele>
        <time>2015-04-26T10:17:18Z</time>
      </trkpt>
      <trkpt lat="45.78178" lon="4.97526">
        <ele>235</ele>
        <time>2015-04-26T10:17:19Z</time>
      </trkpt>
      <trkpt lat="45.78176" lon="4.97519">
        <ele>235</ele>
        <time>2015-04-26T10:17:22Z</time>
      </trkpt>
      <trkpt lat="45.78176" lon="4.97514">
        <ele>235</ele>
        <time>2015-04-26T10:17:23Z</time>
      </trkpt>
      <trkpt lat="45.78175" lon="4.97506">
        <ele>235</ele>
        <time>2015-04-26T10:17:26Z</time>
      </trkpt>
      <trkpt lat="45.78174" lon="4.97503">
        <ele>234</ele>
        <time>2015-04-26T10:17:27Z</time>
      </trkpt>
      <trkpt lat="45.78173" lon="4.97496">
        <ele>234</ele>
        <time>2015-04-26T10:17:29Z</time>
      </trkpt>
      <trkpt lat="45.78173" lon="4.97493">
        <ele>234</ele>
        <time>2015-04-26T10:17:30Z</time>
      </trkpt>
      <trkpt lat="45.78172" lon="4.97486">
        <ele>234</ele>
        <time>2015-04-26T10:17:32Z</time>
      </trkpt>
      <trkpt lat="45.78171" lon="4.97482">
        <ele>235</ele>
        <time>2015-04-26T10:17:33Z</time>
      </trkpt>
      <trkpt lat="45.78169" lon="4.97476">
        <ele>235</ele>
        <time>2015-04-26T10:17:35Z</time>
      </trkpt>
      <trkpt lat="45.78168" lon="4.97473">
        <ele>235</ele>
        <time>2015-04-26T10:17:36Z</time>
      </trkpt>
      <trkpt lat="45.78166" lon="4.97467">
        <ele>235</ele>
        <time>2015-04-26T10:17:38Z</time>
      </trkpt>
      <trkpt lat="45.78165" lon="4.97464">
        <ele>234</ele>
        <time>2015-04-26T10:17:39Z</time>
      </trkpt>
      <trkpt lat="45.78162" lon="4.97458">
        <ele>234</ele>
        <time>2015-04-26T10:17:41Z</time>
      </trkpt>
      <trkpt lat="45.78161" lon="4.97455">
        <ele>234</ele>
        <time>2015-04-26T10:17:42Z</time>
      </trkpt>
      <trkpt lat="45.78159" lon="4.9745">
        <ele>235</ele>
        <time>2015-04-26T10:17:44Z</time>
      </trkpt>
      <trkpt lat="45.78157" lon="4.97447">
        <ele>235</ele>
        <time>2015-04-26T10:17:45Z</time>
      </trkpt>
      <trkpt lat="45.78155" lon="4.97441">
        <ele>235</ele>
        <time>2015-04-26T10:17:47Z</time>
      </trkpt>
      <trkpt lat="45.78154" lon="4.97438">
        <ele>235</ele>
        <time>2015-04-26T10:17:48Z</time>
      </trkpt>
      <trkpt lat="45.78153" lon="4.97432">
        <ele>235</ele>
        <time>2015-04-26T10:17:50Z</time>
      </trkpt>
      <trkpt lat="45.78152" lon="4.97428">
        <ele>234</ele>
        <time>2015-04-26T10:17:51Z</time>
      </trkpt>
      <trkpt lat="45.7815" lon="4.97422">
        <ele>234</ele>
        <time>2015-04-26T10:17:53Z</time>
      </trkpt>
      <trkpt lat="45.78149" lon="4.97419">
        <ele>234</ele>
        <time>2015-04-26T10:17:54Z</time>
      </trkpt>
      <trkpt lat="45.78147" lon="4.97413">
        <ele>234</ele>
        <time>2015-04-26T10:17:56Z</time>
      </trkpt>
      <trkpt lat="45.78146" lon="4.9741">
        <ele>235</ele>
        <time>2015-04-26T10:17:57Z</time>
      </trkpt>
      <trkpt lat="45.78144" lon="4.97404">
        <ele>234</ele>
        <time>2015-04-26T10:17:59Z</time>
      </trkpt>
      <trkpt lat="45.78143" lon="4.974">
        <ele>234</ele>
        <time>2015-04-26T10:18:00Z</time>
      </trkpt>
      <trkpt lat="45.78141" lon="4.97394">
        <ele>234</ele>
        <time>2015-04-26T10:18:02Z</time>
      </trkpt>
      <trkpt lat="45.78141" lon="4.9739">
        <ele>234</ele>
        <time>2015-04-26T10:18:03Z</time>
      </trkpt>
      <trkpt lat="45.78139" lon="4.97384">
        <ele>234</ele>
        <time>2015-04-26T10:18:05Z</time>
      </trkpt>
      <trkpt lat="45.78138" lon="4.97381">
        <ele>234</ele>
        <time>2015-04-26T10:18:06Z</time>
      </trkpt>
      <trkpt lat="45.78136" lon="4.97375">
        <ele>234</ele>
        <time>2015-04-26T10:18:08Z</time>
      </trkpt>
      <trkpt lat="45.78134" lon="4.97372">
        <ele>235</ele>
        <time>2015-04-26T10:18:09Z</time>
      </trkpt>
      <trkpt lat="45.78131" lon="4.97367">
        <ele>235</ele>
        <time>2015-04-26T10:18:11Z</time>
      </trkpt>
      <trkpt lat="45.7813" lon="4.97364">
        <ele>234</ele>
        <time>2015-04-26T10:18:12Z</time>
      </trkpt>
      <trkpt lat="45.78127" lon="4.97358">
        <ele>233</ele>
        <time>2015-04-26T10:18:14Z</time>
      </trkpt>
      <trkpt lat="45.78125" lon="4.97356">
        <ele>233</ele>
        <time>2015-04-26T10:18:15Z</time>
      </trkpt>
      <trkpt lat="45.78122" lon="4.97351">
        <ele>234</ele>
        <time>2015-04-26T10:18:17Z</time>
      </trkpt>
      <trkpt lat="45.7812" lon="4.97349">
        <ele>234</ele>
        <time>2015-04-26T10:18:18Z</time>
      </trkpt>
      <trkpt lat="45.78117" lon="4.97345">
        <ele>234</ele>
        <time>2015-04-26T10:18:20Z</time>
      </trkpt>
      <trkpt lat="45.78116" lon="4.97342">
        <ele>234</ele>
        <time>2015-04-26T10:18:21Z</time>
      </trkpt>
      <trkpt lat="45.78113" lon="4.97337">
        <ele>233</ele>
        <time>2015-04-26T10:18:23Z</time>
      </trkpt>
      <trkpt lat="45.7811" lon="4.97332">
        <ele>234</ele>
        <time>2015-04-26T10:18:25Z</time>
      </trkpt>
      <trkpt lat="45.78107" lon="4.97327">
        <ele>234</ele>
        <time>2015-04-26T10:18:27Z</time>
      </trkpt>
      <trkpt lat="45.78104" lon="4.97323">
        <ele>233</ele>
        <time>2015-04-26T10:18:29Z</time>
      </trkpt>
      <trkpt lat="45.78101" lon="4.97318">
        <ele>233</ele>
        <time>2015-04-26T10:18:31Z</time>
      </trkpt>
      <trkpt lat="45.78099" lon="4.97315">
        <ele>233</ele>
        <time>2015-04-26T10:18:32Z</time>
      </trkpt>
      <trkpt lat="45.78096" lon="4.97307">
        <ele>234</ele>
        <time>2015-04-26T10:18:35Z</time>
      </trkpt>
      <trkpt lat="45.78094" lon="4.97303">
        <ele>233.5</ele>
        <time>2015-04-26T10:18:36Z</time>
      </trkpt>
      <trkpt lat="45.78092" lon="4.97296">
        <ele>234</ele>
        <time>2015-04-26T10:18:39Z</time>
      </trkpt>
      <trkpt lat="45.78091" lon="4.97292">
        <ele>234</ele>
        <time>2015-04-26T10:18:40Z</time>
      </trkpt>
      <trkpt lat="45.78089" lon="4.97285">
        <ele>235</ele>
        <time>2015-04-26T10:18:43Z</time>
      </trkpt>
      <trkpt lat="45.78088" lon="4.97281">
        <ele>235</ele>
        <time>2015-04-26T10:18:44Z</time>
      </trkpt>
      <trkpt lat="45.78086" lon="4.97275">
        <ele>235</ele>
        <time>2015-04-26T10:18:47Z</time>
      </trkpt>
      <trkpt lat="45.78084" lon="4.97271">
        <ele>235</ele>
        <time>2015-04-26T10:18:48Z</time>
      </trkpt>
      <trkpt lat="45.78082" lon="4.97264">
        <ele>235</ele>
        <time>2015-04-26T10:18:51Z</time>
      </trkpt>
      <trkpt lat="45.78081" lon="4.9726">
        <ele>235</ele>
        <time>2015-04-26T10:18:52Z</time>
      </trkpt>
      <trkpt lat="45.78079" lon="4.97253">
        <ele>235</ele>
        <time>2015-04-26T10:18:55Z</time>
      </trkpt>
      <trkpt lat="45.78078" lon="4.97249">
        <ele>235</ele>
        <time>2015-04-26T10:18:56Z</time>
      </trkpt>
      <trkpt lat="45.78075" lon="4.97243">
        <ele>235</ele>
        <time>2015-04-26T10:18:59Z</time>
      </trkpt>
      <trkpt lat="45.78074" lon="4.9724">
        <ele>235</ele>
        <time>2015-04-26T10:19:00Z</time>
      </trkpt>
      <trkpt lat="45.78071" lon="4.97235">
        <ele>235</ele>
        <time>2015-04-26T10:19:02Z</time>
      </trkpt>
      <trkpt lat="45.7807" lon="4.97232">
        <ele>236</ele>
        <time>2015-04-26T10:19:03Z</time>
      </trkpt>
      <trkpt lat="45.78067" lon="4.97226">
        <ele>235</ele>
        <time>2015-04-26T10:19:05Z</time>
      </trkpt>
      <trkpt lat="45.78066" lon="4.97224">
        <ele>236</ele>
        <time>2015-04-26T10:19:06Z</time>
      </trkpt>
      <trkpt lat="45.78063" lon="4.97219">
        <ele>236</ele>
        <time>2015-04-26T10:19:08Z</time>
      </trkpt>
      <trkpt lat="45.78062" lon="4.97214">
        <ele>236</ele>
        <time>2015-04-26T10:19:09Z</time>
      </trkpt>
      <trkpt lat="45.78059" lon="4.97208">
        <ele>235</ele>
        <time>2015-04-26T10:19:12Z</time>
      </trkpt>
      <trkpt lat="45.78057" lon="4.97204">
        <ele>235.5</ele>
        <time>2015-04-26T10:19:13Z</time>
      </trkpt>
      <trkpt lat="45.78055" lon="4.97197">
        <ele>235</ele>
        <time>2015-04-26T10:19:16Z</time>
      </trkpt>
      <trkpt lat="45.78053" lon="4.97194">
        <ele>236</ele>
        <time>2015-04-26T10:19:17Z</time>
      </trkpt>
      <trkpt lat="45.78051" lon="4.97188">
        <ele>235</ele>
        <time>2015-04-26T10:19:19Z</time>
      </trkpt>
      <trkpt lat="45.78048" lon="4.97185">
        <ele>234.5</ele>
        <time>2015-04-26T10:19:20Z</time>
      </trkpt>
      <trkpt lat="45.78044" lon="4.97184">
        <ele>235</ele>
        <time>2015-04-26T10:19:23Z</time>
      </trkpt>
      <trkpt lat="45.78042" lon="4.97185">
        <ele>234</ele>
        <time>2015-04-26T10:19:24Z</time>
      </trkpt>
      <trkpt lat="45.78039" lon="4.9719">
        <ele>234</ele>
        <time>2015-04-26T10:19:27Z</time>
      </trkpt>
      <trkpt lat="45.78036" lon="4.97193">
        <ele>234</ele>
        <time>2015-04-26T10:19:29Z</time>
      </trkpt>
      <trkpt lat="45.78033" lon="4.97197">
        <ele>234</ele>
        <time>2015-04-26T10:19:31Z</time>
      </trkpt>
      <trkpt lat="45.78029" lon="4.972">
        <ele>234</ele>
        <time>2015-04-26T10:19:33Z</time>
      </trkpt>
      <trkpt lat="45.78027" lon="4.97202">
        <ele>234</ele>
        <time>2015-04-26T10:19:34Z</time>
      </trkpt>
      <trkpt lat="45.78024" lon="4.97207">
        <ele>234</ele>
        <time>2015-04-26T10:19:36Z</time>
      </trkpt>
      <trkpt lat="45.78022" lon="4.97209">
        <ele>234</ele>
        <time>2015-04-26T10:19:37Z</time>
      </trkpt>
      <trkpt lat="45.7802" lon="4.97214">
        <ele>234</ele>
        <time>2015-04-26T10:19:39Z</time>
      </trkpt>
      <trkpt lat="45.78017" lon="4.97218">
        <ele>234.5</ele>
        <time>2015-04-26T10:19:40Z</time>
      </trkpt>
      <trkpt lat="45.78013" lon="4.97223">
        <ele>234</ele>
        <time>2015-04-26T10:19:43Z</time>
      </trkpt>
      <trkpt lat="45.7801" lon="4.97225">
        <ele>234</ele>
        <time>2015-04-26T10:19:44Z</time>
      </trkpt>
      <trkpt lat="45.78006" lon="4.97229">
        <ele>235</ele>
        <time>2015-04-26T10:19:47Z</time>
      </trkpt>
      <trkpt lat="45.78004" lon="4.97231">
        <ele>234.5</ele>
        <time>2015-04-26T10:19:48Z</time>
      </trkpt>
      <trkpt lat="45.78" lon="4.97236">
        <ele>235</ele>
        <time>2015-04-26T10:19:51Z</time>
      </trkpt>
      <trkpt lat="45.77998" lon="4.97239">
        <ele>235</ele>
        <time>2015-04-26T10:19:52Z</time>
      </trkpt>
      <trkpt lat="45.77995" lon="4.97243">
        <ele>235</ele>
        <time>2015-04-26T10:19:55Z</time>
      </trkpt>
      <trkpt lat="45.77993" lon="4.97246">
        <ele>235</ele>
        <time>2015-04-26T10:19:56Z</time>
      </trkpt>
      <trkpt lat="45.7799" lon="4.97251">
        <ele>235</ele>
        <time>2015-04-26T10:19:59Z</time>
      </trkpt>
      <trkpt lat="45.77988" lon="4.97254">
        <ele>235.5</ele>
        <time>2015-04-26T10:20:00Z</time>
      </trkpt>
      <trkpt lat="45.77985" lon="4.97258">
        <ele>236</ele>
        <time>2015-04-26T10:20:03Z</time>
      </trkpt>
      <trkpt lat="45.77983" lon="4.97261">
        <ele>236</ele>
        <time>2015-04-26T10:20:04Z</time>
      </trkpt>
      <trkpt lat="45.7798" lon="4.97266">
        <ele>236</ele>
        <time>2015-04-26T10:20:07Z</time>
      </trkpt>
      <trkpt lat="45.77979" lon="4.97269">
        <ele>235</ele>
        <time>2015-04-26T10:20:08Z</time>
      </trkpt>
      <trkpt lat="45.77975" lon="4.97274">
        <ele>235</ele>
        <time>2015-04-26T10:20:11Z</time>
      </trkpt>
      <trkpt lat="45.77973" lon="4.97277">
        <ele>235</ele>
        <time>2015-04-26T10:20:12Z</time>
      </trkpt>
      <trkpt lat="45.77969" lon="4.97282">
        <ele>235</ele>
        <time>2015-04-26T10:20:15Z</time>
      </trkpt>
      <trkpt lat="45.77967" lon="4.97285">
        <ele>235</ele>
        <time>2015-04-26T10:20:16Z</time>
      </trkpt>
      <trkpt lat="45.77963" lon="4.9729">
        <ele>235</ele>
        <time>2015-04-26T10:20:19Z</time>
      </trkpt>
      <trkpt lat="45.77961" lon="4.97292">
        <ele>235</ele>
        <time>2015-04-26T10:20:20Z</time>
      </trkpt>
      <trkpt lat="45.77957" lon="4.97296">
        <ele>235</ele>
        <time>2015-04-26T10:20:22Z</time>
      </trkpt>
      <trkpt lat="45.77955" lon="4.97299">
        <ele>235</ele>
        <time>2015-04-26T10:20:23Z</time>
      </trkpt>
      <trkpt lat="45.77952" lon="4.97303">
        <ele>235</ele>
        <time>2015-04-26T10:20:25Z</time>
      </trkpt>
      <trkpt lat="45.7795" lon="4.97305">
        <ele>235</ele>
        <time>2015-04-26T10:20:26Z</time>
      </trkpt>
      <trkpt lat="45.77946" lon="4.9731">
        <ele>235</ele>
        <time>2015-04-26T10:20:28Z</time>
      </trkpt>
      <trkpt lat="45.77944" lon="4.97312">
        <ele>234</ele>
        <time>2015-04-26T10:20:29Z</time>
      </trkpt>
      <trkpt lat="45.7794" lon="4.97317">
        <ele>235</ele>
        <time>2015-04-26T10:20:31Z</time>
      </trkpt>
      <trkpt lat="45.77939" lon="4.9732">
        <ele>235</ele>
        <time>2015-04-26T10:20:32Z</time>
      </trkpt>
      <trkpt lat="45.77936" lon="4.97325">
        <ele>235</ele>
        <time>2015-04-26T10:20:34Z</time>
      </trkpt>
      <trkpt lat="45.77935" lon="4.97328">
        <ele>234</ele>
        <time>2015-04-26T10:20:35Z</time>
      </trkpt>
      <trkpt lat="45.77932" lon="4.97333">
        <ele>234</ele>
        <time>2015-04-26T10:20:37Z</time>
      </trkpt>
      <trkpt lat="45.7793" lon="4.97339">
        <ele>234</ele>
        <time>2015-04-26T10:20:39Z</time>
      </trkpt>
      <trkpt lat="45.77928" lon="4.97344">
        <ele>234</ele>
        <time>2015-04-26T10:20:41Z</time>
      </trkpt>
      <trkpt lat="45.77926" lon="4.97348">
        <ele>234</ele>
        <time>2015-04-26T10:20:43Z</time>
      </trkpt>
      <trkpt lat="45.77923" lon="4.97353">
        <ele>234</ele>
        <time>2015-04-26T10:20:45Z</time>
      </trkpt>
      <trkpt lat="45.77921" lon="4.97357">
        <ele>234</ele>
        <time>2015-04-26T10:20:47Z</time>
      </trkpt>
      <trkpt lat="45.77919" lon="4.97362">
        <ele>234</ele>
        <time>2015-04-26T10:20:49Z</time>
      </trkpt>
      <trkpt lat="45.77916" lon="4.97367">
        <ele>235</ele>
        <time>2015-04-26T10:20:51Z</time>
      </trkpt>
      <trkpt lat="45.77913" lon="4.97372">
        <ele>234</ele>
        <time>2015-04-26T10:20:53Z</time>
      </trkpt>
      <trkpt lat="45.77911" lon="4.97376">
        <ele>234</ele>
        <time>2015-04-26T10:20:55Z</time>
      </trkpt>
      <trkpt lat="45.77909" lon="4.97382">
        <ele>234</ele>
        <time>2015-04-26T10:20:57Z</time>
      </trkpt>
      <trkpt lat="45.77907" lon="4.97387">
        <ele>235</ele>
        <time>2015-04-26T10:20:59Z</time>
      </trkpt>
      <trkpt lat="45.77907" lon="4.97393">
        <ele>234</ele>
        <time>2015-04-26T10:21:01Z</time>
      </trkpt>
      <trkpt lat="45.7791" lon="4.97398">
        <ele>234</ele>
        <time>2015-04-26T10:21:03Z</time>
      </trkpt>
      <trkpt lat="45.77913" lon="4.97403">
        <ele>235</ele>
        <time>2015-04-26T10:21:05Z</time>
      </trkpt>
      <trkpt lat="45.77916" lon="4.97407">
        <ele>234</ele>
        <time>2015-04-26T10:21:07Z</time>
      </trkpt>
      <trkpt lat="45.77919" lon="4.9741">
        <ele>234</ele>
        <time>2015-04-26T10:21:09Z</time>
      </trkpt>
      <trkpt lat="45.77922" lon="4.97413">
        <ele>234</ele>
        <time>2015-04-26T10:21:11Z</time>
      </trkpt>
      <trkpt lat="45.77924" lon="4.97416">
        <ele>234</ele>
        <time>2015-04-26T10:21:13Z</time>
      </trkpt>
      <trkpt lat="45.77926" lon="4.97419">
        <ele>234</ele>
        <time>2015-04-26T10:21:15Z</time>
      </trkpt>
      <trkpt lat="45.77929" lon="4.97422">
        <ele>234</ele>
        <time>2015-04-26T10:21:17Z</time>
      </trkpt>
      <trkpt lat="45.77931" lon="4.97425">
        <ele>234</ele>
        <time>2015-04-26T10:21:19Z</time>
      </trkpt>
      <trkpt lat="45.77933" lon="4.97428">
        <ele>234</ele>
        <time>2015-04-26T10:21:21Z</time>
      </trkpt>
      <trkpt lat="45.77936" lon="4.97431">
        <ele>234</ele>
        <time>2015-04-26T10:21:23Z</time>
      </trkpt>
      <trkpt lat="45.77938" lon="4.97435">
        <ele>233</ele>
        <time>2015-04-26T10:21:25Z</time>
      </trkpt>
      <trkpt lat="45.7794" lon="4.97438">
        <ele>233</ele>
        <time>2015-04-26T10:21:27Z</time>
      </trkpt>
      <trkpt lat="45.77943" lon="4.97441">
        <ele>233</ele>
        <time>2015-04-26T10:21:29Z</time>
      </trkpt>
      <trkpt lat="45.77946" lon="4.97444">
        <ele>233</ele>
        <time>2015-04-26T10:21:31Z</time>
      </trkpt>
      <trkpt lat="45.77948" lon="4.97448">
        <ele>234</ele>
        <time>2015-04-26T10:21:33Z</time>
      </trkpt>
      <trkpt lat="45.7795" lon="4.97453">
        <ele>234</ele>
        <time>2015-04-26T10:21:35Z</time>
      </trkpt>
      <trkpt lat="45.77953" lon="4.97457">
        <ele>233</ele>
        <time>2015-04-26T10:21:37Z</time>
      </trkpt>
      <trkpt lat="45.77956" lon="4.97463">
        <ele>232</ele>
        <time>2015-04-26T10:21:39Z</time>
      </trkpt>
      <trkpt lat="45.77958" lon="4.97465">
        <ele>232</ele>
        <time>2015-04-26T10:21:40Z</time>
      </trkpt>
      <trkpt lat="45.77961" lon="4.97471">
        <ele>233</ele>
        <time>2015-04-26T10:21:42Z</time>
      </trkpt>
      <trkpt lat="45.77962" lon="4.97473">
        <ele>233</ele>
        <time>2015-04-26T10:21:43Z</time>
      </trkpt>
      <trkpt lat="45.77965" lon="4.97479">
        <ele>232</ele>
        <time>2015-04-26T10:21:45Z</time>
      </trkpt>
      <trkpt lat="45.77967" lon="4.97482">
        <ele>233</ele>
        <time>2015-04-26T10:21:46Z</time>
      </trkpt>
      <trkpt lat="45.7797" lon="4.97488">
        <ele>233</ele>
        <time>2015-04-26T10:21:48Z</time>
      </trkpt>
      <trkpt lat="45.77971" lon="4.97491">
        <ele>233</ele>
        <time>2015-04-26T10:21:49Z</time>
      </trkpt>
      <trkpt lat="45.77975" lon="4.97496">
        <ele>233</ele>
        <time>2015-04-26T10:21:51Z</time>
      </trkpt>
      <trkpt lat="45.77976" lon="4.97498">
        <ele>233</ele>
        <time>2015-04-26T10:21:52Z</time>
      </trkpt>
      <trkpt lat="45.7798" lon="4.97503">
        <ele>233</ele>
        <time>2015-04-26T10:21:54Z</time>
      </trkpt>
      <trkpt lat="45.77981" lon="4.97506">
        <ele>233</ele>
        <time>2015-04-26T10:21:55Z</time>
      </trkpt>
      <trkpt lat="45.77984" lon="4.97511">
        <ele>233</ele>
        <time>2015-04-26T10:21:57Z</time>
      </trkpt>
      <trkpt lat="45.77987" lon="4.97515">
        <ele>233</ele>
        <time>2015-04-26T10:21:59Z</time>
      </trkpt>
      <trkpt lat="45.7799" lon="4.9752">
        <ele>233</ele>
        <time>2015-04-26T10:22:01Z</time>
      </trkpt>
      <trkpt lat="45.77993" lon="4.97524">
        <ele>233</ele>
        <time>2015-04-26T10:22:03Z</time>
      </trkpt>
      <trkpt lat="45.77995" lon="4.97527">
        <ele>233</ele>
        <time>2015-04-26T10:22:05Z</time>
      </trkpt>
      <trkpt lat="45.77999" lon="4.97531">
        <ele>233</ele>
        <time>2015-04-26T10:22:07Z</time>
      </trkpt>
      <trkpt lat="45.78002" lon="4.97535">
        <ele>233</ele>
        <time>2015-04-26T10:22:09Z</time>
      </trkpt>
      <trkpt lat="45.78004" lon="4.97539">
        <ele>232</ele>
        <time>2015-04-26T10:22:11Z</time>
      </trkpt>
      <trkpt lat="45.78007" lon="4.97544">
        <ele>233</ele>
        <time>2015-04-26T10:22:13Z</time>
      </trkpt>
      <trkpt lat="45.7801" lon="4.97548">
        <ele>233</ele>
        <time>2015-04-26T10:22:15Z</time>
      </trkpt>
      <trkpt lat="45.78014" lon="4.97552">
        <ele>232</ele>
        <time>2015-04-26T10:22:17Z</time>
      </trkpt>
      <trkpt lat="45.78017" lon="4.97556">
        <ele>233</ele>
        <time>2015-04-26T10:22:19Z</time>
      </trkpt>
      <trkpt lat="45.7802" lon="4.9756">
        <ele>232</ele>
        <time>2015-04-26T10:22:21Z</time>
      </trkpt>
      <trkpt lat="45.78024" lon="4.97564">
        <ele>232</ele>
        <time>2015-04-26T10:22:23Z</time>
      </trkpt>
      <trkpt lat="45.78026" lon="4.97566">
        <ele>232</ele>
        <time>2015-04-26T10:22:24Z</time>
      </trkpt>
      <trkpt lat="45.78029" lon="4.9757">
        <ele>232</ele>
        <time>2015-04-26T10:22:26Z</time>
      </trkpt>
      <trkpt lat="45.78032" lon="4.97573">
        <ele>232</ele>
        <time>2015-04-26T10:22:27Z</time>
      </trkpt>
      <trkpt lat="45.78036" lon="4.97578">
        <ele>231</ele>
        <time>2015-04-26T10:22:30Z</time>
      </trkpt>
      <trkpt lat="45.78038" lon="4.97581">
        <ele>231.5</ele>
        <time>2015-04-26T10:22:31Z</time>
      </trkpt>
      <trkpt lat="45.78042" lon="4.97586">
        <ele>232</ele>
        <time>2015-04-26T10:22:34Z</time>
      </trkpt>
      <trkpt lat="45.78044" lon="4.97589">
        <ele>231.5</ele>
        <time>2015-04-26T10:22:35Z</time>
      </trkpt>
      <trkpt lat="45.78048" lon="4.97593">
        <ele>231</ele>
        <time>2015-04-26T10:22:38Z</time>
      </trkpt>
      <trkpt lat="45.7805" lon="4.97596">
        <ele>231</ele>
        <time>2015-04-26T10:22:39Z</time>
      </trkpt>
      <trkpt lat="45.78054" lon="4.976">
        <ele>231</ele>
        <time>2015-04-26T10:22:42Z</time>
      </trkpt>
      <trkpt lat="45.78057" lon="4.97602">
        <ele>231</ele>
        <time>2015-04-26T10:22:43Z</time>
      </trkpt>
      <trkpt lat="45.78061" lon="4.97606">
        <ele>231</ele>
        <time>2015-04-26T10:22:46Z</time>
      </trkpt>
      <trkpt lat="45.78064" lon="4.97608">
        <ele>231</ele>
        <time>2015-04-26T10:22:47Z</time>
      </trkpt>
      <trkpt lat="45.78068" lon="4.97612">
        <ele>231</ele>
        <time>2015-04-26T10:22:50Z</time>
      </trkpt>
      <trkpt lat="45.7807" lon="4.97615">
        <ele>231</ele>
        <time>2015-04-26T10:22:51Z</time>
      </trkpt>
      <trkpt lat="45.78074" lon="4.97619">
        <ele>231</ele>
        <time>2015-04-26T10:22:54Z</time>
      </trkpt>
      <trkpt lat="45.78077" lon="4.97621">
        <ele>231</ele>
        <time>2015-04-26T10:22:55Z</time>
      </trkpt>
      <trkpt lat="45.78081" lon="4.97624">
        <ele>231</ele>
        <time>2015-04-26T10:22:58Z</time>
      </trkpt>
      <trkpt lat="45.78083" lon="4.97627">
        <ele>230</ele>
        <time>2015-04-26T10:22:59Z</time>
      </trkpt>
      <trkpt lat="45.78087" lon="4.9763">
        <ele>231</ele>
        <time>2015-04-26T10:23:02Z</time>
      </trkpt>
      <trkpt lat="45.78089" lon="4.97633">
        <ele>231.5</ele>
        <time>2015-04-26T10:23:03Z</time>
      </trkpt>
      <trkpt lat="45.78092" lon="4.97638">
        <ele>231</ele>
        <time>2015-04-26T10:23:06Z</time>
      </trkpt>
      <trkpt lat="45.78095" lon="4.97641">
        <ele>231</ele>
        <time>2015-04-26T10:23:07Z</time>
      </trkpt>
      <trkpt lat="45.78099" lon="4.97645">
        <ele>231</ele>
        <time>2015-04-26T10:23:10Z</time>
      </trkpt>
      <trkpt lat="45.78101" lon="4.97648">
        <ele>231</ele>
        <time>2015-04-26T10:23:11Z</time>
      </trkpt>
      <trkpt lat="45.78105" lon="4.97654">
        <ele>231</ele>
        <time>2015-04-26T10:23:14Z</time>
      </trkpt>
      <trkpt lat="45.78108" lon="4.97657">
        <ele>231.5</ele>
        <time>2015-04-26T10:23:15Z</time>
      </trkpt>
      <trkpt lat="45.78112" lon="4.97662">
        <ele>232</ele>
        <time>2015-04-26T10:23:18Z</time>
      </trkpt>
      <trkpt lat="45.78114" lon="4.97666">
        <ele>232.5</ele>
        <time>2015-04-26T10:23:19Z</time>
      </trkpt>
      <trkpt lat="45.78118" lon="4.97671">
        <ele>233</ele>
        <time>2015-04-26T10:23:22Z</time>
      </trkpt>
      <trkpt lat="45.78121" lon="4.97674">
        <ele>233.5</ele>
        <time>2015-04-26T10:23:23Z</time>
      </trkpt>
      <trkpt lat="45.78125" lon="4.97679">
        <ele>234</ele>
        <time>2015-04-26T10:23:26Z</time>
      </trkpt>
      <trkpt lat="45.78127" lon="4.97681">
        <ele>234</ele>
        <time>2015-04-26T10:23:27Z</time>
      </trkpt>
      <trkpt lat="45.7813" lon="4.97686">
        <ele>233</ele>
        <time>2015-04-26T10:23:29Z</time>
      </trkpt>
      <trkpt lat="45.78132" lon="4.97688">
        <ele>234</ele>
        <time>2015-04-26T10:23:30Z</time>
      </trkpt>
      <trkpt lat="45.78136" lon="4.97693">
        <ele>234</ele>
        <time>2015-04-26T10:23:32Z</time>
      </trkpt>
      <trkpt lat="45.78139" lon="4.97695">
        <ele>233</ele>
        <time>2015-04-26T10:23:33Z</time>
      </trkpt>
      <trkpt lat="45.78143" lon="4.977">
        <ele>233</ele>
        <time>2015-04-26T10:23:36Z</time>
      </trkpt>
      <trkpt lat="45.78146" lon="4.97702">
        <ele>233.5</ele>
        <time>2015-04-26T10:23:37Z</time>
      </trkpt>
      <trkpt lat="45.78151" lon="4.97706">
        <ele>233</ele>
        <time>2015-04-26T10:23:40Z</time>
      </trkpt>
      <trkpt lat="45.78153" lon="4.97708">
        <ele>233</ele>
        <time>2015-04-26T10:23:41Z</time>
      </trkpt>
      <trkpt lat="45.78157" lon="4.97712">
        <ele>234</ele>
        <time>2015-04-26T10:23:43Z</time>
      </trkpt>
      <trkpt lat="45.78158" lon="4.97714">
        <ele>234</ele>
        <time>2015-04-26T10:23:44Z</time>
      </trkpt>
      <trkpt lat="45.78162" lon="4.97719">
        <ele>234</ele>
        <time>2015-04-26T10:23:46Z</time>
      </trkpt>
      <trkpt lat="45.78164" lon="4.9772">
        <ele>235</ele>
        <time>2015-04-26T10:23:47Z</time>
      </trkpt>
      <trkpt lat="45.78167" lon="4.97725">
        <ele>235</ele>
        <time>2015-04-26T10:23:49Z</time>
      </trkpt>
      <trkpt lat="45.7817" lon="4.97727">
        <ele>235</ele>
        <time>2015-04-26T10:23:50Z</time>
      </trkpt>
      <trkpt lat="45.78174" lon="4.97732">
        <ele>235</ele>
        <time>2015-04-26T10:23:53Z</time>
      </trkpt>
      <trkpt lat="45.78177" lon="4.97735">
        <ele>235</ele>
        <time>2015-04-26T10:23:54Z</time>
      </trkpt>
      <trkpt lat="45.78181" lon="4.9774">
        <ele>235</ele>
        <time>2015-04-26T10:23:57Z</time>
      </trkpt>
      <trkpt lat="45.78183" lon="4.97742">
        <ele>235</ele>
        <time>2015-04-26T10:23:58Z</time>
      </trkpt>
      <trkpt lat="45.78187" lon="4.97747">
        <ele>235</ele>
        <time>2015-04-26T10:24:01Z</time>
      </trkpt>
      <trkpt lat="45.7819" lon="4.9775">
        <ele>235</ele>
        <time>2015-04-26T10:24:02Z</time>
      </trkpt>
      <trkpt lat="45.78194" lon="4.97755">
        <ele>235</ele>
        <time>2015-04-26T10:24:05Z</time>
      </trkpt>
      <trkpt lat="45.78196" lon="4.97757">
        <ele>235</ele>
        <time>2015-04-26T10:24:06Z</time>
      </trkpt>
      <trkpt lat="45.782" lon="4.97763">
        <ele>235</ele>
        <time>2015-04-26T10:24:08Z</time>
      </trkpt>
      <trkpt lat="45.78202" lon="4.97766">
        <ele>235</ele>
        <time>2015-04-26T10:24:09Z</time>
      </trkpt>
      <trkpt lat="45.78206" lon="4.9777">
        <ele>235</ele>
        <time>2015-04-26T10:24:11Z</time>
      </trkpt>
      <trkpt lat="45.78208" lon="4.97772">
        <ele>235</ele>
        <time>2015-04-26T10:24:12Z</time>
      </trkpt>
      <trkpt lat="45.78213" lon="4.97777">
        <ele>234</ele>
        <time>2015-04-26T10:24:14Z</time>
      </trkpt>
      <trkpt lat="45.78215" lon="4.9778">
        <ele>234</ele>
        <time>2015-04-26T10:24:15Z</time>
      </trkpt>
      <trkpt lat="45.7822" lon="4.97787">
        <ele>235</ele>
        <time>2015-04-26T10:24:17Z</time>
      </trkpt>
      <trkpt lat="45.78223" lon="4.9779">
        <ele>235</ele>
        <time>2015-04-26T10:24:18Z</time>
      </trkpt>
      <trkpt lat="45.78228" lon="4.97796">
        <ele>235</ele>
        <time>2015-04-26T10:24:20Z</time>
      </trkpt>
      <trkpt lat="45.78231" lon="4.978">
        <ele>234</ele>
        <time>2015-04-26T10:24:21Z</time>
      </trkpt>
      <trkpt lat="45.78237" lon="4.97806">
        <ele>235</ele>
        <time>2015-04-26T10:24:23Z</time>
      </trkpt>
      <trkpt lat="45.7824" lon="4.9781">
        <ele>234</ele>
        <time>2015-04-26T10:24:24Z</time>
      </trkpt>
      <trkpt lat="45.78245" lon="4.97816">
        <ele>234</ele>
        <time>2015-04-26T10:24:26Z</time>
      </trkpt>
      <trkpt lat="45.78248" lon="4.97819">
        <ele>234</ele>
        <time>2015-04-26T10:24:27Z</time>
      </trkpt>
      <trkpt lat="45.78252" lon="4.97824">
        <ele>234</ele>
        <time>2015-04-26T10:24:29Z</time>
      </trkpt>
      <trkpt lat="45.78254" lon="4.97827">
        <ele>234</ele>
        <time>2015-04-26T10:24:30Z</time>
      </trkpt>
      <trkpt lat="45.78259" lon="4.97832">
        <ele>234</ele>
        <time>2015-04-26T10:24:32Z</time>
      </trkpt>
      <trkpt lat="45.78261" lon="4.97834">
        <ele>234</ele>
        <time>2015-04-26T10:24:33Z</time>
      </trkpt>
      <trkpt lat="45.78265" lon="4.97839">
        <ele>234</ele>
        <time>2015-04-26T10:24:35Z</time>
      </trkpt>
      <trkpt lat="45.78267" lon="4.97841">
        <ele>234</ele>
        <time>2015-04-26T10:24:36Z</time>
      </trkpt>
      <trkpt lat="45.78271" lon="4.97846">
        <ele>233</ele>
        <time>2015-04-26T10:24:38Z</time>
      </trkpt>
      <trkpt lat="45.78273" lon="4.97848">
        <ele>234</ele>
        <time>2015-04-26T10:24:39Z</time>
      </trkpt>
      <trkpt lat="45.78277" lon="4.97851">
        <ele>234</ele>
        <time>2015-04-26T10:24:41Z</time>
      </trkpt>
      <trkpt lat="45.7828" lon="4.97855">
        <ele>234</ele>
        <time>2015-04-26T10:24:43Z</time>
      </trkpt>
      <trkpt lat="45.78284" lon="4.97859">
        <ele>233</ele>
        <time>2015-04-26T10:24:45Z</time>
      </trkpt>
      <trkpt lat="45.78287" lon="4.97863">
        <ele>234</ele>
        <time>2015-04-26T10:24:47Z</time>
      </trkpt>
      <trkpt lat="45.78291" lon="4.97866">
        <ele>234</ele>
        <time>2015-04-26T10:24:49Z</time>
      </trkpt>
      <trkpt lat="45.78294" lon="4.9787">
        <ele>234</ele>
        <time>2015-04-26T10:24:51Z</time>
      </trkpt>
      <trkpt lat="45.78297" lon="4.97874">
        <ele>234</ele>
        <time>2015-04-26T10:24:53Z</time>
      </trkpt>
      <trkpt lat="45.783" lon="4.97878">
        <ele>233</ele>
        <time>2015-04-26T10:24:55Z</time>
      </trkpt>
      <trkpt lat="45.78303" lon="4.97882">
        <ele>234</ele>
        <time>2015-04-26T10:24:57Z</time>
      </trkpt>
      <trkpt lat="45.78306" lon="4.97886">
        <ele>234</ele>
        <time>2015-04-26T10:24:59Z</time>
      </trkpt>
      <trkpt lat="45.78309" lon="4.9789">
        <ele>234</ele>
        <time>2015-04-26T10:25:01Z</time>
      </trkpt>
      <trkpt lat="45.78312" lon="4.97894">
        <ele>233</ele>
        <time>2015-04-26T10:25:03Z</time>
      </trkpt>
      <trkpt lat="45.78315" lon="4.97898">
        <ele>233</ele>
        <time>2015-04-26T10:25:05Z</time>
      </trkpt>
      <trkpt lat="45.78318" lon="4.97901">
        <ele>234</ele>
        <time>2015-04-26T10:25:07Z</time>
      </trkpt>
      <trkpt lat="45.78321" lon="4.97905">
        <ele>234</ele>
        <time>2015-04-26T10:25:09Z</time>
      </trkpt>
      <trkpt lat="45.78324" lon="4.97908">
        <ele>233</ele>
        <time>2015-04-26T10:25:11Z</time>
      </trkpt>
      <trkpt lat="45.78327" lon="4.97912">
        <ele>232</ele>
        <time>2015-04-26T10:25:13Z</time>
      </trkpt>
      <trkpt lat="45.7833" lon="4.97916">
        <ele>232</ele>
        <time>2015-04-26T10:25:15Z</time>
      </trkpt>
      <trkpt lat="45.78333" lon="4.97919">
        <ele>232</ele>
        <time>2015-04-26T10:25:17Z</time>
      </trkpt>
      <trkpt lat="45.78336" lon="4.97923">
        <ele>232</ele>
        <time>2015-04-26T10:25:19Z</time>
      </trkpt>
      <trkpt lat="45.7834" lon="4.97927">
        <ele>232</ele>
        <time>2015-04-26T10:25:21Z</time>
      </trkpt>
      <trkpt lat="45.78343" lon="4.97932">
        <ele>232</ele>
        <time>2015-04-26T10:25:23Z</time>
      </trkpt>
      <trkpt lat="45.78345" lon="4.97934">
        <ele>232</ele>
        <time>2015-04-26T10:25:24Z</time>
      </trkpt>
      <trkpt lat="45.78348" lon="4.97938">
        <ele>232</ele>
        <time>2015-04-26T10:25:26Z</time>
      </trkpt>
      <trkpt lat="45.7835" lon="4.97941">
        <ele>233</ele>
        <time>2015-04-26T10:25:27Z</time>
      </trkpt>
      <trkpt lat="45.78354" lon="4.97945">
        <ele>233</ele>
        <time>2015-04-26T10:25:29Z</time>
      </trkpt>
      <trkpt lat="45.78356" lon="4.97947">
        <ele>233</ele>
        <time>2015-04-26T10:25:30Z</time>
      </trkpt>
      <trkpt lat="45.7836" lon="4.97951">
        <ele>233</ele>
        <time>2015-04-26T10:25:32Z</time>
      </trkpt>
      <trkpt lat="45.78362" lon="4.97953">
        <ele>234</ele>
        <time>2015-04-26T10:25:33Z</time>
      </trkpt>
      <trkpt lat="45.78366" lon="4.97958">
        <ele>234</ele>
        <time>2015-04-26T10:25:35Z</time>
      </trkpt>
      <trkpt lat="45.78367" lon="4.9796">
        <ele>234</ele>
        <time>2015-04-26T10:25:36Z</time>
      </trkpt>
      <trkpt lat="45.78371" lon="4.97964">
        <ele>234</ele>
        <time>2015-04-26T10:25:38Z</time>
      </trkpt>
      <trkpt lat="45.78373" lon="4.97966">
        <ele>234</ele>
        <time>2015-04-26T10:25:39Z</time>
      </trkpt>
      <trkpt lat="45.78377" lon="4.97971">
        <ele>234</ele>
        <time>2015-04-26T10:25:41Z</time>
      </trkpt>
      <trkpt lat="45.78379" lon="4.97973">
        <ele>234</ele>
        <time>2015-04-26T10:25:42Z</time>
      </trkpt>
      <trkpt lat="45.78383" lon="4.97977">
        <ele>234</ele>
        <time>2015-04-26T10:25:44Z</time>
      </trkpt>
      <trkpt lat="45.78385" lon="4.97978">
        <ele>234</ele>
        <time>2015-04-26T10:25:45Z</time>
      </trkpt>
      <trkpt lat="45.78389" lon="4.97981">
        <ele>234</ele>
        <time>2015-04-26T10:25:47Z</time>
      </trkpt>
      <trkpt lat="45.78392" lon="4.97982">
        <ele>234</ele>
        <time>2015-04-26T10:25:48Z</time>
      </trkpt>
      <trkpt lat="45.78396" lon="4.97985">
        <ele>234</ele>
        <time>2015-04-26T10:25:50Z</time>
      </trkpt>
      <trkpt lat="45.78398" lon="4.97986">
        <ele>234</ele>
        <time>2015-04-26T10:25:51Z</time>
      </trkpt>
      <trkpt lat="45.78402" lon="4.9799">
        <ele>234</ele>
        <time>2015-04-26T10:25:53Z</time>
      </trkpt>
      <trkpt lat="45.78404" lon="4.97992">
        <ele>234</ele>
        <time>2015-04-26T10:25:54Z</time>
      </trkpt>
      <trkpt lat="45.78408" lon="4.97995">
        <ele>235</ele>
        <time>2015-04-26T10:25:56Z</time>
      </trkpt>
      <trkpt lat="45.7841" lon="4.97998">
        <ele>233</ele>
        <time>2015-04-26T10:25:57Z</time>
      </trkpt>
      <trkpt lat="45.78414" lon="4.98001">
        <ele>233</ele>
        <time>2015-04-26T10:25:59Z</time>
      </trkpt>
      <trkpt lat="45.78416" lon="4.98003">
        <ele>234</ele>
        <time>2015-04-26T10:26:00Z</time>
      </trkpt>
      <trkpt lat="45.7842" lon="4.98006">
        <ele>234</ele>
        <time>2015-04-26T10:26:02Z</time>
      </trkpt>
      <trkpt lat="45.78423" lon="4.98009">
        <ele>234</ele>
        <time>2015-04-26T10:26:03Z</time>
      </trkpt>
      <trkpt lat="45.78427" lon="4.98013">
        <ele>233</ele>
        <time>2015-04-26T10:26:06Z</time>
      </trkpt>
      <trkpt lat="45.7843" lon="4.98015">
        <ele>233</ele>
        <time>2015-04-26T10:26:07Z</time>
      </trkpt>
      <trkpt lat="45.78434" lon="4.98019">
        <ele>233</ele>
        <time>2015-04-26T10:26:10Z</time>
      </trkpt>
      <trkpt lat="45.78436" lon="4.98022">
        <ele>233</ele>
        <time>2015-04-26T10:26:11Z</time>
      </trkpt>
      <trkpt lat="45.7844" lon="4.98026">
        <ele>235</ele>
        <time>2015-04-26T10:26:14Z</time>
      </trkpt>
      <trkpt lat="45.78442" lon="4.98029">
        <ele>234.5</ele>
        <time>2015-04-26T10:26:15Z</time>
      </trkpt>
      <trkpt lat="45.78445" lon="4.98033">
        <ele>234</ele>
        <time>2015-04-26T10:26:18Z</time>
      </trkpt>
      <trkpt lat="45.78448" lon="4.98036">
        <ele>234</ele>
        <time>2015-04-26T10:26:20Z</time>
      </trkpt>
      <trkpt lat="45.7845" lon="4.98039">
        <ele>234</ele>
        <time>2015-04-26T10:26:22Z</time>
      </trkpt>
      <trkpt lat="45.78453" lon="4.98042">
        <ele>234</ele>
        <time>2015-04-26T10:26:24Z</time>
      </trkpt>
      <trkpt lat="45.78457" lon="4.98047">
        <ele>234</ele>
        <time>2015-04-26T10:26:26Z</time>
      </trkpt>
      <trkpt lat="45.78459" lon="4.9805">
        <ele>234</ele>
        <time>2015-04-26T10:26:27Z</time>
      </trkpt>
      <trkpt lat="45.78463" lon="4.98055">
        <ele>234</ele>
        <time>2015-04-26T10:26:29Z</time>
      </trkpt>
      <trkpt lat="45.78465" lon="4.98058">
        <ele>233</ele>
        <time>2015-04-26T10:26:30Z</time>
      </trkpt>
      <trkpt lat="45.78469" lon="4.98063">
        <ele>234</ele>
        <time>2015-04-26T10:26:32Z</time>
      </trkpt>
      <trkpt lat="45.78471" lon="4.98066">
        <ele>234</ele>
        <time>2015-04-26T10:26:33Z</time>
      </trkpt>
      <trkpt lat="45.78474" lon="4.9807">
        <ele>235</ele>
        <time>2015-04-26T10:26:35Z</time>
      </trkpt>
      <trkpt lat="45.78476" lon="4.98073">
        <ele>235</ele>
        <time>2015-04-26T10:26:36Z</time>
      </trkpt>
      <trkpt lat="45.7848" lon="4.98077">
        <ele>235</ele>
        <time>2015-04-26T10:26:38Z</time>
      </trkpt>
      <trkpt lat="45.78482" lon="4.9808">
        <ele>234</ele>
        <time>2015-04-26T10:26:39Z</time>
      </trkpt>
      <trkpt lat="45.78486" lon="4.98085">
        <ele>234</ele>
        <time>2015-04-26T10:26:41Z</time>
      </trkpt>
      <trkpt lat="45.78488" lon="4.98088">
        <ele>234</ele>
        <time>2015-04-26T10:26:42Z</time>
      </trkpt>
      <trkpt lat="45.78493" lon="4.98093">
        <ele>234</ele>
        <time>2015-04-26T10:26:44Z</time>
      </trkpt>
      <trkpt lat="45.78495" lon="4.98096">
        <ele>234</ele>
        <time>2015-04-26T10:26:45Z</time>
      </trkpt>
      <trkpt lat="45.785" lon="4.98102">
        <ele>234</ele>
        <time>2015-04-26T10:26:47Z</time>
      </trkpt>
      <trkpt lat="45.78502" lon="4.98105">
        <ele>234</ele>
        <time>2015-04-26T10:26:48Z</time>
      </trkpt>
      <trkpt lat="45.78507" lon="4.98111">
        <ele>234</ele>
        <time>2015-04-26T10:26:50Z</time>
      </trkpt>
      <trkpt lat="45.7851" lon="4.98114">
        <ele>234</ele>
        <time>2015-04-26T10:26:51Z</time>
      </trkpt>
      <trkpt lat="45.78514" lon="4.98119">
        <ele>235</ele>
        <time>2015-04-26T10:26:53Z</time>
      </trkpt>
      <trkpt lat="45.78516" lon="4.98121">
        <ele>235</ele>
        <time>2015-04-26T10:26:54Z</time>
      </trkpt>
      <trkpt lat="45.78521" lon="4.98126">
        <ele>235</ele>
        <time>2015-04-26T10:26:56Z</time>
      </trkpt>
      <trkpt lat="45.78523" lon="4.98128">
        <ele>235</ele>
        <time>2015-04-26T10:26:57Z</time>
      </trkpt>
      <trkpt lat="45.78527" lon="4.98133">
        <ele>236</ele>
        <time>2015-04-26T10:26:59Z</time>
      </trkpt>
      <trkpt lat="45.78529" lon="4.98135">
        <ele>236</ele>
        <time>2015-04-26T10:27:00Z</time>
      </trkpt>
      <trkpt lat="45.78534" lon="4.9814">
        <ele>237</ele>
        <time>2015-04-26T10:27:02Z</time>
      </trkpt>
      <trkpt lat="45.78536" lon="4.98142">
        <ele>237</ele>
        <time>2015-04-26T10:27:03Z</time>
      </trkpt>
      <trkpt lat="45.7854" lon="4.98147">
        <ele>237</ele>
        <time>2015-04-26T10:27:05Z</time>
      </trkpt>
      <trkpt lat="45.78542" lon="4.9815">
        <ele>236</ele>
        <time>2015-04-26T10:27:06Z</time>
      </trkpt>
      <trkpt lat="45.78547" lon="4.98155">
        <ele>238</ele>
        <time>2015-04-26T10:27:08Z</time>
      </trkpt>
      <trkpt lat="45.78549" lon="4.98157">
        <ele>237</ele>
        <time>2015-04-26T10:27:09Z</time>
      </trkpt>
      <trkpt lat="45.78553" lon="4.98162">
        <ele>237</ele>
        <time>2015-04-26T10:27:11Z</time>
      </trkpt>
      <trkpt lat="45.78555" lon="4.98165">
        <ele>237</ele>
        <time>2015-04-26T10:27:12Z</time>
      </trkpt>
      <trkpt lat="45.78559" lon="4.9817">
        <ele>236</ele>
        <time>2015-04-26T10:27:14Z</time>
      </trkpt>
      <trkpt lat="45.78561" lon="4.98173">
        <ele>236</ele>
        <time>2015-04-26T10:27:15Z</time>
      </trkpt>
      <trkpt lat="45.78566" lon="4.98178">
        <ele>235</ele>
        <time>2015-04-26T10:27:17Z</time>
      </trkpt>
      <trkpt lat="45.78568" lon="4.9818">
        <ele>235</ele>
        <time>2015-04-26T10:27:18Z</time>
      </trkpt>
      <trkpt lat="45.78573" lon="4.98184">
        <ele>234</ele>
        <time>2015-04-26T10:27:20Z</time>
      </trkpt>
      <trkpt lat="45.78575" lon="4.98187">
        <ele>234</ele>
        <time>2015-04-26T10:27:21Z</time>
      </trkpt>
      <trkpt lat="45.78579" lon="4.98191">
        <ele>234</ele>
        <time>2015-04-26T10:27:23Z</time>
      </trkpt>
      <trkpt lat="45.78581" lon="4.98194">
        <ele>232</ele>
        <time>2015-04-26T10:27:24Z</time>
      </trkpt>
      <trkpt lat="45.78586" lon="4.98197">
        <ele>232</ele>
        <time>2015-04-26T10:27:26Z</time>
      </trkpt>
      <trkpt lat="45.78588" lon="4.982">
        <ele>231</ele>
        <time>2015-04-26T10:27:27Z</time>
      </trkpt>
      <trkpt lat="45.78592" lon="4.98204">
        <ele>231</ele>
        <time>2015-04-26T10:27:29Z</time>
      </trkpt>
      <trkpt lat="45.78594" lon="4.98206">
        <ele>231</ele>
        <time>2015-04-26T10:27:30Z</time>
      </trkpt>
      <trkpt lat="45.78598" lon="4.98211">
        <ele>232</ele>
        <time>2015-04-26T10:27:32Z</time>
      </trkpt>
      <trkpt lat="45.786" lon="4.98213">
        <ele>232</ele>
        <time>2015-04-26T10:27:33Z</time>
      </trkpt>
      <trkpt lat="45.78604" lon="4.98216">
        <ele>232</ele>
        <time>2015-04-26T10:27:35Z</time>
      </trkpt>
      <trkpt lat="45.78608" lon="4.98219">
        <ele>231</ele>
        <time>2015-04-26T10:27:37Z</time>
      </trkpt>
      <trkpt lat="45.7861" lon="4.98221">
        <ele>231</ele>
        <time>2015-04-26T10:27:38Z</time>
      </trkpt>
      <trkpt lat="45.78614" lon="4.98226">
        <ele>231</ele>
        <time>2015-04-26T10:27:40Z</time>
      </trkpt>
      <trkpt lat="45.78616" lon="4.98228">
        <ele>230</ele>
        <time>2015-04-26T10:27:41Z</time>
      </trkpt>
      <trkpt lat="45.78619" lon="4.98232">
        <ele>232</ele>
        <time>2015-04-26T10:27:43Z</time>
      </trkpt>
      <trkpt lat="45.78621" lon="4.98235">
        <ele>232</ele>
        <time>2015-04-26T10:27:44Z</time>
      </trkpt>
      <trkpt lat="45.78625" lon="4.98239">
        <ele>232</ele>
        <time>2015-04-26T10:27:46Z</time>
      </trkpt>
      <trkpt lat="45.78627" lon="4.98242">
        <ele>232</ele>
        <time>2015-04-26T10:27:47Z</time>
      </trkpt>
      <trkpt lat="45.78631" lon="4.98247">
        <ele>230</ele>
        <time>2015-04-26T10:27:49Z</time>
      </trkpt>
      <trkpt lat="45.78633" lon="4.98249">
        <ele>231</ele>
        <time>2015-04-26T10:27:50Z</time>
      </trkpt>
      <trkpt lat="45.78637" lon="4.98254">
        <ele>232</ele>
        <time>2015-04-26T10:27:52Z</time>
      </trkpt>
      <trkpt lat="45.78639" lon="4.98257">
        <ele>232</ele>
        <time>2015-04-26T10:27:53Z</time>
      </trkpt>
      <trkpt lat="45.78642" lon="4.98262">
        <ele>232</ele>
        <time>2015-04-26T10:27:55Z</time>
      </trkpt>
      <trkpt lat="45.78644" lon="4.98264">
        <ele>231</ele>
        <time>2015-04-26T10:27:56Z</time>
      </trkpt>
      <trkpt lat="45.78648" lon="4.98269">
        <ele>230</ele>
        <time>2015-04-26T10:27:58Z</time>
      </trkpt>
      <trkpt lat="45.7865" lon="4.98271">
        <ele>230</ele>
        <time>2015-04-26T10:27:59Z</time>
      </trkpt>
      <trkpt lat="45.78654" lon="4.98276">
        <ele>231</ele>
        <time>2015-04-26T10:28:01Z</time>
      </trkpt>
      <trkpt lat="45.78656" lon="4.98278">
        <ele>231</ele>
        <time>2015-04-26T10:28:02Z</time>
      </trkpt>
      <trkpt lat="45.78659" lon="4.98282">
        <ele>231</ele>
        <time>2015-04-26T10:28:04Z</time>
      </trkpt>
      <trkpt lat="45.78661" lon="4.98285">
        <ele>232</ele>
        <time>2015-04-26T10:28:05Z</time>
      </trkpt>
      <trkpt lat="45.78665" lon="4.98289">
        <ele>231</ele>
        <time>2015-04-26T10:28:07Z</time>
      </trkpt>
      <trkpt lat="45.78667" lon="4.98291">
        <ele>231</ele>
        <time>2015-04-26T10:28:08Z</time>
      </trkpt>
      <trkpt lat="45.78671" lon="4.98296">
        <ele>232</ele>
        <time>2015-04-26T10:28:10Z</time>
      </trkpt>
      <trkpt lat="45.78672" lon="4.98298">
        <ele>232</ele>
        <time>2015-04-26T10:28:11Z</time>
      </trkpt>
      <trkpt lat="45.78676" lon="4.98302">
        <ele>232</ele>
        <time>2015-04-26T10:28:13Z</time>
      </trkpt>
      <trkpt lat="45.78678" lon="4.98304">
        <ele>233</ele>
        <time>2015-04-26T10:28:14Z</time>
      </trkpt>
      <trkpt lat="45.78682" lon="4.98308">
        <ele>234</ele>
        <time>2015-04-26T10:28:16Z</time>
      </trkpt>
      <trkpt lat="45.78683" lon="4.9831">
        <ele>234</ele>
        <time>2015-04-26T10:28:17Z</time>
      </trkpt>
      <trkpt lat="45.78687" lon="4.98314">
        <ele>234</ele>
        <time>2015-04-26T10:28:19Z</time>
      </trkpt>
      <trkpt lat="45.78689" lon="4.98316">
        <ele>234</ele>
        <time>2015-04-26T10:28:20Z</time>
      </trkpt>
      <trkpt lat="45.78692" lon="4.98321">
        <ele>234</ele>
        <time>2015-04-26T10:28:22Z</time>
      </trkpt>
      <trkpt lat="45.78695" lon="4.98324">
        <ele>235.5</ele>
        <time>2015-04-26T10:28:23Z</time>
      </trkpt>
      <trkpt lat="45.78699" lon="4.98329">
        <ele>237</ele>
        <time>2015-04-26T10:28:26Z</time>
      </trkpt>
      <trkpt lat="45.78701" lon="4.98331">
        <ele>237</ele>
        <time>2015-04-26T10:28:27Z</time>
      </trkpt>
      <trkpt lat="45.78706" lon="4.98336">
        <ele>238</ele>
        <time>2015-04-26T10:28:30Z</time>
      </trkpt>
      <trkpt lat="45.78708" lon="4.98339">
        <ele>238</ele>
        <time>2015-04-26T10:28:31Z</time>
      </trkpt>
      <trkpt lat="45.78713" lon="4.98343">
        <ele>237</ele>
        <time>2015-04-26T10:28:34Z</time>
      </trkpt>
      <trkpt lat="45.78715" lon="4.98345">
        <ele>237</ele>
        <time>2015-04-26T10:28:35Z</time>
      </trkpt>
      <trkpt lat="45.78719" lon="4.9835">
        <ele>238</ele>
        <time>2015-04-26T10:28:38Z</time>
      </trkpt>
      <trkpt lat="45.78722" lon="4.98352">
        <ele>238.5</ele>
        <time>2015-04-26T10:28:39Z</time>
      </trkpt>
      <trkpt lat="45.78726" lon="4.98357">
        <ele>239</ele>
        <time>2015-04-26T10:28:42Z</time>
      </trkpt>
      <trkpt lat="45.78728" lon="4.9836">
        <ele>239</ele>
        <time>2015-04-26T10:28:43Z</time>
      </trkpt>
      <trkpt lat="45.78732" lon="4.98364">
        <ele>239</ele>
        <time>2015-04-26T10:28:45Z</time>
      </trkpt>
      <trkpt lat="45.78733" lon="4.98366">
        <ele>239</ele>
        <time>2015-04-26T10:28:46Z</time>
      </trkpt>
      <trkpt lat="45.78737" lon="4.9837">
        <ele>240</ele>
        <time>2015-04-26T10:28:48Z</time>
      </trkpt>
      <trkpt lat="45.78739" lon="4.98372">
        <ele>240</ele>
        <time>2015-04-26T10:28:49Z</time>
      </trkpt>
      <trkpt lat="45.78743" lon="4.98376">
        <ele>240</ele>
        <time>2015-04-26T10:28:51Z</time>
      </trkpt>
      <trkpt lat="45.78744" lon="4.98378">
        <ele>239</ele>
        <time>2015-04-26T10:28:52Z</time>
      </trkpt>
      <trkpt lat="45.78748" lon="4.98383">
        <ele>239</ele>
        <time>2015-04-26T10:28:54Z</time>
      </trkpt>
      <trkpt lat="45.78751" lon="4.98386">
        <ele>239</ele>
        <time>2015-04-26T10:28:55Z</time>
      </trkpt>
      <trkpt lat="45.78755" lon="4.98391">
        <ele>236</ele>
        <time>2015-04-26T10:28:58Z</time>
      </trkpt>
      <trkpt lat="45.78757" lon="4.98393">
        <ele>236</ele>
        <time>2015-04-26T10:28:59Z</time>
      </trkpt>
      <trkpt lat="45.78761" lon="4.98397">
        <ele>234</ele>
        <time>2015-04-26T10:29:01Z</time>
      </trkpt>
      <trkpt lat="45.78764" lon="4.98401">
        <ele>235</ele>
        <time>2015-04-26T10:29:03Z</time>
      </trkpt>
      <trkpt lat="45.78768" lon="4.98405">
        <ele>232</ele>
        <time>2015-04-26T10:29:05Z</time>
      </trkpt>
      <trkpt lat="45.7877" lon="4.98407">
        <ele>230</ele>
        <time>2015-04-26T10:29:06Z</time>
      </trkpt>
      <trkpt lat="45.78773" lon="4.98411">
        <ele>230</ele>
        <time>2015-04-26T10:29:08Z</time>
      </trkpt>
      <trkpt lat="45.78775" lon="4.98413">
        <ele>231</ele>
        <time>2015-04-26T10:29:09Z</time>
      </trkpt>
      <trkpt lat="45.78779" lon="4.98417">
        <ele>231</ele>
        <time>2015-04-26T10:29:11Z</time>
      </trkpt>
      <trkpt lat="45.78782" lon="4.9842">
        <ele>232</ele>
        <time>2015-04-26T10:29:12Z</time>
      </trkpt>
      <trkpt lat="45.78786" lon="4.98425">
        <ele>233</ele>
        <time>2015-04-26T10:29:15Z</time>
      </trkpt>
      <trkpt lat="45.78788" lon="4.98428">
        <ele>233</ele>
        <time>2015-04-26T10:29:16Z</time>
      </trkpt>
      <trkpt lat="45.78793" lon="4.98433">
        <ele>233</ele>
        <time>2015-04-26T10:29:19Z</time>
      </trkpt>
      <trkpt lat="45.78795" lon="4.98435">
        <ele>233</ele>
        <time>2015-04-26T10:29:20Z</time>
      </trkpt>
      <trkpt lat="45.788" lon="4.9844">
        <ele>234</ele>
        <time>2015-04-26T10:29:23Z</time>
      </trkpt>
      <trkpt lat="45.78802" lon="4.98442">
        <ele>234</ele>
        <time>2015-04-26T10:29:24Z</time>
      </trkpt>
      <trkpt lat="45.78807" lon="4.98447">
        <ele>235</ele>
        <time>2015-04-26T10:29:27Z</time>
      </trkpt>
      <trkpt lat="45.78809" lon="4.98449">
        <ele>236</ele>
        <time>2015-04-26T10:29:28Z</time>
      </trkpt>
      <trkpt lat="45.78814" lon="4.98454">
        <ele>236</ele>
        <time>2015-04-26T10:29:31Z</time>
      </trkpt>
      <trkpt lat="45.78815" lon="4.98456">
        <ele>236</ele>
        <time>2015-04-26T10:29:32Z</time>
      </trkpt>
      <trkpt lat="45.78819" lon="4.9846">
        <ele>235</ele>
        <time>2015-04-26T10:29:34Z</time>
      </trkpt>
      <trkpt lat="45.78821" lon="4.98463">
        <ele>236</ele>
        <time>2015-04-26T10:29:35Z</time>
      </trkpt>
      <trkpt lat="45.78825" lon="4.98467">
        <ele>235</ele>
        <time>2015-04-26T10:29:37Z</time>
      </trkpt>
      <trkpt lat="45.78827" lon="4.9847">
        <ele>235</ele>
        <time>2015-04-26T10:29:38Z</time>
      </trkpt>
      <trkpt lat="45.78831" lon="4.98474">
        <ele>235</ele>
        <time>2015-04-26T10:29:40Z</time>
      </trkpt>
      <trkpt lat="45.78833" lon="4.98477">
        <ele>235</ele>
        <time>2015-04-26T10:29:41Z</time>
      </trkpt>
      <trkpt lat="45.78837" lon="4.98481">
        <ele>234</ele>
        <time>2015-04-26T10:29:43Z</time>
      </trkpt>
      <trkpt lat="45.78839" lon="4.98483">
        <ele>234</ele>
        <time>2015-04-26T10:29:44Z</time>
      </trkpt>
      <trkpt lat="45.78843" lon="4.98487">
        <ele>234</ele>
        <time>2015-04-26T10:29:46Z</time>
      </trkpt>
      <trkpt lat="45.78845" lon="4.9849">
        <ele>234</ele>
        <time>2015-04-26T10:29:47Z</time>
      </trkpt>
      <trkpt lat="45.7885" lon="4.98494">
        <ele>235</ele>
        <time>2015-04-26T10:29:49Z</time>
      </trkpt>
      <trkpt lat="45.78852" lon="4.98496">
        <ele>234</ele>
        <time>2015-04-26T10:29:50Z</time>
      </trkpt>
      <trkpt lat="45.78856" lon="4.985">
        <ele>234</ele>
        <time>2015-04-26T10:29:52Z</time>
      </trkpt>
      <trkpt lat="45.78857" lon="4.98502">
        <ele>234</ele>
        <time>2015-04-26T10:29:53Z</time>
      </trkpt>
      <trkpt lat="45.78861" lon="4.98506">
        <ele>234</ele>
        <time>2015-04-26T10:29:55Z</time>
      </trkpt>
      <trkpt lat="45.78863" lon="4.98508">
        <ele>233</ele>
        <time>2015-04-26T10:29:56Z</time>
      </trkpt>
      <trkpt lat="45.78867" lon="4.98511">
        <ele>233</ele>
        <time>2015-04-26T10:29:58Z</time>
      </trkpt>
      <trkpt lat="45.78869" lon="4.98512">
        <ele>233</ele>
        <time>2015-04-26T10:29:59Z</time>
      </trkpt>
      <trkpt lat="45.78873" lon="4.98515">
        <ele>233</ele>
        <time>2015-04-26T10:30:01Z</time>
      </trkpt>
      <trkpt lat="45.78876" lon="4.98518">
        <ele>233</ele>
        <time>2015-04-26T10:30:02Z</time>
      </trkpt>
      <trkpt lat="45.78881" lon="4.98522">
        <ele>234</ele>
        <time>2015-04-26T10:30:05Z</time>
      </trkpt>
      <trkpt lat="45.78883" lon="4.98525">
        <ele>234</ele>
        <time>2015-04-26T10:30:06Z</time>
      </trkpt>
      <trkpt lat="45.78888" lon="4.9853">
        <ele>234</ele>
        <time>2015-04-26T10:30:09Z</time>
      </trkpt>
      <trkpt lat="45.7889" lon="4.98532">
        <ele>234</ele>
        <time>2015-04-26T10:30:10Z</time>
      </trkpt>
      <trkpt lat="45.78893" lon="4.98536">
        <ele>234</ele>
        <time>2015-04-26T10:30:12Z</time>
      </trkpt>
      <trkpt lat="45.78895" lon="4.98537">
        <ele>234</ele>
        <time>2015-04-26T10:30:13Z</time>
      </trkpt>
      <trkpt lat="45.78899" lon="4.98541">
        <ele>234</ele>
        <time>2015-04-26T10:30:15Z</time>
      </trkpt>
      <trkpt lat="45.78902" lon="4.98543">
        <ele>234</ele>
        <time>2015-04-26T10:30:16Z</time>
      </trkpt>
      <trkpt lat="45.78907" lon="4.98547">
        <ele>234</ele>
        <time>2015-04-26T10:30:19Z</time>
      </trkpt>
      <trkpt lat="45.7891" lon="4.98549">
        <ele>233</ele>
        <time>2015-04-26T10:30:20Z</time>
      </trkpt>
      <trkpt lat="45.78915" lon="4.98553">
        <ele>233</ele>
        <time>2015-04-26T10:30:23Z</time>
      </trkpt>
      <trkpt lat="45.78916" lon="4.98555">
        <ele>233</ele>
        <time>2015-04-26T10:30:24Z</time>
      </trkpt>
      <trkpt lat="45.7892" lon="4.98558">
        <ele>233</ele>
        <time>2015-04-26T10:30:26Z</time>
      </trkpt>
      <trkpt lat="45.78923" lon="4.98561">
        <ele>232.5</ele>
        <time>2015-04-26T10:30:27Z</time>
      </trkpt>
      <trkpt lat="45.78928" lon="4.98564">
        <ele>232</ele>
        <time>2015-04-26T10:30:30Z</time>
      </trkpt>
      <trkpt lat="45.7893" lon="4.98566">
        <ele>233</ele>
        <time>2015-04-26T10:30:31Z</time>
      </trkpt>
      <trkpt lat="45.78934" lon="4.98568">
        <ele>233</ele>
        <time>2015-04-26T10:30:33Z</time>
      </trkpt>
      <trkpt lat="45.78936" lon="4.9857">
        <ele>233</ele>
        <time>2015-04-26T10:30:34Z</time>
      </trkpt>
      <trkpt lat="45.7894" lon="4.98573">
        <ele>233</ele>
        <time>2015-04-26T10:30:36Z</time>
      </trkpt>
      <trkpt lat="45.78943" lon="4.98576">
        <ele>233</ele>
        <time>2015-04-26T10:30:37Z</time>
      </trkpt>
      <trkpt lat="45.78948" lon="4.98579">
        <ele>234</ele>
        <time>2015-04-26T10:30:40Z</time>
      </trkpt>
      <trkpt lat="45.78951" lon="4.9858">
        <ele>234</ele>
        <time>2015-04-26T10:30:41Z</time>
      </trkpt>
      <trkpt lat="45.78956" lon="4.98583">
        <ele>234</ele>
        <time>2015-04-26T10:30:44Z</time>
      </trkpt>
      <trkpt lat="45.78958" lon="4.98584">
        <ele>234</ele>
        <time>2015-04-26T10:30:45Z</time>
      </trkpt>
      <trkpt lat="45.78962" lon="4.98586">
        <ele>235</ele>
        <time>2015-04-26T10:30:48Z</time>
      </trkpt>
      <trkpt lat="45.78965" lon="4.98586">
        <ele>235</ele>
        <time>2015-04-26T10:30:50Z</time>
      </trkpt>
      <trkpt lat="45.78968" lon="4.98584">
        <ele>234</ele>
        <time>2015-04-26T10:30:52Z</time>
      </trkpt>
      <trkpt lat="45.78971" lon="4.98581">
        <ele>234</ele>
        <time>2015-04-26T10:30:54Z</time>
      </trkpt>
      <trkpt lat="45.78972" lon="4.98576">
        <ele>234</ele>
        <time>2015-04-26T10:30:56Z</time>
      </trkpt>
      <trkpt lat="45.7897" lon="4.98571">
        <ele>234</ele>
        <time>2015-04-26T10:30:58Z</time>
      </trkpt>
      <trkpt lat="45.78968" lon="4.98567">
        <ele>235</ele>
        <time>2015-04-26T10:31:00Z</time>
      </trkpt>
      <trkpt lat="45.78966" lon="4.98562">
        <ele>234</ele>
        <time>2015-04-26T10:31:02Z</time>
      </trkpt>
      <trkpt lat="45.78964" lon="4.98558">
        <ele>233</ele>
        <time>2015-04-26T10:31:04Z</time>
      </trkpt>
      <trkpt lat="45.78962" lon="4.98553">
        <ele>234</ele>
        <time>2015-04-26T10:31:06Z</time>
      </trkpt>
      <trkpt lat="45.7896" lon="4.98548">
        <ele>234</ele>
        <time>2015-04-26T10:31:08Z</time>
      </trkpt>
      <trkpt lat="45.78958" lon="4.98544">
        <ele>235</ele>
        <time>2015-04-26T10:31:10Z</time>
      </trkpt>
      <trkpt lat="45.78955" lon="4.98539">
        <ele>235</ele>
        <time>2015-04-26T10:31:12Z</time>
      </trkpt>
      <trkpt lat="45.78953" lon="4.98534">
        <ele>235</ele>
        <time>2015-04-26T10:31:14Z</time>
      </trkpt>
      <trkpt lat="45.7895" lon="4.98529">
        <ele>234</ele>
        <time>2015-04-26T10:31:16Z</time>
      </trkpt>
      <trkpt lat="45.78947" lon="4.98525">
        <ele>234</ele>
        <time>2015-04-26T10:31:18Z</time>
      </trkpt>
      <trkpt lat="45.78944" lon="4.9852">
        <ele>234</ele>
        <time>2015-04-26T10:31:20Z</time>
      </trkpt>
      <trkpt lat="45.78941" lon="4.98518">
        <ele>234</ele>
        <time>2015-04-26T10:31:21Z</time>
      </trkpt>
      <trkpt lat="45.78938" lon="4.98512">
        <ele>234</ele>
        <time>2015-04-26T10:31:24Z</time>
      </trkpt>
      <trkpt lat="45.78936" lon="4.98509">
        <ele>234</ele>
        <time>2015-04-26T10:31:25Z</time>
      </trkpt>
      <trkpt lat="45.78933" lon="4.98502">
        <ele>235</ele>
        <time>2015-04-26T10:31:28Z</time>
      </trkpt>
      <trkpt lat="45.78931" lon="4.98498">
        <ele>235</ele>
        <time>2015-04-26T10:31:29Z</time>
      </trkpt>
      <trkpt lat="45.78929" lon="4.98492">
        <ele>234</ele>
        <time>2015-04-26T10:31:32Z</time>
      </trkpt>
      <trkpt lat="45.78927" lon="4.98488">
        <ele>234</ele>
        <time>2015-04-26T10:31:33Z</time>
      </trkpt>
      <trkpt lat="45.78924" lon="4.98484">
        <ele>234</ele>
        <time>2015-04-26T10:31:36Z</time>
      </trkpt>
      <trkpt lat="45.78922" lon="4.9848">
        <ele>234</ele>
        <time>2015-04-26T10:31:37Z</time>
      </trkpt>
      <trkpt lat="45.78919" lon="4.98475">
        <ele>233</ele>
        <time>2015-04-26T10:31:40Z</time>
      </trkpt>
      <trkpt lat="45.78918" lon="4.98472">
        <ele>234</ele>
        <time>2015-04-26T10:31:41Z</time>
      </trkpt>
      <trkpt lat="45.78915" lon="4.98466">
        <ele>234</ele>
        <time>2015-04-26T10:31:44Z</time>
      </trkpt>
      <trkpt lat="45.78914" lon="4.98463">
        <ele>234</ele>
        <time>2015-04-26T10:31:45Z</time>
      </trkpt>
      <trkpt lat="45.78911" lon="4.98456">
        <ele>234</ele>
        <time>2015-04-26T10:31:48Z</time>
      </trkpt>
      <trkpt lat="45.7891" lon="4.98453">
        <ele>234</ele>
        <time>2015-04-26T10:31:49Z</time>
      </trkpt>
      <trkpt lat="45.78907" lon="4.98446">
        <ele>234</ele>
        <time>2015-04-26T10:31:52Z</time>
      </trkpt>
      <trkpt lat="45.78906" lon="4.98443">
        <ele>234</ele>
        <time>2015-04-26T10:31:53Z</time>
      </trkpt>
      <trkpt lat="45.78903" lon="4.98437">
        <ele>234</ele>
        <time>2015-04-26T10:31:56Z</time>
      </trkpt>
      <trkpt lat="45.78901" lon="4.98434">
        <ele>234</ele>
        <time>2015-04-26T10:31:57Z</time>
      </trkpt>
      <trkpt lat="45.78899" lon="4.98428">
        <ele>234</ele>
        <time>2015-04-26T10:32:00Z</time>
      </trkpt>
      <trkpt lat="45.78898" lon="4.98424">
        <ele>234</ele>
        <time>2015-04-26T10:32:01Z</time>
      </trkpt>
      <trkpt lat="45.78896" lon="4.98419">
        <ele>234</ele>
        <time>2015-04-26T10:32:04Z</time>
      </trkpt>
      <trkpt lat="45.78895" lon="4.98415">
        <ele>234.5</ele>
        <time>2015-04-26T10:32:05Z</time>
      </trkpt>
      <trkpt lat="45.78892" lon="4.98409">
        <ele>235</ele>
        <time>2015-04-26T10:32:08Z</time>
      </trkpt>
      <trkpt lat="45.78891" lon="4.98406">
        <ele>235</ele>
        <time>2015-04-26T10:32:09Z</time>
      </trkpt>
      <trkpt lat="45.78889" lon="4.98399">
        <ele>235</ele>
        <time>2015-04-26T10:32:12Z</time>
      </trkpt>
      <trkpt lat="45.78888" lon="4.98396">
        <ele>235</ele>
        <time>2015-04-26T10:32:13Z</time>
      </trkpt>
      <trkpt lat="45.78885" lon="4.98389">
        <ele>234</ele>
        <time>2015-04-26T10:32:16Z</time>
      </trkpt>
      <trkpt lat="45.78884" lon="4.98385">
        <ele>234.5</ele>
        <time>2015-04-26T10:32:17Z</time>
      </trkpt>
      <trkpt lat="45.78882" lon="4.98378">
        <ele>234</ele>
        <time>2015-04-26T10:32:20Z</time>
      </trkpt>
      <trkpt lat="45.7888" lon="4.98375">
        <ele>234</ele>
        <time>2015-04-26T10:32:21Z</time>
      </trkpt>
      <trkpt lat="45.78879" lon="4.98369">
        <ele>234</ele>
        <time>2015-04-26T10:32:23Z</time>
      </trkpt>
      <trkpt lat="45.78878" lon="4.98364">
        <ele>234</ele>
        <time>2015-04-26T10:32:24Z</time>
      </trkpt>
      <trkpt lat="45.78876" lon="4.98357">
        <ele>233</ele>
        <time>2015-04-26T10:32:27Z</time>
      </trkpt>
      <trkpt lat="45.78875" lon="4.98353">
        <ele>233</ele>
        <time>2015-04-26T10:32:28Z</time>
      </trkpt>
      <trkpt lat="45.78873" lon="4.98345">
        <ele>233</ele>
        <time>2015-04-26T10:32:31Z</time>
      </trkpt>
      <trkpt lat="45.78871" lon="4.98341">
        <ele>233.5</ele>
        <time>2015-04-26T10:32:32Z</time>
      </trkpt>
      <trkpt lat="45.78869" lon="4.98334">
        <ele>234</ele>
        <time>2015-04-26T10:32:35Z</time>
      </trkpt>
      <trkpt lat="45.78868" lon="4.9833">
        <ele>234</ele>
        <time>2015-04-26T10:32:36Z</time>
      </trkpt>
      <trkpt lat="45.78867" lon="4.98324">
        <ele>235</ele>
        <time>2015-04-26T10:32:38Z</time>
      </trkpt>
      <trkpt lat="45.78866" lon="4.98321">
        <ele>235</ele>
        <time>2015-04-26T10:32:39Z</time>
      </trkpt>
      <trkpt lat="45.78864" lon="4.98315">
        <ele>233</ele>
        <time>2015-04-26T10:32:41Z</time>
      </trkpt>
      <trkpt lat="45.78863" lon="4.98309">
        <ele>234</ele>
        <time>2015-04-26T10:32:43Z</time>
      </trkpt>
      <trkpt lat="45.78862" lon="4.98306">
        <ele>234</ele>
        <time>2015-04-26T10:32:44Z</time>
      </trkpt>
      <trkpt lat="45.7886" lon="4.983">
        <ele>233</ele>
        <time>2015-04-26T10:32:46Z</time>
      </trkpt>
      <trkpt lat="45.78859" lon="4.98297">
        <ele>233</ele>
        <time>2015-04-26T10:32:47Z</time>
      </trkpt>
      <trkpt lat="45.78856" lon="4.98291">
        <ele>232</ele>
        <time>2015-04-26T10:32:49Z</time>
      </trkpt>
      <trkpt lat="45.78855" lon="4.98288">
        <ele>232</ele>
        <time>2015-04-26T10:32:50Z</time>
      </trkpt>
      <trkpt lat="45.78853" lon="4.98282">
        <ele>231</ele>
        <time>2015-04-26T10:32:52Z</time>
      </trkpt>
      <trkpt lat="45.78852" lon="4.98279">
        <ele>231</ele>
        <time>2015-04-26T10:32:53Z</time>
      </trkpt>
      <trkpt lat="45.78849" lon="4.98273">
        <ele>231</ele>
        <time>2015-04-26T10:32:55Z</time>
      </trkpt>
      <trkpt lat="45.78847" lon="4.98271">
        <ele>231</ele>
        <time>2015-04-26T10:32:56Z</time>
      </trkpt>
      <trkpt lat="45.78845" lon="4.98265">
        <ele>232</ele>
        <time>2015-04-26T10:32:58Z</time>
      </trkpt>
      <trkpt lat="45.78843" lon="4.98262">
        <ele>232</ele>
        <time>2015-04-26T10:32:59Z</time>
      </trkpt>
      <trkpt lat="45.78841" lon="4.98256">
        <ele>231</ele>
        <time>2015-04-26T10:33:01Z</time>
      </trkpt>
      <trkpt lat="45.7884" lon="4.98253">
        <ele>231</ele>
        <time>2015-04-26T10:33:02Z</time>
      </trkpt>
      <trkpt lat="45.78837" lon="4.98248">
        <ele>232</ele>
        <time>2015-04-26T10:33:04Z</time>
      </trkpt>
      <trkpt lat="45.78836" lon="4.98245">
        <ele>231</ele>
        <time>2015-04-26T10:33:05Z</time>
      </trkpt>
      <trkpt lat="45.78834" lon="4.98239">
        <ele>231</ele>
        <time>2015-04-26T10:33:07Z</time>
      </trkpt>
      <trkpt lat="45.78833" lon="4.98236">
        <ele>231</ele>
        <time>2015-04-26T10:33:08Z</time>
      </trkpt>
      <trkpt lat="45.7883" lon="4.98231">
        <ele>231</ele>
        <time>2015-04-26T10:33:10Z</time>
      </trkpt>
      <trkpt lat="45.78829" lon="4.98228">
        <ele>231</ele>
        <time>2015-04-26T10:33:11Z</time>
      </trkpt>
      <trkpt lat="45.78827" lon="4.98222">
        <ele>231</ele>
        <time>2015-04-26T10:33:13Z</time>
      </trkpt>
      <trkpt lat="45.78826" lon="4.9822">
        <ele>231</ele>
        <time>2015-04-26T10:33:14Z</time>
      </trkpt>
      <trkpt lat="45.78823" lon="4.98214">
        <ele>231</ele>
        <time>2015-04-26T10:33:16Z</time>
      </trkpt>
      <trkpt lat="45.7882" lon="4.98209">
        <ele>230</ele>
        <time>2015-04-26T10:33:18Z</time>
      </trkpt>
      <trkpt lat="45.78817" lon="4.98204">
        <ele>230</ele>
        <time>2015-04-26T10:33:20Z</time>
      </trkpt>
      <trkpt lat="45.78816" lon="4.98201">
        <ele>230</ele>
        <time>2015-04-26T10:33:21Z</time>
      </trkpt>
      <trkpt lat="45.78813" lon="4.98196">
        <ele>231</ele>
        <time>2015-04-26T10:33:23Z</time>
      </trkpt>
      <trkpt lat="45.78812" lon="4.98193">
        <ele>231</ele>
        <time>2015-04-26T10:33:24Z</time>
      </trkpt>
      <trkpt lat="45.7881" lon="4.98188">
        <ele>230</ele>
        <time>2015-04-26T10:33:26Z</time>
      </trkpt>
      <trkpt lat="45.78809" lon="4.98185">
        <ele>231</ele>
        <time>2015-04-26T10:33:27Z</time>
      </trkpt>
      <trkpt lat="45.78808" lon="4.98179">
        <ele>231</ele>
        <time>2015-04-26T10:33:29Z</time>
      </trkpt>
      <trkpt lat="45.78807" lon="4.98176">
        <ele>231</ele>
        <time>2015-04-26T10:33:30Z</time>
      </trkpt>
      <trkpt lat="45.78805" lon="4.9817">
        <ele>232</ele>
        <time>2015-04-26T10:33:32Z</time>
      </trkpt>
      <trkpt lat="45.78803" lon="4.98164">
        <ele>233</ele>
        <time>2015-04-26T10:33:34Z</time>
      </trkpt>
      <trkpt lat="45.78802" lon="4.98159">
        <ele>233</ele>
        <time>2015-04-26T10:33:36Z</time>
      </trkpt>
      <trkpt lat="45.788" lon="4.98153">
        <ele>233</ele>
        <time>2015-04-26T10:33:38Z</time>
      </trkpt>
      <trkpt lat="45.78798" lon="4.98147">
        <ele>234</ele>
        <time>2015-04-26T10:33:40Z</time>
      </trkpt>
      <trkpt lat="45.78797" lon="4.98141">
        <ele>234</ele>
        <time>2015-04-26T10:33:42Z</time>
      </trkpt>
      <trkpt lat="45.78796" lon="4.98136">
        <ele>233</ele>
        <time>2015-04-26T10:33:44Z</time>
      </trkpt>
      <trkpt lat="45.78794" lon="4.9813">
        <ele>233</ele>
        <time>2015-04-26T10:33:46Z</time>
      </trkpt>
      <trkpt lat="45.78792" lon="4.98125">
        <ele>233</ele>
        <time>2015-04-26T10:33:48Z</time>
      </trkpt>
      <trkpt lat="45.7879" lon="4.98119">
        <ele>233</ele>
        <time>2015-04-26T10:33:50Z</time>
      </trkpt>
      <trkpt lat="45.78788" lon="4.98113">
        <ele>233</ele>
        <time>2015-04-26T10:33:52Z</time>
      </trkpt>
      <trkpt lat="45.78787" lon="4.9811">
        <ele>232</ele>
        <time>2015-04-26T10:33:53Z</time>
      </trkpt>
      <trkpt lat="45.78785" lon="4.98104">
        <ele>232</ele>
        <time>2015-04-26T10:33:55Z</time>
      </trkpt>
      <trkpt lat="45.78784" lon="4.98101">
        <ele>232</ele>
        <time>2015-04-26T10:33:56Z</time>
      </trkpt>
      <trkpt lat="45.78782" lon="4.98095">
        <ele>231</ele>
        <time>2015-04-26T10:33:58Z</time>
      </trkpt>
      <trkpt lat="45.78781" lon="4.98091">
        <ele>231</ele>
        <time>2015-04-26T10:33:59Z</time>
      </trkpt>
      <trkpt lat="45.78778" lon="4.98084">
        <ele>230</ele>
        <time>2015-04-26T10:34:02Z</time>
      </trkpt>
      <trkpt lat="45.78777" lon="4.9808">
        <ele>230</ele>
        <time>2015-04-26T10:34:03Z</time>
      </trkpt>
      <trkpt lat="45.78774" lon="4.98073">
        <ele>230</ele>
        <time>2015-04-26T10:34:06Z</time>
      </trkpt>
      <trkpt lat="45.78772" lon="4.9807">
        <ele>231</ele>
        <time>2015-04-26T10:34:07Z</time>
      </trkpt>
      <trkpt lat="45.78767" lon="4.98066">
        <ele>231</ele>
        <time>2015-04-26T10:34:10Z</time>
      </trkpt>
      <trkpt lat="45.78765" lon="4.98063">
        <ele>231</ele>
        <time>2015-04-26T10:34:11Z</time>
      </trkpt>
      <trkpt lat="45.78762" lon="4.98057">
        <ele>232</ele>
        <time>2015-04-26T10:34:14Z</time>
      </trkpt>
      <trkpt lat="45.78761" lon="4.98053">
        <ele>231</ele>
        <time>2015-04-26T10:34:15Z</time>
      </trkpt>
      <trkpt lat="45.78758" lon="4.98047">
        <ele>232</ele>
        <time>2015-04-26T10:34:18Z</time>
      </trkpt>
      <trkpt lat="45.78756" lon="4.98043">
        <ele>233</ele>
        <time>2015-04-26T10:34:19Z</time>
      </trkpt>
      <trkpt lat="45.78752" lon="4.98038">
        <ele>232</ele>
        <time>2015-04-26T10:34:22Z</time>
      </trkpt>
      <trkpt lat="45.7875" lon="4.98034">
        <ele>232</ele>
        <time>2015-04-26T10:34:23Z</time>
      </trkpt>
      <trkpt lat="45.78747" lon="4.98027">
        <ele>233</ele>
        <time>2015-04-26T10:34:26Z</time>
      </trkpt>
      <trkpt lat="45.78745" lon="4.98025">
        <ele>233</ele>
        <time>2015-04-26T10:34:27Z</time>
      </trkpt>
      <trkpt lat="45.78743" lon="4.98019">
        <ele>233</ele>
        <time>2015-04-26T10:34:29Z</time>
      </trkpt>
      <trkpt lat="45.78741" lon="4.98017">
        <ele>233</ele>
        <time>2015-04-26T10:34:30Z</time>
      </trkpt>
      <trkpt lat="45.78738" lon="4.98012">
        <ele>234</ele>
        <time>2015-04-26T10:34:32Z</time>
      </trkpt>
      <trkpt lat="45.78736" lon="4.98009">
        <ele>234</ele>
        <time>2015-04-26T10:34:33Z</time>
      </trkpt>
      <trkpt lat="45.78733" lon="4.98004">
        <ele>234</ele>
        <time>2015-04-26T10:34:35Z</time>
      </trkpt>
      <trkpt lat="45.78731" lon="4.98002">
        <ele>235</ele>
        <time>2015-04-26T10:34:36Z</time>
      </trkpt>
      <trkpt lat="45.78727" lon="4.97996">
        <ele>235</ele>
        <time>2015-04-26T10:34:38Z</time>
      </trkpt>
      <trkpt lat="45.78726" lon="4.97994">
        <ele>235</ele>
        <time>2015-04-26T10:34:39Z</time>
      </trkpt>
      <trkpt lat="45.78722" lon="4.9799">
        <ele>235</ele>
        <time>2015-04-26T10:34:41Z</time>
      </trkpt>
      <trkpt lat="45.7872" lon="4.97987">
        <ele>235</ele>
        <time>2015-04-26T10:34:42Z</time>
      </trkpt>
      <trkpt lat="45.78717" lon="4.97983">
        <ele>236</ele>
        <time>2015-04-26T10:34:44Z</time>
      </trkpt>
      <trkpt lat="45.78715" lon="4.97981">
        <ele>236</ele>
        <time>2015-04-26T10:34:45Z</time>
      </trkpt>
      <trkpt lat="45.78712" lon="4.97976">
        <ele>236</ele>
        <time>2015-04-26T10:34:47Z</time>
      </trkpt>
      <trkpt lat="45.78709" lon="4.97973">
        <ele>236</ele>
        <time>2015-04-26T10:34:48Z</time>
      </trkpt>
      <trkpt lat="45.78706" lon="4.97967">
        <ele>235</ele>
        <time>2015-04-26T10:34:51Z</time>
      </trkpt>
      <trkpt lat="45.78704" lon="4.97963">
        <ele>234.5</ele>
        <time>2015-04-26T10:34:52Z</time>
      </trkpt>
      <trkpt lat="45.78701" lon="4.97957">
        <ele>234</ele>
        <time>2015-04-26T10:34:55Z</time>
      </trkpt>
      <trkpt lat="45.78699" lon="4.97953">
        <ele>233</ele>
        <time>2015-04-26T10:34:56Z</time>
      </trkpt>
      <trkpt lat="45.78696" lon="4.97947">
        <ele>233</ele>
        <time>2015-04-26T10:34:59Z</time>
      </trkpt>
      <trkpt lat="45.78695" lon="4.97944">
        <ele>233</ele>
        <time>2015-04-26T10:35:00Z</time>
      </trkpt>
      <trkpt lat="45.78693" lon="4.97938">
        <ele>234</ele>
        <time>2015-04-26T10:35:02Z</time>
      </trkpt>
      <trkpt lat="45.78692" lon="4.97935">
        <ele>235</ele>
        <time>2015-04-26T10:35:03Z</time>
      </trkpt>
      <trkpt lat="45.78689" lon="4.97929">
        <ele>235</ele>
        <time>2015-04-26T10:35:05Z</time>
      </trkpt>
      <trkpt lat="45.78688" lon="4.97926">
        <ele>235</ele>
        <time>2015-04-26T10:35:06Z</time>
      </trkpt>
      <trkpt lat="45.78685" lon="4.97921">
        <ele>235</ele>
        <time>2015-04-26T10:35:08Z</time>
      </trkpt>
      <trkpt lat="45.78684" lon="4.97918">
        <ele>235</ele>
        <time>2015-04-26T10:35:09Z</time>
      </trkpt>
      <trkpt lat="45.78681" lon="4.97913">
        <ele>234</ele>
        <time>2015-04-26T10:35:11Z</time>
      </trkpt>
      <trkpt lat="45.78679" lon="4.97911">
        <ele>234</ele>
        <time>2015-04-26T10:35:12Z</time>
      </trkpt>
      <trkpt lat="45.78676" lon="4.97907">
        <ele>234</ele>
        <time>2015-04-26T10:35:14Z</time>
      </trkpt>
      <trkpt lat="45.78673" lon="4.97904">
        <ele>233</ele>
        <time>2015-04-26T10:35:15Z</time>
      </trkpt>
      <trkpt lat="45.78669" lon="4.97898">
        <ele>233</ele>
        <time>2015-04-26T10:35:18Z</time>
      </trkpt>
      <trkpt lat="45.78667" lon="4.97896">
        <ele>233</ele>
        <time>2015-04-26T10:35:19Z</time>
      </trkpt>
      <trkpt lat="45.78662" lon="4.97891">
        <ele>233</ele>
        <time>2015-04-26T10:35:22Z</time>
      </trkpt>
      <trkpt lat="45.7866" lon="4.97888">
        <ele>232</ele>
        <time>2015-04-26T10:35:23Z</time>
      </trkpt>
      <trkpt lat="45.78655" lon="4.97883">
        <ele>232</ele>
        <time>2015-04-26T10:35:26Z</time>
      </trkpt>
      <trkpt lat="45.78653" lon="4.9788">
        <ele>232</ele>
        <time>2015-04-26T10:35:27Z</time>
      </trkpt>
      <trkpt lat="45.78649" lon="4.97875">
        <ele>232</ele>
        <time>2015-04-26T10:35:30Z</time>
      </trkpt>
      <trkpt lat="45.78647" lon="4.97871">
        <ele>232</ele>
        <time>2015-04-26T10:35:31Z</time>
      </trkpt>
      <trkpt lat="45.78643" lon="4.97865">
        <ele>232</ele>
        <time>2015-04-26T10:35:34Z</time>
      </trkpt>
      <trkpt lat="45.78641" lon="4.97861">
        <ele>232</ele>
        <time>2015-04-26T10:35:35Z</time>
      </trkpt>
      <trkpt lat="45.78638" lon="4.97855">
        <ele>232</ele>
        <time>2015-04-26T10:35:38Z</time>
      </trkpt>
      <trkpt lat="45.78636" lon="4.97852">
        <ele>231.5</ele>
        <time>2015-04-26T10:35:39Z</time>
      </trkpt>
      <trkpt lat="45.78633" lon="4.97846">
        <ele>233</ele>
        <time>2015-04-26T10:35:42Z</time>
      </trkpt>
      <trkpt lat="45.78632" lon="4.97842">
        <ele>233</ele>
        <time>2015-04-26T10:35:43Z</time>
      </trkpt>
      <trkpt lat="45.78629" lon="4.97837">
        <ele>232</ele>
        <time>2015-04-26T10:35:46Z</time>
      </trkpt>
      <trkpt lat="45.78628" lon="4.97833">
        <ele>231</ele>
        <time>2015-04-26T10:35:48Z</time>
      </trkpt>
      <trkpt lat="45.78625" lon="4.9783">
        <ele>231</ele>
        <time>2015-04-26T10:35:51Z</time>
      </trkpt>
      <trkpt lat="45.78622" lon="4.97832">
        <ele>230.5</ele>
        <time>2015-04-26T10:35:54Z</time>
      </trkpt>
      <trkpt lat="45.78619" lon="4.97836">
        <ele>231</ele>
        <time>2015-04-26T10:35:57Z</time>
      </trkpt>
      <trkpt lat="45.78617" lon="4.9784">
        <ele>231</ele>
        <time>2015-04-26T10:36:00Z</time>
      </trkpt>
      <trkpt lat="45.78614" lon="4.97843">
        <ele>231</ele>
        <time>2015-04-26T10:36:03Z</time>
      </trkpt>
      <trkpt lat="45.78611" lon="4.97846">
        <ele>231</ele>
        <time>2015-04-26T10:36:05Z</time>
      </trkpt>
      <trkpt lat="45.78607" lon="4.97849">
        <ele>231</ele>
        <time>2015-04-26T10:36:08Z</time>
      </trkpt>
      <trkpt lat="45.78604" lon="4.97851">
        <ele>231</ele>
        <time>2015-04-26T10:36:10Z</time>
      </trkpt>
      <trkpt lat="45.786" lon="4.97853">
        <ele>231</ele>
        <time>2015-04-26T10:36:12Z</time>
      </trkpt>
      <trkpt lat="45.78597" lon="4.97855">
        <ele>231</ele>
        <time>2015-04-26T10:36:14Z</time>
      </trkpt>
      <trkpt lat="45.78593" lon="4.97856">
        <ele>231</ele>
        <time>2015-04-26T10:36:16Z</time>
      </trkpt>
      <trkpt lat="45.78589" lon="4.97857">
        <ele>231</ele>
        <time>2015-04-26T10:36:18Z</time>
      </trkpt>
      <trkpt lat="45.78584" lon="4.97858">
        <ele>232</ele>
        <time>2015-04-26T10:36:20Z</time>
      </trkpt>
      <trkpt lat="45.7858" lon="4.97859">
        <ele>232</ele>
        <time>2015-04-26T10:36:22Z</time>
      </trkpt>
      <trkpt lat="45.78576" lon="4.97861">
        <ele>232</ele>
        <time>2015-04-26T10:36:24Z</time>
      </trkpt>
      <trkpt lat="45.78573" lon="4.97861">
        <ele>232</ele>
        <time>2015-04-26T10:36:25Z</time>
      </trkpt>
      <trkpt lat="45.78569" lon="4.97863">
        <ele>232</ele>
        <time>2015-04-26T10:36:27Z</time>
      </trkpt>
      <trkpt lat="45.78567" lon="4.97864">
        <ele>232</ele>
        <time>2015-04-26T10:36:28Z</time>
      </trkpt>
      <trkpt lat="45.78562" lon="4.97866">
        <ele>232</ele>
        <time>2015-04-26T10:36:30Z</time>
      </trkpt>
      <trkpt lat="45.78559" lon="4.97867">
        <ele>232</ele>
        <time>2015-04-26T10:36:31Z</time>
      </trkpt>
      <trkpt lat="45.78554" lon="4.9787">
        <ele>232</ele>
        <time>2015-04-26T10:36:34Z</time>
      </trkpt>
      <trkpt lat="45.78552" lon="4.97871">
        <ele>232</ele>
        <time>2015-04-26T10:36:35Z</time>
      </trkpt>
      <trkpt lat="45.78547" lon="4.97873">
        <ele>232</ele>
        <time>2015-04-26T10:36:37Z</time>
      </trkpt>
      <trkpt lat="45.78545" lon="4.97874">
        <ele>232</ele>
        <time>2015-04-26T10:36:38Z</time>
      </trkpt>
      <trkpt lat="45.78541" lon="4.97876">
        <ele>232</ele>
        <time>2015-04-26T10:36:40Z</time>
      </trkpt>
      <trkpt lat="45.78539" lon="4.97878">
        <ele>232</ele>
        <time>2015-04-26T10:36:41Z</time>
      </trkpt>
      <trkpt lat="45.78534" lon="4.9788">
        <ele>232</ele>
        <time>2015-04-26T10:36:43Z</time>
      </trkpt>
      <trkpt lat="45.78531" lon="4.97881">
        <ele>232</ele>
        <time>2015-04-26T10:36:44Z</time>
      </trkpt>
      <trkpt lat="45.78526" lon="4.97884">
        <ele>231</ele>
        <time>2015-04-26T10:36:47Z</time>
      </trkpt>
      <trkpt lat="45.78523" lon="4.97886">
        <ele>231.5</ele>
        <time>2015-04-26T10:36:48Z</time>
      </trkpt>
      <trkpt lat="45.78518" lon="4.97889">
        <ele>231</ele>
        <time>2015-04-26T10:36:51Z</time>
      </trkpt>
      <trkpt lat="45.78516" lon="4.9789">
        <ele>230</ele>
        <time>2015-04-26T10:36:52Z</time>
      </trkpt>
      <trkpt lat="45.78511" lon="4.97892">
        <ele>231</ele>
        <time>2015-04-26T10:36:54Z</time>
      </trkpt>
      <trkpt lat="45.78509" lon="4.97893">
        <ele>231</ele>
        <time>2015-04-26T10:36:55Z</time>
      </trkpt>
      <trkpt lat="45.78505" lon="4.97895">
        <ele>230</ele>
        <time>2015-04-26T10:36:57Z</time>
      </trkpt>
      <trkpt lat="45.78502" lon="4.97896">
        <ele>230</ele>
        <time>2015-04-26T10:36:58Z</time>
      </trkpt>
      <trkpt lat="45.78498" lon="4.97898">
        <ele>231</ele>
        <time>2015-04-26T10:37:00Z</time>
      </trkpt>
      <trkpt lat="45.78496" lon="4.97899">
        <ele>231</ele>
        <time>2015-04-26T10:37:01Z</time>
      </trkpt>
      <trkpt lat="45.78492" lon="4.97901">
        <ele>231</ele>
        <time>2015-04-26T10:37:03Z</time>
      </trkpt>
      <trkpt lat="45.78489" lon="4.97903">
        <ele>230</ele>
        <time>2015-04-26T10:37:04Z</time>
      </trkpt>
      <trkpt lat="45.78484" lon="4.97907">
        <ele>231</ele>
        <time>2015-04-26T10:37:07Z</time>
      </trkpt>
      <trkpt lat="45.78482" lon="4.97909">
        <ele>231</ele>
        <time>2015-04-26T10:37:08Z</time>
      </trkpt>
      <trkpt lat="45.78478" lon="4.97912">
        <ele>231</ele>
        <time>2015-04-26T10:37:10Z</time>
      </trkpt>
      <trkpt lat="45.78476" lon="4.97913">
        <ele>231</ele>
        <time>2015-04-26T10:37:11Z</time>
      </trkpt>
      <trkpt lat="45.78471" lon="4.97916">
        <ele>231</ele>
        <time>2015-04-26T10:37:13Z</time>
      </trkpt>
      <trkpt lat="45.78469" lon="4.97917">
        <ele>231</ele>
        <time>2015-04-26T10:37:14Z</time>
      </trkpt>
      <trkpt lat="45.78465" lon="4.97919">
        <ele>231</ele>
        <time>2015-04-26T10:37:16Z</time>
      </trkpt>
      <trkpt lat="45.78462" lon="4.9792">
        <ele>231</ele>
        <time>2015-04-26T10:37:17Z</time>
      </trkpt>
      <trkpt lat="45.78458" lon="4.97923">
        <ele>231</ele>
        <time>2015-04-26T10:37:19Z</time>
      </trkpt>
      <trkpt lat="45.78455" lon="4.97924">
        <ele>231</ele>
        <time>2015-04-26T10:37:20Z</time>
      </trkpt>
      <trkpt lat="45.78451" lon="4.97926">
        <ele>232</ele>
        <time>2015-04-26T10:37:22Z</time>
      </trkpt>
      <trkpt lat="45.78449" lon="4.97927">
        <ele>231</ele>
        <time>2015-04-26T10:37:23Z</time>
      </trkpt>
      <trkpt lat="45.78444" lon="4.97928">
        <ele>231</ele>
        <time>2015-04-26T10:37:25Z</time>
      </trkpt>
      <trkpt lat="45.78442" lon="4.97929">
        <ele>232</ele>
        <time>2015-04-26T10:37:26Z</time>
      </trkpt>
      <trkpt lat="45.78437" lon="4.97931">
        <ele>232</ele>
        <time>2015-04-26T10:37:28Z</time>
      </trkpt>
      <trkpt lat="45.78434" lon="4.97932">
        <ele>232</ele>
        <time>2015-04-26T10:37:29Z</time>
      </trkpt>
      <trkpt lat="45.7843" lon="4.97933">
        <ele>232</ele>
        <time>2015-04-26T10:37:31Z</time>
      </trkpt>
      <trkpt lat="45.78427" lon="4.97934">
        <ele>232</ele>
        <time>2015-04-26T10:37:32Z</time>
      </trkpt>
      <trkpt lat="45.78423" lon="4.97935">
        <ele>232</ele>
        <time>2015-04-26T10:37:34Z</time>
      </trkpt>
      <trkpt lat="45.78419" lon="4.97936">
        <ele>232</ele>
        <time>2015-04-26T10:37:35Z</time>
      </trkpt>
      <trkpt lat="45.78414" lon="4.97937">
        <ele>232</ele>
        <time>2015-04-26T10:37:38Z</time>
      </trkpt>
      <trkpt lat="45.78411" lon="4.97938">
        <ele>232</ele>
        <time>2015-04-26T10:37:39Z</time>
      </trkpt>
      <trkpt lat="45.78406" lon="4.9794">
        <ele>232</ele>
        <time>2015-04-26T10:37:42Z</time>
      </trkpt>
      <trkpt lat="45.78402" lon="4.97942">
        <ele>232</ele>
        <time>2015-04-26T10:37:43Z</time>
      </trkpt>
      <trkpt lat="45.78397" lon="4.97944">
        <ele>233</ele>
        <time>2015-04-26T10:37:46Z</time>
      </trkpt>
      <trkpt lat="45.78394" lon="4.97946">
        <ele>232</ele>
        <time>2015-04-26T10:37:47Z</time>
      </trkpt>
      <trkpt lat="45.78389" lon="4.97948">
        <ele>232</ele>
        <time>2015-04-26T10:37:50Z</time>
      </trkpt>
      <trkpt lat="45.78386" lon="4.9795">
        <ele>232</ele>
        <time>2015-04-26T10:37:51Z</time>
      </trkpt>
      <trkpt lat="45.78381" lon="4.97953">
        <ele>232</ele>
        <time>2015-04-26T10:37:54Z</time>
      </trkpt>
      <trkpt lat="45.78378" lon="4.97955">
        <ele>232</ele>
        <time>2015-04-26T10:37:55Z</time>
      </trkpt>
      <trkpt lat="45.78373" lon="4.97958">
        <ele>232</ele>
        <time>2015-04-26T10:37:58Z</time>
      </trkpt>
      <trkpt lat="45.7837" lon="4.97959">
        <ele>232.5</ele>
        <time>2015-04-26T10:37:59Z</time>
      </trkpt>
      <trkpt lat="45.78366" lon="4.97956">
        <ele>233</ele>
        <time>2015-04-26T10:38:02Z</time>
      </trkpt>
      <trkpt lat="45.78365" lon="4.9795">
        <ele>233</ele>
        <time>2015-04-26T10:38:04Z</time>
      </trkpt>
      <trkpt lat="45.78365" lon="4.97945">
        <ele>233</ele>
        <time>2015-04-26T10:38:06Z</time>
      </trkpt>
      <trkpt lat="45.78364" lon="4.97939">
        <ele>233</ele>
        <time>2015-04-26T10:38:08Z</time>
      </trkpt>
      <trkpt lat="45.78364" lon="4.97934">
        <ele>233</ele>
        <time>2015-04-26T10:38:10Z</time>
      </trkpt>
      <trkpt lat="45.78364" lon="4.97928">
        <ele>232</ele>
        <time>2015-04-26T10:38:12Z</time>
      </trkpt>
      <trkpt lat="45.78364" lon="4.97922">
        <ele>232</ele>
        <time>2015-04-26T10:38:14Z</time>
      </trkpt>
      <trkpt lat="45.78363" lon="4.97916">
        <ele>232</ele>
        <time>2015-04-26T10:38:16Z</time>
      </trkpt>
      <trkpt lat="45.78363" lon="4.9791">
        <ele>233</ele>
        <time>2015-04-26T10:38:18Z</time>
      </trkpt>
      <trkpt lat="45.78363" lon="4.97904">
        <ele>233</ele>
        <time>2015-04-26T10:38:20Z</time>
      </trkpt>
      <trkpt lat="45.78363" lon="4.97898">
        <ele>233</ele>
        <time>2015-04-26T10:38:22Z</time>
      </trkpt>
      <trkpt lat="45.78363" lon="4.97892">
        <ele>233</ele>
        <time>2015-04-26T10:38:24Z</time>
      </trkpt>
      <trkpt lat="45.78364" lon="4.97886">
        <ele>233</ele>
        <time>2015-04-26T10:38:26Z</time>
      </trkpt>
      <trkpt lat="45.78364" lon="4.97879">
        <ele>233</ele>
        <time>2015-04-26T10:38:28Z</time>
      </trkpt>
      <trkpt lat="45.78364" lon="4.97874">
        <ele>233</ele>
        <time>2015-04-26T10:38:30Z</time>
      </trkpt>
      <trkpt lat="45.78365" lon="4.97868">
        <ele>233</ele>
        <time>2015-04-26T10:38:32Z</time>
      </trkpt>
      <trkpt lat="45.78365" lon="4.97862">
        <ele>233</ele>
        <time>2015-04-26T10:38:34Z</time>
      </trkpt>
      <trkpt lat="45.78365" lon="4.97856">
        <ele>234</ele>
        <time>2015-04-26T10:38:36Z</time>
      </trkpt>
      <trkpt lat="45.78365" lon="4.9785">
        <ele>234</ele>
        <time>2015-04-26T10:38:38Z</time>
      </trkpt>
      <trkpt lat="45.78365" lon="4.97844">
        <ele>234</ele>
        <time>2015-04-26T10:38:40Z</time>
      </trkpt>
      <trkpt lat="45.78365" lon="4.97838">
        <ele>234</ele>
        <time>2015-04-26T10:38:42Z</time>
      </trkpt>
      <trkpt lat="45.78365" lon="4.97832">
        <ele>234</ele>
        <time>2015-04-26T10:38:44Z</time>
      </trkpt>
      <trkpt lat="45.78365" lon="4.97825">
        <ele>234</ele>
        <time>2015-04-26T10:38:46Z</time>
      </trkpt>
      <trkpt lat="45.78364" lon="4.97819">
        <ele>234</ele>
        <time>2015-04-26T10:38:48Z</time>
      </trkpt>
      <trkpt lat="45.78364" lon="4.97815">
        <ele>234</ele>
        <time>2015-04-26T10:38:49Z</time>
      </trkpt>
      <trkpt lat="45.78364" lon="4.97809">
        <ele>234</ele>
        <time>2015-04-26T10:38:51Z</time>
      </trkpt>
      <trkpt lat="45.78363" lon="4.97803">
        <ele>234</ele>
        <time>2015-04-26T10:38:53Z</time>
      </trkpt>
      <trkpt lat="45.78363" lon="4.97799">
        <ele>234</ele>
        <time>2015-04-26T10:38:54Z</time>
      </trkpt>
      <trkpt lat="45.78363" lon="4.97793">
        <ele>234</ele>
        <time>2015-04-26T10:38:56Z</time>
      </trkpt>
      <trkpt lat="45.78363" lon="4.97788">
        <ele>234</ele>
        <time>2015-04-26T10:38:57Z</time>
      </trkpt>
      <trkpt lat="45.78363" lon="4.9778">
        <ele>234</ele>
        <time>2015-04-26T10:39:00Z</time>
      </trkpt>
      <trkpt lat="45.78364" lon="4.97776">
        <ele>233.5</ele>
        <time>2015-04-26T10:39:01Z</time>
      </trkpt>
      <trkpt lat="45.78363" lon="4.97768">
        <ele>234</ele>
        <time>2015-04-26T10:39:04Z</time>
      </trkpt>
      <trkpt lat="45.78363" lon="4.97763">
        <ele>233</ele>
        <time>2015-04-26T10:39:05Z</time>
      </trkpt>
      <trkpt lat="45.78363" lon="4.97755">
        <ele>233</ele>
        <time>2015-04-26T10:39:08Z</time>
      </trkpt>
      <trkpt lat="45.78363" lon="4.97751">
        <ele>233</ele>
        <time>2015-04-26T10:39:09Z</time>
      </trkpt>
      <trkpt lat="45.78364" lon="4.97743">
        <ele>233</ele>
        <time>2015-04-26T10:39:12Z</time>
      </trkpt>
      <trkpt lat="45.78363" lon="4.97738">
        <ele>233</ele>
        <time>2015-04-26T10:39:13Z</time>
      </trkpt>
      <trkpt lat="45.78361" lon="4.97733">
        <ele>233</ele>
        <time>2015-04-26T10:39:16Z</time>
      </trkpt>
      <trkpt lat="45.78358" lon="4.97733">
        <ele>233</ele>
        <time>2015-04-26T10:39:18Z</time>
      </trkpt>
      <trkpt lat="45.78354" lon="4.97734">
        <ele>233</ele>
        <time>2015-04-26T10:39:20Z</time>
      </trkpt>
      <trkpt lat="45.78351" lon="4.97735">
        <ele>233</ele>
        <time>2015-04-26T10:39:22Z</time>
      </trkpt>
      <trkpt lat="45.78348" lon="4.97735">
        <ele>233</ele>
        <time>2015-04-26T10:39:24Z</time>
      </trkpt>
      <trkpt lat="45.78344" lon="4.97735">
        <ele>234</ele>
        <time>2015-04-26T10:39:26Z</time>
      </trkpt>
      <trkpt lat="45.7834" lon="4.97734">
        <ele>234</ele>
        <time>2015-04-26T10:39:28Z</time>
      </trkpt>
      <trkpt lat="45.78336" lon="4.97734">
        <ele>234</ele>
        <time>2015-04-26T10:39:30Z</time>
      </trkpt>
      <trkpt lat="45.78333" lon="4.97734">
        <ele>234</ele>
        <time>2015-04-26T10:39:31Z</time>
      </trkpt>
      <trkpt lat="45.78327" lon="4.97735">
        <ele>234</ele>
        <time>2015-04-26T10:39:34Z</time>
      </trkpt>
      <trkpt lat="45.78324" lon="4.97735">
        <ele>234.5</ele>
        <time>2015-04-26T10:39:35Z</time>
      </trkpt>
      <trkpt lat="45.78319" lon="4.97735">
        <ele>234</ele>
        <time>2015-04-26T10:39:38Z</time>
      </trkpt>
      <trkpt lat="45.78316" lon="4.97734">
        <ele>235</ele>
        <time>2015-04-26T10:39:39Z</time>
      </trkpt>
      <trkpt lat="45.78312" lon="4.97734">
        <ele>235</ele>
        <time>2015-04-26T10:39:41Z</time>
      </trkpt>
      <trkpt lat="45.78309" lon="4.97734">
        <ele>235</ele>
        <time>2015-04-26T10:39:42Z</time>
      </trkpt>
      <trkpt lat="45.78303" lon="4.97734">
        <ele>234</ele>
        <time>2015-04-26T10:39:45Z</time>
      </trkpt>
      <trkpt lat="45.783" lon="4.97734">
        <ele>234</ele>
        <time>2015-04-26T10:39:46Z</time>
      </trkpt>
      <trkpt lat="45.78295" lon="4.97735">
        <ele>234</ele>
        <time>2015-04-26T10:39:49Z</time>
      </trkpt>
      <trkpt lat="45.78291" lon="4.97735">
        <ele>234</ele>
        <time>2015-04-26T10:39:50Z</time>
      </trkpt>
      <trkpt lat="45.78286" lon="4.97735">
        <ele>234</ele>
        <time>2015-04-26T10:39:53Z</time>
      </trkpt>
      <trkpt lat="45.78282" lon="4.97734">
        <ele>234</ele>
        <time>2015-04-26T10:39:54Z</time>
      </trkpt>
      <trkpt lat="45.78277" lon="4.97733">
        <ele>234</ele>
        <time>2015-04-26T10:39:57Z</time>
      </trkpt>
      <trkpt lat="45.78274" lon="4.97732">
        <ele>234</ele>
        <time>2015-04-26T10:39:58Z</time>
      </trkpt>
      <trkpt lat="45.78268" lon="4.9773">
        <ele>234</ele>
        <time>2015-04-26T10:40:01Z</time>
      </trkpt>
      <trkpt lat="45.78265" lon="4.97729">
        <ele>234</ele>
        <time>2015-04-26T10:40:02Z</time>
      </trkpt>
      <trkpt lat="45.78259" lon="4.97728">
        <ele>234</ele>
        <time>2015-04-26T10:40:05Z</time>
      </trkpt>
      <trkpt lat="45.78256" lon="4.97728">
        <ele>234</ele>
        <time>2015-04-26T10:40:06Z</time>
      </trkpt>
      <trkpt lat="45.78251" lon="4.97727">
        <ele>234</ele>
        <time>2015-04-26T10:40:09Z</time>
      </trkpt>
      <trkpt lat="45.78248" lon="4.97727">
        <ele>234</ele>
        <time>2015-04-26T10:40:10Z</time>
      </trkpt>
      <trkpt lat="45.78242" lon="4.97726">
        <ele>234</ele>
        <time>2015-04-26T10:40:13Z</time>
      </trkpt>
      <trkpt lat="45.78239" lon="4.97727">
        <ele>233.5</ele>
        <time>2015-04-26T10:40:14Z</time>
      </trkpt>
      <trkpt lat="45.78234" lon="4.97728">
        <ele>233</ele>
        <time>2015-04-26T10:40:17Z</time>
      </trkpt>
      <trkpt lat="45.78231" lon="4.97728">
        <ele>233</ele>
        <time>2015-04-26T10:40:18Z</time>
      </trkpt>
      <trkpt lat="45.78226" lon="4.97729">
        <ele>233</ele>
        <time>2015-04-26T10:40:21Z</time>
      </trkpt>
      <trkpt lat="45.78224" lon="4.9773">
        <ele>233</ele>
        <time>2015-04-26T10:40:22Z</time>
      </trkpt>
      <trkpt lat="45.78219" lon="4.97732">
        <ele>233</ele>
        <time>2015-04-26T10:40:25Z</time>
      </trkpt>
      <trkpt lat="45.78216" lon="4.97732">
        <ele>233</ele>
        <time>2015-04-26T10:40:26Z</time>
      </trkpt>
      <trkpt lat="45.78211" lon="4.97734">
        <ele>233</ele>
        <time>2015-04-26T10:40:29Z</time>
      </trkpt>
      <trkpt lat="45.78208" lon="4.97735">
        <ele>233</ele>
        <time>2015-04-26T10:40:30Z</time>
      </trkpt>
      <trkpt lat="45.78203" lon="4.97736">
        <ele>233</ele>
        <time>2015-04-26T10:40:33Z</time>
      </trkpt>
      <trkpt lat="45.782" lon="4.97737">
        <ele>233</ele>
        <time>2015-04-26T10:40:34Z</time>
      </trkpt>
      <trkpt lat="45.78195" lon="4.97737">
        <ele>233</ele>
        <time>2015-04-26T10:40:37Z</time>
      </trkpt>
      <trkpt lat="45.78192" lon="4.97737">
        <ele>233</ele>
        <time>2015-04-26T10:40:38Z</time>
      </trkpt>
      <trkpt lat="45.78186" lon="4.97736">
        <ele>232</ele>
        <time>2015-04-26T10:40:41Z</time>
      </trkpt>
      <trkpt lat="45.78183" lon="4.97735">
        <ele>232</ele>
        <time>2015-04-26T10:40:42Z</time>
      </trkpt>
      <trkpt lat="45.78177" lon="4.97734">
        <ele>232</ele>
        <time>2015-04-26T10:40:45Z</time>
      </trkpt>
      <trkpt lat="45.78174" lon="4.97733">
        <ele>232</ele>
        <time>2015-04-26T10:40:46Z</time>
      </trkpt>
      <trkpt lat="45.78169" lon="4.97732">
        <ele>232</ele>
        <time>2015-04-26T10:40:49Z</time>
      </trkpt>
      <trkpt lat="45.78166" lon="4.97732">
        <ele>232</ele>
        <time>2015-04-26T10:40:50Z</time>
      </trkpt>
      <trkpt lat="45.78161" lon="4.97732">
        <ele>232</ele>
        <time>2015-04-26T10:40:53Z</time>
      </trkpt>
      <trkpt lat="45.78158" lon="4.97733">
        <ele>232</ele>
        <time>2015-04-26T10:40:54Z</time>
      </trkpt>
      <trkpt lat="45.78153" lon="4.97734">
        <ele>232</ele>
        <time>2015-04-26T10:40:57Z</time>
      </trkpt>
      <trkpt lat="45.7815" lon="4.97734">
        <ele>231.5</ele>
        <time>2015-04-26T10:40:58Z</time>
      </trkpt>
      <trkpt lat="45.78145" lon="4.97735">
        <ele>231</ele>
        <time>2015-04-26T10:41:01Z</time>
      </trkpt>
      <trkpt lat="45.78142" lon="4.97735">
        <ele>232</ele>
        <time>2015-04-26T10:41:02Z</time>
      </trkpt>
      <trkpt lat="45.78137" lon="4.97735">
        <ele>232</ele>
        <time>2015-04-26T10:41:05Z</time>
      </trkpt>
      <trkpt lat="45.78134" lon="4.97735">
        <ele>232</ele>
        <time>2015-04-26T10:41:06Z</time>
      </trkpt>
      <trkpt lat="45.78128" lon="4.97737">
        <ele>232</ele>
        <time>2015-04-26T10:41:09Z</time>
      </trkpt>
      <trkpt lat="45.78125" lon="4.97737">
        <ele>232</ele>
        <time>2015-04-26T10:41:10Z</time>
      </trkpt>
      <trkpt lat="45.7812" lon="4.97739">
        <ele>232</ele>
        <time>2015-04-26T10:41:13Z</time>
      </trkpt>
      <trkpt lat="45.78117" lon="4.97739">
        <ele>232</ele>
        <time>2015-04-26T10:41:14Z</time>
      </trkpt>
      <trkpt lat="45.78112" lon="4.97741">
        <ele>232</ele>
        <time>2015-04-26T10:41:17Z</time>
      </trkpt>
      <trkpt lat="45.78109" lon="4.97741">
        <ele>232</ele>
        <time>2015-04-26T10:41:18Z</time>
      </trkpt>
      <trkpt lat="45.78103" lon="4.97742">
        <ele>233</ele>
        <time>2015-04-26T10:41:21Z</time>
      </trkpt>
      <trkpt lat="45.781" lon="4.97741">
        <ele>232</ele>
        <time>2015-04-26T10:41:22Z</time>
      </trkpt>
      <trkpt lat="45.78094" lon="4.97739">
        <ele>233</ele>
        <time>2015-04-26T10:41:25Z</time>
      </trkpt>
      <trkpt lat="45.78091" lon="4.97738">
        <ele>232</ele>
        <time>2015-04-26T10:41:26Z</time>
      </trkpt>
      <trkpt lat="45.78086" lon="4.97738">
        <ele>232</ele>
        <time>2015-04-26T10:41:29Z</time>
      </trkpt>
      <trkpt lat="45.78083" lon="4.97736">
        <ele>232</ele>
        <time>2015-04-26T10:41:30Z</time>
      </trkpt>
      <trkpt lat="45.7808" lon="4.97731">
        <ele>232</ele>
        <time>2015-04-26T10:41:33Z</time>
      </trkpt>
      <trkpt lat="45.7808" lon="4.97727">
        <ele>232</ele>
        <time>2015-04-26T10:41:34Z</time>
      </trkpt>
      <trkpt lat="45.78081" lon="4.97721">
        <ele>232</ele>
        <time>2015-04-26T10:41:37Z</time>
      </trkpt>
      <trkpt lat="45.78081" lon="4.97716">
        <ele>232</ele>
        <time>2015-04-26T10:41:39Z</time>
      </trkpt>
      <trkpt lat="45.78081" lon="4.97711">
        <ele>232</ele>
        <time>2015-04-26T10:41:41Z</time>
      </trkpt>
      <trkpt lat="45.78081" lon="4.97705">
        <ele>233</ele>
        <time>2015-04-26T10:41:43Z</time>
      </trkpt>
      <trkpt lat="45.7808" lon="4.97699">
        <ele>233</ele>
        <time>2015-04-26T10:41:45Z</time>
      </trkpt>
      <trkpt lat="45.7808" lon="4.97693">
        <ele>233</ele>
        <time>2015-04-26T10:41:47Z</time>
      </trkpt>
      <trkpt lat="45.7808" lon="4.97687">
        <ele>233</ele>
        <time>2015-04-26T10:41:49Z</time>
      </trkpt>
      <trkpt lat="45.78079" lon="4.9768">
        <ele>233</ele>
        <time>2015-04-26T10:41:51Z</time>
      </trkpt>
      <trkpt lat="45.78079" lon="4.97674">
        <ele>233</ele>
        <time>2015-04-26T10:41:53Z</time>
      </trkpt>
      <trkpt lat="45.78079" lon="4.97671">
        <ele>233</ele>
        <time>2015-04-26T10:41:54Z</time>
      </trkpt>
      <trkpt lat="45.78078" lon="4.97664">
        <ele>233</ele>
        <time>2015-04-26T10:41:56Z</time>
      </trkpt>
      <trkpt lat="45.78078" lon="4.97661">
        <ele>233</ele>
        <time>2015-04-26T10:41:57Z</time>
      </trkpt>
      <trkpt lat="45.78077" lon="4.97654">
        <ele>233</ele>
        <time>2015-04-26T10:41:59Z</time>
      </trkpt>
      <trkpt lat="45.78077" lon="4.97651">
        <ele>233</ele>
        <time>2015-04-26T10:42:00Z</time>
      </trkpt>
      <trkpt lat="45.78076" lon="4.97644">
        <ele>233</ele>
        <time>2015-04-26T10:42:02Z</time>
      </trkpt>
      <trkpt lat="45.78076" lon="4.97641">
        <ele>233</ele>
        <time>2015-04-26T10:42:03Z</time>
      </trkpt>
      <trkpt lat="45.78076" lon="4.97634">
        <ele>233</ele>
        <time>2015-04-26T10:42:05Z</time>
      </trkpt>
      <trkpt lat="45.78076" lon="4.97631">
        <ele>233</ele>
        <time>2015-04-26T10:42:06Z</time>
      </trkpt>
      <trkpt lat="45.78076" lon="4.97624">
        <ele>232</ele>
        <time>2015-04-26T10:42:08Z</time>
      </trkpt>
      <trkpt lat="45.78076" lon="4.97621">
        <ele>232</ele>
        <time>2015-04-26T10:42:09Z</time>
      </trkpt>
      <trkpt lat="45.78076" lon="4.97614">
        <ele>232</ele>
        <time>2015-04-26T10:42:11Z</time>
      </trkpt>
      <trkpt lat="45.78075" lon="4.97611">
        <ele>232</ele>
        <time>2015-04-26T10:42:12Z</time>
      </trkpt>
      <trkpt lat="45.78074" lon="4.97604">
        <ele>232</ele>
        <time>2015-04-26T10:42:14Z</time>
      </trkpt>
      <trkpt lat="45.78074" lon="4.97601">
        <ele>232</ele>
        <time>2015-04-26T10:42:15Z</time>
      </trkpt>
      <trkpt lat="45.78073" lon="4.97594">
        <ele>232</ele>
        <time>2015-04-26T10:42:17Z</time>
      </trkpt>
      <trkpt lat="45.78073" lon="4.97591">
        <ele>232</ele>
        <time>2015-04-26T10:42:18Z</time>
      </trkpt>
      <trkpt lat="45.78071" lon="4.97585">
        <ele>232</ele>
        <time>2015-04-26T10:42:20Z</time>
      </trkpt>
      <trkpt lat="45.78069" lon="4.9758">
        <ele>232</ele>
        <time>2015-04-26T10:42:21Z</time>
      </trkpt>
      <trkpt lat="45.78068" lon="4.97573">
        <ele>233</ele>
        <time>2015-04-26T10:42:24Z</time>
      </trkpt>
      <trkpt lat="45.78067" lon="4.97568">
        <ele>233</ele>
        <time>2015-04-26T10:42:25Z</time>
      </trkpt>
      <trkpt lat="45.78066" lon="4.97561">
        <ele>233</ele>
        <time>2015-04-26T10:42:28Z</time>
      </trkpt>
      <trkpt lat="45.78066" lon="4.97556">
        <ele>233</ele>
        <time>2015-04-26T10:42:29Z</time>
      </trkpt>
      <trkpt lat="45.78065" lon="4.97548">
        <ele>232</ele>
        <time>2015-04-26T10:42:32Z</time>
      </trkpt>
      <trkpt lat="45.78065" lon="4.97544">
        <ele>232</ele>
        <time>2015-04-26T10:42:33Z</time>
      </trkpt>
      <trkpt lat="45.78063" lon="4.97536">
        <ele>233</ele>
        <time>2015-04-26T10:42:36Z</time>
      </trkpt>
      <trkpt lat="45.78061" lon="4.97532">
        <ele>233</ele>
        <time>2015-04-26T10:42:37Z</time>
      </trkpt>
      <trkpt lat="45.7806" lon="4.97524">
        <ele>233</ele>
        <time>2015-04-26T10:42:40Z</time>
      </trkpt>
      <trkpt lat="45.78058" lon="4.9752">
        <ele>233</ele>
        <time>2015-04-26T10:42:41Z</time>
      </trkpt>
      <trkpt lat="45.78055" lon="4.97514">
        <ele>233</ele>
        <time>2015-04-26T10:42:44Z</time>
      </trkpt>
      <trkpt lat="45.78053" lon="4.9751">
        <ele>233</ele>
        <time>2015-04-26T10:42:45Z</time>
      </trkpt>
      <trkpt lat="45.78051" lon="4.97503">
        <ele>233</ele>
        <time>2015-04-26T10:42:48Z</time>
      </trkpt>
      <trkpt lat="45.7805" lon="4.97498">
        <ele>234</ele>
        <time>2015-04-26T10:42:49Z</time>
      </trkpt>
      <trkpt lat="45.78048" lon="4.97491">
        <ele>234</ele>
        <time>2015-04-26T10:42:52Z</time>
      </trkpt>
      <trkpt lat="45.78048" lon="4.97486">
        <ele>234</ele>
        <time>2015-04-26T10:42:53Z</time>
      </trkpt>
      <trkpt lat="45.78047" lon="4.97479">
        <ele>234</ele>
        <time>2015-04-26T10:42:56Z</time>
      </trkpt>
      <trkpt lat="45.78046" lon="4.97474">
        <ele>235</ele>
        <time>2015-04-26T10:42:57Z</time>
      </trkpt>
      <trkpt lat="45.78045" lon="4.97467">
        <ele>235</ele>
        <time>2015-04-26T10:43:00Z</time>
      </trkpt>
      <trkpt lat="45.78045" lon="4.97462">
        <ele>235</ele>
        <time>2015-04-26T10:43:01Z</time>
      </trkpt>
      <trkpt lat="45.78044" lon="4.97455">
        <ele>235</ele>
        <time>2015-04-26T10:43:04Z</time>
      </trkpt>
      <trkpt lat="45.78044" lon="4.97451">
        <ele>235</ele>
        <time>2015-04-26T10:43:05Z</time>
      </trkpt>
      <trkpt lat="45.78043" lon="4.97444">
        <ele>234</ele>
        <time>2015-04-26T10:43:08Z</time>
      </trkpt>
      <trkpt lat="45.78043" lon="4.9744">
        <ele>234</ele>
        <time>2015-04-26T10:43:09Z</time>
      </trkpt>
      <trkpt lat="45.78043" lon="4.97433">
        <ele>234</ele>
        <time>2015-04-26T10:43:12Z</time>
      </trkpt>
      <trkpt lat="45.78042" lon="4.97428">
        <ele>234</ele>
        <time>2015-04-26T10:43:13Z</time>
      </trkpt>
      <trkpt lat="45.78042" lon="4.97421">
        <ele>234</ele>
        <time>2015-04-26T10:43:16Z</time>
      </trkpt>
      <trkpt lat="45.78042" lon="4.97417">
        <ele>233</ele>
        <time>2015-04-26T10:43:17Z</time>
      </trkpt>
      <trkpt lat="45.78042" lon="4.9741">
        <ele>234</ele>
        <time>2015-04-26T10:43:20Z</time>
      </trkpt>
      <trkpt lat="45.78042" lon="4.97406">
        <ele>234</ele>
        <time>2015-04-26T10:43:21Z</time>
      </trkpt>
      <trkpt lat="45.78042" lon="4.97399">
        <ele>233</ele>
        <time>2015-04-26T10:43:24Z</time>
      </trkpt>
      <trkpt lat="45.78042" lon="4.97395">
        <ele>233</ele>
        <time>2015-04-26T10:43:25Z</time>
      </trkpt>
      <trkpt lat="45.78042" lon="4.97389">
        <ele>233</ele>
        <time>2015-04-26T10:43:28Z</time>
      </trkpt>
      <trkpt lat="45.78041" lon="4.97384">
        <ele>233</ele>
        <time>2015-04-26T10:43:30Z</time>
      </trkpt>
      <trkpt lat="45.78041" lon="4.97378">
        <ele>233</ele>
        <time>2015-04-26T10:43:32Z</time>
      </trkpt>
      <trkpt lat="45.78039" lon="4.97374">
        <ele>233</ele>
        <time>2015-04-26T10:43:34Z</time>
      </trkpt>
      <trkpt lat="45.78038" lon="4.97369">
        <ele>233</ele>
        <time>2015-04-26T10:43:36Z</time>
      </trkpt>
      <trkpt lat="45.78037" lon="4.97364">
        <ele>233</ele>
        <time>2015-04-26T10:43:38Z</time>
      </trkpt>
      <trkpt lat="45.78035" lon="4.9736">
        <ele>233</ele>
        <time>2015-04-26T10:43:40Z</time>
      </trkpt>
      <trkpt lat="45.78033" lon="4.97355">
        <ele>233</ele>
        <time>2015-04-26T10:43:42Z</time>
      </trkpt>
      <trkpt lat="45.78032" lon="4.9735">
        <ele>234</ele>
        <time>2015-04-26T10:43:44Z</time>
      </trkpt>
      <trkpt lat="45.7803" lon="4.97345">
        <ele>233</ele>
        <time>2015-04-26T10:43:46Z</time>
      </trkpt>
      <trkpt lat="45.78029" lon="4.97339">
        <ele>233</ele>
        <time>2015-04-26T10:43:48Z</time>
      </trkpt>
      <trkpt lat="45.78027" lon="4.97334">
        <ele>233</ele>
        <time>2015-04-26T10:43:50Z</time>
      </trkpt>
      <trkpt lat="45.78026" lon="4.97329">
        <ele>233</ele>
        <time>2015-04-26T10:43:52Z</time>
      </trkpt>
      <trkpt lat="45.78024" lon="4.97324">
        <ele>233</ele>
        <time>2015-04-26T10:43:54Z</time>
      </trkpt>
      <trkpt lat="45.78022" lon="4.97319">
        <ele>233</ele>
        <time>2015-04-26T10:43:56Z</time>
      </trkpt>
      <trkpt lat="45.7802" lon="4.97314">
        <ele>233</ele>
        <time>2015-04-26T10:43:58Z</time>
      </trkpt>
      <trkpt lat="45.78018" lon="4.9731">
        <ele>233</ele>
        <time>2015-04-26T10:44:00Z</time>
      </trkpt>
      <trkpt lat="45.78014" lon="4.97311">
        <ele>233</ele>
        <time>2015-04-26T10:44:02Z</time>
      </trkpt>
      <trkpt lat="45.78011" lon="4.97313">
        <ele>233</ele>
        <time>2015-04-26T10:44:05Z</time>
      </trkpt>
      <trkpt lat="45.78008" lon="4.97315">
        <ele>233</ele>
        <time>2015-04-26T10:44:07Z</time>
      </trkpt>
      <trkpt lat="45.78004" lon="4.97316">
        <ele>233</ele>
        <time>2015-04-26T10:44:09Z</time>
      </trkpt>
      <trkpt lat="45.78" lon="4.97317">
        <ele>233</ele>
        <time>2015-04-26T10:44:11Z</time>
      </trkpt>
      <trkpt lat="45.77995" lon="4.97318">
        <ele>233</ele>
        <time>2015-04-26T10:44:13Z</time>
      </trkpt>
      <trkpt lat="45.77991" lon="4.97319">
        <ele>232</ele>
        <time>2015-04-26T10:44:15Z</time>
      </trkpt>
      <trkpt lat="45.77987" lon="4.97321">
        <ele>232</ele>
        <time>2015-04-26T10:44:17Z</time>
      </trkpt>
      <trkpt lat="45.77984" lon="4.97323">
        <ele>232</ele>
        <time>2015-04-26T10:44:19Z</time>
      </trkpt>
      <trkpt lat="45.7798" lon="4.97325">
        <ele>232</ele>
        <time>2015-04-26T10:44:21Z</time>
      </trkpt>
      <trkpt lat="45.77977" lon="4.97327">
        <ele>232</ele>
        <time>2015-04-26T10:44:23Z</time>
      </trkpt>
      <trkpt lat="45.77974" lon="4.97329">
        <ele>232</ele>
        <time>2015-04-26T10:44:25Z</time>
      </trkpt>
      <trkpt lat="45.77971" lon="4.97331">
        <ele>231</ele>
        <time>2015-04-26T10:44:27Z</time>
      </trkpt>
      <trkpt lat="45.77968" lon="4.97332">
        <ele>231</ele>
        <time>2015-04-26T10:44:29Z</time>
      </trkpt>
      <trkpt lat="45.77965" lon="4.97335">
        <ele>231</ele>
        <time>2015-04-26T10:44:31Z</time>
      </trkpt>
      <trkpt lat="45.77962" lon="4.97337">
        <ele>231</ele>
        <time>2015-04-26T10:44:34Z</time>
      </trkpt>
      <trkpt lat="45.77959" lon="4.9734">
        <ele>230</ele>
        <time>2015-04-26T10:44:36Z</time>
      </trkpt>
      <trkpt lat="45.77955" lon="4.97342">
        <ele>229</ele>
        <time>2015-04-26T10:44:39Z</time>
      </trkpt>
      <trkpt lat="45.77952" lon="4.97344">
        <ele>229</ele>
        <time>2015-04-26T10:44:41Z</time>
      </trkpt>
      <trkpt lat="45.7795" lon="4.97347">
        <ele>230</ele>
        <time>2015-04-26T10:44:44Z</time>
      </trkpt>
      <trkpt lat="45.77948" lon="4.97351">
        <ele>230.5</ele>
        <time>2015-04-26T10:44:46Z</time>
      </trkpt>
      <trkpt lat="45.77945" lon="4.97354">
        <ele>230</ele>
        <time>2015-04-26T10:44:49Z</time>
      </trkpt>
      <trkpt lat="45.77942" lon="4.97357">
        <ele>230</ele>
        <time>2015-04-26T10:44:52Z</time>
      </trkpt>
      <trkpt lat="45.77939" lon="4.9736">
        <ele>230</ele>
        <time>2015-04-26T10:44:55Z</time>
      </trkpt>
      <trkpt lat="45.77937" lon="4.97363">
        <ele>230</ele>
        <time>2015-04-26T10:44:58Z</time>
      </trkpt>
      <trkpt lat="45.77934" lon="4.97367">
        <ele>230</ele>
        <time>2015-04-26T10:45:00Z</time>
      </trkpt>
      <trkpt lat="45.77931" lon="4.9737">
        <ele>230</ele>
        <time>2015-04-26T10:45:03Z</time>
      </trkpt>
      <trkpt lat="45.77929" lon="4.97372">
        <ele>230</ele>
        <time>2015-04-26T10:45:05Z</time>
      </trkpt>
      <trkpt lat="45.77926" lon="4.97375">
        <ele>230</ele>
        <time>2015-04-26T10:45:07Z</time>
      </trkpt>
      <trkpt lat="45.77923" lon="4.97377">
        <ele>230</ele>
        <time>2015-04-26T10:45:09Z</time>
      </trkpt>
      <trkpt lat="45.77919" lon="4.97379">
        <ele>230</ele>
        <time>2015-04-26T10:45:11Z</time>
      </trkpt>
      <trkpt lat="45.77916" lon="4.97381">
        <ele>231</ele>
        <time>2015-04-26T10:45:13Z</time>
      </trkpt>
      <trkpt lat="45.77913" lon="4.97383">
        <ele>231</ele>
        <time>2015-04-26T10:45:15Z</time>
      </trkpt>
      <trkpt lat="45.7791" lon="4.97386">
        <ele>232</ele>
        <time>2015-04-26T10:45:17Z</time>
      </trkpt>
      <trkpt lat="45.77909" lon="4.97389">
        <ele>232</ele>
        <time>2015-04-26T10:45:19Z</time>
      </trkpt>
      <trkpt lat="45.77909" lon="4.97394">
        <ele>233</ele>
        <time>2015-04-26T10:45:21Z</time>
      </trkpt>
      <trkpt lat="45.77912" lon="4.97398">
        <ele>233</ele>
        <time>2015-04-26T10:45:23Z</time>
      </trkpt>
      <trkpt lat="45.77916" lon="4.97401">
        <ele>233</ele>
        <time>2015-04-26T10:45:25Z</time>
      </trkpt>
      <trkpt lat="45.7792" lon="4.97404">
        <ele>234</ele>
        <time>2015-04-26T10:45:27Z</time>
      </trkpt>
      <trkpt lat="45.77924" lon="4.97406">
        <ele>233</ele>
        <time>2015-04-26T10:45:29Z</time>
      </trkpt>
      <trkpt lat="45.77927" lon="4.97408">
        <ele>233</ele>
        <time>2015-04-26T10:45:31Z</time>
      </trkpt>
      <trkpt lat="45.77931" lon="4.97409">
        <ele>233</ele>
        <time>2015-04-26T10:45:33Z</time>
      </trkpt>
      <trkpt lat="45.77934" lon="4.97409">
        <ele>233</ele>
        <time>2015-04-26T10:45:35Z</time>
      </trkpt>
      <trkpt lat="45.77937" lon="4.97409">
        <ele>233</ele>
        <time>2015-04-26T10:45:37Z</time>
      </trkpt>
      <trkpt lat="45.77941" lon="4.97409">
        <ele>233</ele>
        <time>2015-04-26T10:45:39Z</time>
      </trkpt>
      <trkpt lat="45.77945" lon="4.97409">
        <ele>233</ele>
        <time>2015-04-26T10:45:42Z</time>
      </trkpt>
      <trkpt lat="45.77948" lon="4.97409">
        <ele>232</ele>
        <time>2015-04-26T10:45:44Z</time>
      </trkpt>
      <trkpt lat="45.77952" lon="4.9741">
        <ele>233</ele>
        <time>2015-04-26T10:45:47Z</time>
      </trkpt>
      <trkpt lat="45.77955" lon="4.97411">
        <ele>233</ele>
        <time>2015-04-26T10:45:49Z</time>
      </trkpt>
      <trkpt lat="45.77958" lon="4.97412">
        <ele>232</ele>
        <time>2015-04-26T10:45:52Z</time>
      </trkpt>
      <trkpt lat="45.77961" lon="4.97412">
        <ele>232</ele>
        <time>2015-04-26T10:45:54Z</time>
      </trkpt>
      <trkpt lat="45.77964" lon="4.97412">
        <ele>232</ele>
        <time>2015-04-26T10:45:57Z</time>
      </trkpt>
      <trkpt lat="45.77968" lon="4.97412">
        <ele>232</ele>
        <time>2015-04-26T10:45:59Z</time>
      </trkpt>
      <trkpt lat="45.77971" lon="4.97412">
        <ele>232</ele>
        <time>2015-04-26T10:46:02Z</time>
      </trkpt>
      <trkpt lat="45.77974" lon="4.97412">
        <ele>232</ele>
        <time>2015-04-26T10:46:04Z</time>
      </trkpt>
      <trkpt lat="45.77978" lon="4.97413">
        <ele>233</ele>
        <time>2015-04-26T10:46:06Z</time>
      </trkpt>
      <trkpt lat="45.77981" lon="4.97414">
        <ele>233</ele>
        <time>2015-04-26T10:46:08Z</time>
      </trkpt>
      <trkpt lat="45.77984" lon="4.97414">
        <ele>233</ele>
        <time>2015-04-26T10:46:10Z</time>
      </trkpt>
      <trkpt lat="45.77988" lon="4.97414">
        <ele>233</ele>
        <time>2015-04-26T10:46:12Z</time>
      </trkpt>
      <trkpt lat="45.77991" lon="4.97415">
        <ele>233</ele>
        <time>2015-04-26T10:46:14Z</time>
      </trkpt>
      <trkpt lat="45.77995" lon="4.97415">
        <ele>233</ele>
        <time>2015-04-26T10:46:16Z</time>
      </trkpt>
      <trkpt lat="45.77999" lon="4.97416">
        <ele>234</ele>
        <time>2015-04-26T10:46:18Z</time>
      </trkpt>
      <trkpt lat="45.78002" lon="4.97417">
        <ele>234</ele>
        <time>2015-04-26T10:46:20Z</time>
      </trkpt>
      <trkpt lat="45.78006" lon="4.97417">
        <ele>234</ele>
        <time>2015-04-26T10:46:22Z</time>
      </trkpt>
      <trkpt lat="45.78009" lon="4.97418">
        <ele>234</ele>
        <time>2015-04-26T10:46:24Z</time>
      </trkpt>
      <trkpt lat="45.78013" lon="4.97419">
        <ele>234</ele>
        <time>2015-04-26T10:46:26Z</time>
      </trkpt>
      <trkpt lat="45.78017" lon="4.9742">
        <ele>234</ele>
        <time>2015-04-26T10:46:28Z</time>
      </trkpt>
      <trkpt lat="45.78021" lon="4.97421">
        <ele>234</ele>
        <time>2015-04-26T10:46:30Z</time>
      </trkpt>
      <trkpt lat="45.78025" lon="4.97421">
        <ele>234</ele>
        <time>2015-04-26T10:46:32Z</time>
      </trkpt>
      <trkpt lat="45.78029" lon="4.97422">
        <ele>234</ele>
        <time>2015-04-26T10:46:34Z</time>
      </trkpt>
      <trkpt lat="45.78032" lon="4.97423">
        <ele>234</ele>
        <time>2015-04-26T10:46:36Z</time>
      </trkpt>
      <trkpt lat="45.78036" lon="4.97424">
        <ele>234</ele>
        <time>2015-04-26T10:46:38Z</time>
      </trkpt>
      <trkpt lat="45.78039" lon="4.97424">
        <ele>234</ele>
        <time>2015-04-26T10:46:40Z</time>
      </trkpt>
      <trkpt lat="45.78043" lon="4.97425">
        <ele>234</ele>
        <time>2015-04-26T10:46:42Z</time>
      </trkpt>
      <trkpt lat="45.78046" lon="4.97425">
        <ele>234</ele>
        <time>2015-04-26T10:46:44Z</time>
      </trkpt>
      <trkpt lat="45.78049" lon="4.97426">
        <ele>235</ele>
        <time>2015-04-26T10:46:46Z</time>
      </trkpt>
      <trkpt lat="45.78052" lon="4.97426">
        <ele>235</ele>
        <time>2015-04-26T10:46:48Z</time>
      </trkpt>
      <trkpt lat="45.78056" lon="4.97427">
        <ele>235</ele>
        <time>2015-04-26T10:46:50Z</time>
      </trkpt>
      <trkpt lat="45.78059" lon="4.97427">
        <ele>235</ele>
        <time>2015-04-26T10:46:52Z</time>
      </trkpt>
      <trkpt lat="45.78062" lon="4.97428">
        <ele>235</ele>
        <time>2015-04-26T10:46:54Z</time>
      </trkpt>
      <trkpt lat="45.78065" lon="4.97429">
        <ele>235</ele>
        <time>2015-04-26T10:46:56Z</time>
      </trkpt>
      <trkpt lat="45.78069" lon="4.9743">
        <ele>235</ele>
        <time>2015-04-26T10:46:59Z</time>
      </trkpt>
      <trkpt lat="45.78072" lon="4.97431">
        <ele>235</ele>
        <time>2015-04-26T10:47:01Z</time>
      </trkpt>
      <trkpt lat="45.78075" lon="4.97432">
        <ele>235</ele>
        <time>2015-04-26T10:47:04Z</time>
      </trkpt>
      <trkpt lat="45.78079" lon="4.97433">
        <ele>235</ele>
        <time>2015-04-26T10:47:06Z</time>
      </trkpt>
      <trkpt lat="45.78082" lon="4.97433">
        <ele>235</ele>
        <time>2015-04-26T10:47:09Z</time>
      </trkpt>
      <trkpt lat="45.78085" lon="4.97433">
        <ele>235</ele>
        <time>2015-04-26T10:47:11Z</time>
      </trkpt>
      <trkpt lat="45.78089" lon="4.97433">
        <ele>235</ele>
        <time>2015-04-26T10:47:14Z</time>
      </trkpt>
      <trkpt lat="45.78093" lon="4.97433">
        <ele>235</ele>
        <time>2015-04-26T10:47:16Z</time>
      </trkpt>
      <trkpt lat="45.78098" lon="4.97434">
        <ele>235</ele>
        <time>2015-04-26T10:47:18Z</time>
      </trkpt>
      <trkpt lat="45.78103" lon="4.97434">
        <ele>235</ele>
        <time>2015-04-26T10:47:20Z</time>
      </trkpt>
      <trkpt lat="45.78105" lon="4.97434">
        <ele>235</ele>
        <time>2015-04-26T10:47:21Z</time>
      </trkpt>
      <trkpt lat="45.7811" lon="4.97434">
        <ele>235</ele>
        <time>2015-04-26T10:47:23Z</time>
      </trkpt>
      <trkpt lat="45.78112" lon="4.97434">
        <ele>235</ele>
        <time>2015-04-26T10:47:24Z</time>
      </trkpt>
      <trkpt lat="45.78117" lon="4.97436">
        <ele>235</ele>
        <time>2015-04-26T10:47:26Z</time>
      </trkpt>
      <trkpt lat="45.78119" lon="4.97436">
        <ele>234</ele>
        <time>2015-04-26T10:47:27Z</time>
      </trkpt>
      <trkpt lat="45.78124" lon="4.97437">
        <ele>234</ele>
        <time>2015-04-26T10:47:29Z</time>
      </trkpt>
      <trkpt lat="45.78126" lon="4.97437">
        <ele>234</ele>
        <time>2015-04-26T10:47:30Z</time>
      </trkpt>
      <trkpt lat="45.78131" lon="4.97438">
        <ele>234</ele>
        <time>2015-04-26T10:47:32Z</time>
      </trkpt>
      <trkpt lat="45.78134" lon="4.97439">
        <ele>234</ele>
        <time>2015-04-26T10:47:33Z</time>
      </trkpt>
      <trkpt lat="45.78138" lon="4.9744">
        <ele>234</ele>
        <time>2015-04-26T10:47:35Z</time>
      </trkpt>
      <trkpt lat="45.78141" lon="4.97441">
        <ele>234</ele>
        <time>2015-04-26T10:47:36Z</time>
      </trkpt>
      <trkpt lat="45.78145" lon="4.97442">
        <ele>234</ele>
        <time>2015-04-26T10:47:38Z</time>
      </trkpt>
      <trkpt lat="45.78147" lon="4.97443">
        <ele>234</ele>
        <time>2015-04-26T10:47:39Z</time>
      </trkpt>
      <trkpt lat="45.78152" lon="4.97444">
        <ele>234</ele>
        <time>2015-04-26T10:47:41Z</time>
      </trkpt>
      <trkpt lat="45.78155" lon="4.97445">
        <ele>234.5</ele>
        <time>2015-04-26T10:47:42Z</time>
      </trkpt>
      <trkpt lat="45.7816" lon="4.97446">
        <ele>234</ele>
        <time>2015-04-26T10:47:45Z</time>
      </trkpt>
      <trkpt lat="45.78163" lon="4.97447">
        <ele>234</ele>
        <time>2015-04-26T10:47:46Z</time>
      </trkpt>
      <trkpt lat="45.78169" lon="4.97448">
        <ele>234</ele>
        <time>2015-04-26T10:47:49Z</time>
      </trkpt>
      <trkpt lat="45.78172" lon="4.97449">
        <ele>233</ele>
        <time>2015-04-26T10:47:50Z</time>
      </trkpt>
      <trkpt lat="45.78177" lon="4.9745">
        <ele>233</ele>
        <time>2015-04-26T10:47:53Z</time>
      </trkpt>
      <trkpt lat="45.7818" lon="4.97451">
        <ele>233.5</ele>
        <time>2015-04-26T10:47:54Z</time>
      </trkpt>
      <trkpt lat="45.78185" lon="4.97452">
        <ele>233</ele>
        <time>2015-04-26T10:47:57Z</time>
      </trkpt>
      <trkpt lat="45.78188" lon="4.97453">
        <ele>233</ele>
        <time>2015-04-26T10:47:58Z</time>
      </trkpt>
      <trkpt lat="45.78193" lon="4.97454">
        <ele>233</ele>
        <time>2015-04-26T10:48:01Z</time>
      </trkpt>
      <trkpt lat="45.78196" lon="4.97455">
        <ele>233</ele>
        <time>2015-04-26T10:48:02Z</time>
      </trkpt>
      <trkpt lat="45.782" lon="4.97457">
        <ele>233</ele>
        <time>2015-04-26T10:48:05Z</time>
      </trkpt>
      <trkpt lat="45.78203" lon="4.97458">
        <ele>233</ele>
        <time>2015-04-26T10:48:07Z</time>
      </trkpt>
      <trkpt lat="45.78206" lon="4.97458">
        <ele>233</ele>
        <time>2015-04-26T10:48:09Z</time>
      </trkpt>
      <trkpt lat="45.78209" lon="4.97459">
        <ele>232</ele>
        <time>2015-04-26T10:48:11Z</time>
      </trkpt>
      <trkpt lat="45.78212" lon="4.97461">
        <ele>232</ele>
        <time>2015-04-26T10:48:13Z</time>
      </trkpt>
      <trkpt lat="45.78215" lon="4.97462">
        <ele>232</ele>
        <time>2015-04-26T10:48:15Z</time>
      </trkpt>
      <trkpt lat="45.78218" lon="4.97464">
        <ele>232</ele>
        <time>2015-04-26T10:48:17Z</time>
      </trkpt>
      <trkpt lat="45.78222" lon="4.97466">
        <ele>232</ele>
        <time>2015-04-26T10:48:20Z</time>
      </trkpt>
      <trkpt lat="45.78225" lon="4.97468">
        <ele>232</ele>
        <time>2015-04-26T10:48:22Z</time>
      </trkpt>
      <trkpt lat="45.78228" lon="4.9747">
        <ele>232</ele>
        <time>2015-04-26T10:48:25Z</time>
      </trkpt>
      <trkpt lat="45.78231" lon="4.97472">
        <ele>232</ele>
        <time>2015-04-26T10:48:27Z</time>
      </trkpt>
      <trkpt lat="45.78234" lon="4.97475">
        <ele>232</ele>
        <time>2015-04-26T10:48:30Z</time>
      </trkpt>
      <trkpt lat="45.78237" lon="4.97477">
        <ele>232</ele>
        <time>2015-04-26T10:48:33Z</time>
      </trkpt>
      <trkpt lat="45.7824" lon="4.9748">
        <ele>232</ele>
        <time>2015-04-26T10:48:36Z</time>
      </trkpt>
      <trkpt lat="45.78243" lon="4.97482">
        <ele>233</ele>
        <time>2015-04-26T10:48:39Z</time>
      </trkpt>
      <trkpt lat="45.78245" lon="4.97484">
        <ele>232</ele>
        <time>2015-04-26T10:48:42Z</time>
      </trkpt>
      <trkpt lat="45.78248" lon="4.97487">
        <ele>232.5</ele>
        <time>2015-04-26T10:48:45Z</time>
      </trkpt>
      <trkpt lat="45.7825" lon="4.9749">
        <ele>233</ele>
        <time>2015-04-26T10:48:48Z</time>
      </trkpt>
      <trkpt lat="45.78253" lon="4.97493">
        <ele>233</ele>
        <time>2015-04-26T10:48:51Z</time>
      </trkpt>
      <trkpt lat="45.78256" lon="4.97496">
        <ele>233</ele>
        <time>2015-04-26T10:48:54Z</time>
      </trkpt>
      <trkpt lat="45.78258" lon="4.97499">
        <ele>233</ele>
        <time>2015-04-26T10:48:56Z</time>
      </trkpt>
      <trkpt lat="45.7826" lon="4.97502">
        <ele>232</ele>
        <time>2015-04-26T10:48:58Z</time>
      </trkpt>
      <trkpt lat="45.78263" lon="4.97506">
        <ele>232</ele>
        <time>2015-04-26T10:49:00Z</time>
      </trkpt>
      <trkpt lat="45.78266" lon="4.9751">
        <ele>232</ele>
        <time>2015-04-26T10:49:02Z</time>
      </trkpt>
      <trkpt lat="45.78269" lon="4.97513">
        <ele>233</ele>
        <time>2015-04-26T10:49:04Z</time>
      </trkpt>
      <trkpt lat="45.78272" lon="4.97517">
        <ele>233</ele>
        <time>2015-04-26T10:49:06Z</time>
      </trkpt>
      <trkpt lat="45.78275" lon="4.97521">
        <ele>233</ele>
        <time>2015-04-26T10:49:08Z</time>
      </trkpt>
      <trkpt lat="45.78278" lon="4.97526">
        <ele>232</ele>
        <time>2015-04-26T10:49:10Z</time>
      </trkpt>
      <trkpt lat="45.7828" lon="4.97531">
        <ele>232</ele>
        <time>2015-04-26T10:49:12Z</time>
      </trkpt>
      <trkpt lat="45.7828" lon="4.97537">
        <ele>232</ele>
        <time>2015-04-26T10:49:14Z</time>
      </trkpt>
      <trkpt lat="45.78279" lon="4.97542">
        <ele>232</ele>
        <time>2015-04-26T10:49:16Z</time>
      </trkpt>
      <trkpt lat="45.78277" lon="4.97547">
        <ele>232</ele>
        <time>2015-04-26T10:49:18Z</time>
      </trkpt>
      <trkpt lat="45.78275" lon="4.97552">
        <ele>231</ele>
        <time>2015-04-26T10:49:20Z</time>
      </trkpt>
      <trkpt lat="45.78273" lon="4.97557">
        <ele>231</ele>
        <time>2015-04-26T10:49:22Z</time>
      </trkpt>
      <trkpt lat="45.78272" lon="4.97562">
        <ele>232</ele>
        <time>2015-04-26T10:49:24Z</time>
      </trkpt>
      <trkpt lat="45.78269" lon="4.97567">
        <ele>231</ele>
        <time>2015-04-26T10:49:26Z</time>
      </trkpt>
      <trkpt lat="45.78266" lon="4.97574">
        <ele>231</ele>
        <time>2015-04-26T10:49:28Z</time>
      </trkpt>
      <trkpt lat="45.78265" lon="4.97577">
        <ele>231</ele>
        <time>2015-04-26T10:49:29Z</time>
      </trkpt>
      <trkpt lat="45.78262" lon="4.97583">
        <ele>231</ele>
        <time>2015-04-26T10:49:31Z</time>
      </trkpt>
      <trkpt lat="45.78261" lon="4.97586">
        <ele>230</ele>
        <time>2015-04-26T10:49:32Z</time>
      </trkpt>
      <trkpt lat="45.78258" lon="4.97592">
        <ele>229</ele>
        <time>2015-04-26T10:49:34Z</time>
      </trkpt>
      <trkpt lat="45.78257" lon="4.97595">
        <ele>229</ele>
        <time>2015-04-26T10:49:35Z</time>
      </trkpt>
      <trkpt lat="45.78255" lon="4.97601">
        <ele>230</ele>
        <time>2015-04-26T10:49:37Z</time>
      </trkpt>
      <trkpt lat="45.78254" lon="4.97605">
        <ele>229</ele>
        <time>2015-04-26T10:49:38Z</time>
      </trkpt>
      <trkpt lat="45.78251" lon="4.97611">
        <ele>229</ele>
        <time>2015-04-26T10:49:40Z</time>
      </trkpt>
      <trkpt lat="45.7825" lon="4.97614">
        <ele>228</ele>
        <time>2015-04-26T10:49:41Z</time>
      </trkpt>
      <trkpt lat="45.78247" lon="4.9762">
        <ele>228</ele>
        <time>2015-04-26T10:49:43Z</time>
      </trkpt>
      <trkpt lat="45.78246" lon="4.97623">
        <ele>228</ele>
        <time>2015-04-26T10:49:44Z</time>
      </trkpt>
      <trkpt lat="45.78243" lon="4.97629">
        <ele>228</ele>
        <time>2015-04-26T10:49:46Z</time>
      </trkpt>
      <trkpt lat="45.78242" lon="4.97632">
        <ele>228</ele>
        <time>2015-04-26T10:49:47Z</time>
      </trkpt>
      <trkpt lat="45.7824" lon="4.97638">
        <ele>228</ele>
        <time>2015-04-26T10:49:49Z</time>
      </trkpt>
      <trkpt lat="45.78239" lon="4.97641">
        <ele>228</ele>
        <time>2015-04-26T10:49:50Z</time>
      </trkpt>
      <trkpt lat="45.78236" lon="4.97647">
        <ele>228</ele>
        <time>2015-04-26T10:49:52Z</time>
      </trkpt>
      <trkpt lat="45.78235" lon="4.9765">
        <ele>228</ele>
        <time>2015-04-26T10:49:53Z</time>
      </trkpt>
      <trkpt lat="45.78233" lon="4.97656">
        <ele>229</ele>
        <time>2015-04-26T10:49:55Z</time>
      </trkpt>
      <trkpt lat="45.78231" lon="4.97659">
        <ele>228</ele>
        <time>2015-04-26T10:49:56Z</time>
      </trkpt>
      <trkpt lat="45.78229" lon="4.97665">
        <ele>229</ele>
        <time>2015-04-26T10:49:58Z</time>
      </trkpt>
      <trkpt lat="45.78228" lon="4.97668">
        <ele>229</ele>
        <time>2015-04-26T10:49:59Z</time>
      </trkpt>
      <trkpt lat="45.78225" lon="4.97675">
        <ele>228</ele>
        <time>2015-04-26T10:50:01Z</time>
      </trkpt>
      <trkpt lat="45.78223" lon="4.97678">
        <ele>228</ele>
        <time>2015-04-26T10:50:02Z</time>
      </trkpt>
      <trkpt lat="45.7822" lon="4.97684">
        <ele>229</ele>
        <time>2015-04-26T10:50:04Z</time>
      </trkpt>
      <trkpt lat="45.78219" lon="4.97688">
        <ele>229</ele>
        <time>2015-04-26T10:50:05Z</time>
      </trkpt>
      <trkpt lat="45.78216" lon="4.97695">
        <ele>229</ele>
        <time>2015-04-26T10:50:07Z</time>
      </trkpt>
      <trkpt lat="45.78215" lon="4.97699">
        <ele>229</ele>
        <time>2015-04-26T10:50:08Z</time>
      </trkpt>
      <trkpt lat="45.78212" lon="4.97706">
        <ele>229</ele>
        <time>2015-04-26T10:50:10Z</time>
      </trkpt>
      <trkpt lat="45.78211" lon="4.9771">
        <ele>229</ele>
        <time>2015-04-26T10:50:11Z</time>
      </trkpt>
      <trkpt lat="45.78209" lon="4.97717">
        <ele>229</ele>
        <time>2015-04-26T10:50:13Z</time>
      </trkpt>
      <trkpt lat="45.78208" lon="4.9772">
        <ele>229</ele>
        <time>2015-04-26T10:50:14Z</time>
      </trkpt>
      <trkpt lat="45.78205" lon="4.97726">
        <ele>229</ele>
        <time>2015-04-26T10:50:16Z</time>
      </trkpt>
      <trkpt lat="45.78203" lon="4.97729">
        <ele>229</ele>
        <time>2015-04-26T10:50:17Z</time>
      </trkpt>
      <trkpt lat="45.782" lon="4.97735">
        <ele>229</ele>
        <time>2015-04-26T10:50:19Z</time>
      </trkpt>
      <trkpt lat="45.78198" lon="4.97738">
        <ele>229</ele>
        <time>2015-04-26T10:50:20Z</time>
      </trkpt>
      <trkpt lat="45.78195" lon="4.97744">
        <ele>228</ele>
        <time>2015-04-26T10:50:22Z</time>
      </trkpt>
      <trkpt lat="45.78194" lon="4.97747">
        <ele>228</ele>
        <time>2015-04-26T10:50:23Z</time>
      </trkpt>
      <trkpt lat="45.78191" lon="4.97753">
        <ele>228</ele>
        <time>2015-04-26T10:50:25Z</time>
      </trkpt>
      <trkpt lat="45.78189" lon="4.97757">
        <ele>228</ele>
        <time>2015-04-26T10:50:26Z</time>
      </trkpt>
      <trkpt lat="45.78186" lon="4.97763">
        <ele>228</ele>
        <time>2015-04-26T10:50:28Z</time>
      </trkpt>
      <trkpt lat="45.78185" lon="4.97766">
        <ele>228</ele>
        <time>2015-04-26T10:50:29Z</time>
      </trkpt>
      <trkpt lat="45.78182" lon="4.97773">
        <ele>228</ele>
        <time>2015-04-26T10:50:31Z</time>
      </trkpt>
      <trkpt lat="45.78181" lon="4.97776">
        <ele>228</ele>
        <time>2015-04-26T10:50:32Z</time>
      </trkpt>
      <trkpt lat="45.78179" lon="4.97783">
        <ele>227</ele>
        <time>2015-04-26T10:50:34Z</time>
      </trkpt>
      <trkpt lat="45.78178" lon="4.97786">
        <ele>227</ele>
        <time>2015-04-26T10:50:35Z</time>
      </trkpt>
      <trkpt lat="45.78175" lon="4.97793">
        <ele>227</ele>
        <time>2015-04-26T10:50:37Z</time>
      </trkpt>
      <trkpt lat="45.78174" lon="4.97796">
        <ele>226</ele>
        <time>2015-04-26T10:50:38Z</time>
      </trkpt>
      <trkpt lat="45.78172" lon="4.97802">
        <ele>226</ele>
        <time>2015-04-26T10:50:40Z</time>
      </trkpt>
      <trkpt lat="45.78171" lon="4.97806">
        <ele>226</ele>
        <time>2015-04-26T10:50:41Z</time>
      </trkpt>
      <trkpt lat="45.78168" lon="4.97812">
        <ele>226</ele>
        <time>2015-04-26T10:50:43Z</time>
      </trkpt>
      <trkpt lat="45.78167" lon="4.97815">
        <ele>226</ele>
        <time>2015-04-26T10:50:44Z</time>
      </trkpt>
      <trkpt lat="45.78164" lon="4.97822">
        <ele>226</ele>
        <time>2015-04-26T10:50:46Z</time>
      </trkpt>
      <trkpt lat="45.78163" lon="4.97825">
        <ele>226</ele>
        <time>2015-04-26T10:50:47Z</time>
      </trkpt>
      <trkpt lat="45.7816" lon="4.97832">
        <ele>227</ele>
        <time>2015-04-26T10:50:49Z</time>
      </trkpt>
      <trkpt lat="45.78159" lon="4.97835">
        <ele>226</ele>
        <time>2015-04-26T10:50:50Z</time>
      </trkpt>
      <trkpt lat="45.78156" lon="4.97842">
        <ele>226</ele>
        <time>2015-04-26T10:50:52Z</time>
      </trkpt>
      <trkpt lat="45.78154" lon="4.97845">
        <ele>226</ele>
        <time>2015-04-26T10:50:53Z</time>
      </trkpt>
      <trkpt lat="45.78152" lon="4.97852">
        <ele>226</ele>
        <time>2015-04-26T10:50:55Z</time>
      </trkpt>
      <trkpt lat="45.7815" lon="4.97856">
        <ele>226</ele>
        <time>2015-04-26T10:50:56Z</time>
      </trkpt>
      <trkpt lat="45.78148" lon="4.97863">
        <ele>226</ele>
        <time>2015-04-26T10:50:58Z</time>
      </trkpt>
      <trkpt lat="45.78147" lon="4.97866">
        <ele>226</ele>
        <time>2015-04-26T10:50:59Z</time>
      </trkpt>
      <trkpt lat="45.78144" lon="4.97873">
        <ele>226</ele>
        <time>2015-04-26T10:51:01Z</time>
      </trkpt>
      <trkpt lat="45.78143" lon="4.97876">
        <ele>227</ele>
        <time>2015-04-26T10:51:02Z</time>
      </trkpt>
      <trkpt lat="45.78141" lon="4.97882">
        <ele>227</ele>
        <time>2015-04-26T10:51:04Z</time>
      </trkpt>
      <trkpt lat="45.7814" lon="4.97885">
        <ele>227</ele>
        <time>2015-04-26T10:51:05Z</time>
      </trkpt>
      <trkpt lat="45.78138" lon="4.97892">
        <ele>226</ele>
        <time>2015-04-26T10:51:07Z</time>
      </trkpt>
      <trkpt lat="45.78137" lon="4.97895">
        <ele>226</ele>
        <time>2015-04-26T10:51:08Z</time>
      </trkpt>
      <trkpt lat="45.78135" lon="4.97901">
        <ele>226</ele>
        <time>2015-04-26T10:51:10Z</time>
      </trkpt>
      <trkpt lat="45.78134" lon="4.97904">
        <ele>226</ele>
        <time>2015-04-26T10:51:11Z</time>
      </trkpt>
      <trkpt lat="45.78131" lon="4.9791">
        <ele>226</ele>
        <time>2015-04-26T10:51:13Z</time>
      </trkpt>
      <trkpt lat="45.7813" lon="4.97913">
        <ele>226</ele>
        <time>2015-04-26T10:51:14Z</time>
      </trkpt>
      <trkpt lat="45.78128" lon="4.97919">
        <ele>226</ele>
        <time>2015-04-26T10:51:16Z</time>
      </trkpt>
      <trkpt lat="45.78128" lon="4.97923">
        <ele>226</ele>
        <time>2015-04-26T10:51:17Z</time>
      </trkpt>
      <trkpt lat="45.78126" lon="4.97928">
        <ele>226</ele>
        <time>2015-04-26T10:51:19Z</time>
      </trkpt>
      <trkpt lat="45.78125" lon="4.97933">
        <ele>226</ele>
        <time>2015-04-26T10:51:21Z</time>
      </trkpt>
      <trkpt lat="45.78123" lon="4.97939">
        <ele>226</ele>
        <time>2015-04-26T10:51:23Z</time>
      </trkpt>
      <trkpt lat="45.78121" lon="4.97945">
        <ele>226</ele>
        <time>2015-04-26T10:51:25Z</time>
      </trkpt>
      <trkpt lat="45.7812" lon="4.97948">
        <ele>226</ele>
        <time>2015-04-26T10:51:26Z</time>
      </trkpt>
      <trkpt lat="45.78117" lon="4.97954">
        <ele>227</ele>
        <time>2015-04-26T10:51:28Z</time>
      </trkpt>
      <trkpt lat="45.78116" lon="4.97957">
        <ele>227</ele>
        <time>2015-04-26T10:51:29Z</time>
      </trkpt>
      <trkpt lat="45.78112" lon="4.97962">
        <ele>227</ele>
        <time>2015-04-26T10:51:31Z</time>
      </trkpt>
      <trkpt lat="45.78111" lon="4.97965">
        <ele>228</ele>
        <time>2015-04-26T10:51:32Z</time>
      </trkpt>
      <trkpt lat="45.78108" lon="4.97971">
        <ele>228</ele>
        <time>2015-04-26T10:51:34Z</time>
      </trkpt>
      <trkpt lat="45.78106" lon="4.97974">
        <ele>228</ele>
        <time>2015-04-26T10:51:35Z</time>
      </trkpt>
      <trkpt lat="45.78104" lon="4.9798">
        <ele>228</ele>
        <time>2015-04-26T10:51:37Z</time>
      </trkpt>
      <trkpt lat="45.78102" lon="4.97984">
        <ele>228</ele>
        <time>2015-04-26T10:51:38Z</time>
      </trkpt>
      <trkpt lat="45.78099" lon="4.97991">
        <ele>228</ele>
        <time>2015-04-26T10:51:40Z</time>
      </trkpt>
      <trkpt lat="45.78098" lon="4.97995">
        <ele>228</ele>
        <time>2015-04-26T10:51:41Z</time>
      </trkpt>
      <trkpt lat="45.78095" lon="4.98003">
        <ele>227</ele>
        <time>2015-04-26T10:51:43Z</time>
      </trkpt>
      <trkpt lat="45.78093" lon="4.98006">
        <ele>227</ele>
        <time>2015-04-26T10:51:44Z</time>
      </trkpt>
      <trkpt lat="45.78091" lon="4.98014">
        <ele>229</ele>
        <time>2015-04-26T10:51:46Z</time>
      </trkpt>
      <trkpt lat="45.7809" lon="4.98018">
        <ele>230</ele>
        <time>2015-04-26T10:51:47Z</time>
      </trkpt>
      <trkpt lat="45.78088" lon="4.98025">
        <ele>230</ele>
        <time>2015-04-26T10:51:49Z</time>
      </trkpt>
      <trkpt lat="45.78087" lon="4.98029">
        <ele>229</ele>
        <time>2015-04-26T10:51:50Z</time>
      </trkpt>
      <trkpt lat="45.78084" lon="4.98036">
        <ele>230</ele>
        <time>2015-04-26T10:51:52Z</time>
      </trkpt>
      <trkpt lat="45.78083" lon="4.9804">
        <ele>230</ele>
        <time>2015-04-26T10:51:53Z</time>
      </trkpt>
      <trkpt lat="45.78081" lon="4.98047">
        <ele>231</ele>
        <time>2015-04-26T10:51:55Z</time>
      </trkpt>
      <trkpt lat="45.7808" lon="4.98051">
        <ele>230</ele>
        <time>2015-04-26T10:51:56Z</time>
      </trkpt>
      <trkpt lat="45.78078" lon="4.98058">
        <ele>231</ele>
        <time>2015-04-26T10:51:58Z</time>
      </trkpt>
      <trkpt lat="45.78077" lon="4.98062">
        <ele>232</ele>
        <time>2015-04-26T10:51:59Z</time>
      </trkpt>
      <trkpt lat="45.78075" lon="4.98069">
        <ele>231</ele>
        <time>2015-04-26T10:52:01Z</time>
      </trkpt>
      <trkpt lat="45.78074" lon="4.98072">
        <ele>231</ele>
        <time>2015-04-26T10:52:02Z</time>
      </trkpt>
      <trkpt lat="45.78072" lon="4.98079">
        <ele>231</ele>
        <time>2015-04-26T10:52:04Z</time>
      </trkpt>
      <trkpt lat="45.78071" lon="4.98083">
        <ele>230</ele>
        <time>2015-04-26T10:52:05Z</time>
      </trkpt>
      <trkpt lat="45.78069" lon="4.9809">
        <ele>230</ele>
        <time>2015-04-26T10:52:07Z</time>
      </trkpt>
      <trkpt lat="45.78068" lon="4.98093">
        <ele>230</ele>
        <time>2015-04-26T10:52:08Z</time>
      </trkpt>
      <trkpt lat="45.78067" lon="4.98099">
        <ele>230</ele>
        <time>2015-04-26T10:52:10Z</time>
      </trkpt>
      <trkpt lat="45.78066" lon="4.98103">
        <ele>230</ele>
        <time>2015-04-26T10:52:11Z</time>
      </trkpt>
      <trkpt lat="45.78064" lon="4.98109">
        <ele>229</ele>
        <time>2015-04-26T10:52:13Z</time>
      </trkpt>
      <trkpt lat="45.78063" lon="4.98112">
        <ele>229</ele>
        <time>2015-04-26T10:52:14Z</time>
      </trkpt>
      <trkpt lat="45.78062" lon="4.98118">
        <ele>229</ele>
        <time>2015-04-26T10:52:16Z</time>
      </trkpt>
      <trkpt lat="45.7806" lon="4.98123">
        <ele>229</ele>
        <time>2015-04-26T10:52:18Z</time>
      </trkpt>
      <trkpt lat="45.78059" lon="4.98129">
        <ele>230</ele>
        <time>2015-04-26T10:52:20Z</time>
      </trkpt>
      <trkpt lat="45.78058" lon="4.98134">
        <ele>231</ele>
        <time>2015-04-26T10:52:22Z</time>
      </trkpt>
      <trkpt lat="45.78056" lon="4.9814">
        <ele>231</ele>
        <time>2015-04-26T10:52:24Z</time>
      </trkpt>
      <trkpt lat="45.78055" lon="4.98146">
        <ele>231</ele>
        <time>2015-04-26T10:52:26Z</time>
      </trkpt>
      <trkpt lat="45.78054" lon="4.98152">
        <ele>231</ele>
        <time>2015-04-26T10:52:28Z</time>
      </trkpt>
      <trkpt lat="45.78053" lon="4.98157">
        <ele>231</ele>
        <time>2015-04-26T10:52:30Z</time>
      </trkpt>
      <trkpt lat="45.78052" lon="4.98163">
        <ele>231</ele>
        <time>2015-04-26T10:52:32Z</time>
      </trkpt>
      <trkpt lat="45.78051" lon="4.98168">
        <ele>231</ele>
        <time>2015-04-26T10:52:34Z</time>
      </trkpt>
      <trkpt lat="45.7805" lon="4.98173">
        <ele>231</ele>
        <time>2015-04-26T10:52:36Z</time>
      </trkpt>
      <trkpt lat="45.7805" lon="4.98178">
        <ele>231</ele>
        <time>2015-04-26T10:52:38Z</time>
      </trkpt>
      <trkpt lat="45.78049" lon="4.98183">
        <ele>231</ele>
        <time>2015-04-26T10:52:40Z</time>
      </trkpt>
      <trkpt lat="45.78048" lon="4.98189">
        <ele>230</ele>
        <time>2015-04-26T10:52:42Z</time>
      </trkpt>
      <trkpt lat="45.78049" lon="4.98194">
        <ele>230</ele>
        <time>2015-04-26T10:52:44Z</time>
      </trkpt>
      <trkpt lat="45.78052" lon="4.98198">
        <ele>231</ele>
        <time>2015-04-26T10:52:46Z</time>
      </trkpt>
      <trkpt lat="45.78055" lon="4.98201">
        <ele>231</ele>
        <time>2015-04-26T10:52:48Z</time>
      </trkpt>
      <trkpt lat="45.78059" lon="4.98204">
        <ele>231</ele>
        <time>2015-04-26T10:52:50Z</time>
      </trkpt>
      <trkpt lat="45.78063" lon="4.98207">
        <ele>231</ele>
        <time>2015-04-26T10:52:52Z</time>
      </trkpt>
      <trkpt lat="45.78066" lon="4.98209">
        <ele>231</ele>
        <time>2015-04-26T10:52:54Z</time>
      </trkpt>
      <trkpt lat="45.7807" lon="4.98211">
        <ele>231</ele>
        <time>2015-04-26T10:52:56Z</time>
      </trkpt>
      <trkpt lat="45.78074" lon="4.98213">
        <ele>231</ele>
        <time>2015-04-26T10:52:58Z</time>
      </trkpt>
      <trkpt lat="45.78077" lon="4.98216">
        <ele>232</ele>
        <time>2015-04-26T10:53:00Z</time>
      </trkpt>
      <trkpt lat="45.78081" lon="4.98219">
        <ele>232</ele>
        <time>2015-04-26T10:53:02Z</time>
      </trkpt>
      <trkpt lat="45.78084" lon="4.98222">
        <ele>232</ele>
        <time>2015-04-26T10:53:04Z</time>
      </trkpt>
      <trkpt lat="45.78088" lon="4.98224">
        <ele>233</ele>
        <time>2015-04-26T10:53:06Z</time>
      </trkpt>
      <trkpt lat="45.78091" lon="4.98225">
        <ele>232</ele>
        <time>2015-04-26T10:53:08Z</time>
      </trkpt>
      <trkpt lat="45.78095" lon="4.98227">
        <ele>232</ele>
        <time>2015-04-26T10:53:10Z</time>
      </trkpt>
      <trkpt lat="45.78098" lon="4.98231">
        <ele>232</ele>
        <time>2015-04-26T10:53:12Z</time>
      </trkpt>
      <trkpt lat="45.78102" lon="4.98234">
        <ele>232</ele>
        <time>2015-04-26T10:53:14Z</time>
      </trkpt>
      <trkpt lat="45.78105" lon="4.98238">
        <ele>232</ele>
        <time>2015-04-26T10:53:16Z</time>
      </trkpt>
      <trkpt lat="45.78108" lon="4.98242">
        <ele>232</ele>
        <time>2015-04-26T10:53:18Z</time>
      </trkpt>
      <trkpt lat="45.7811" lon="4.98246">
        <ele>232</ele>
        <time>2015-04-26T10:53:20Z</time>
      </trkpt>
      <trkpt lat="45.78113" lon="4.98249">
        <ele>232</ele>
        <time>2015-04-26T10:53:22Z</time>
      </trkpt>
      <trkpt lat="45.78116" lon="4.98253">
        <ele>232</ele>
        <time>2015-04-26T10:53:24Z</time>
      </trkpt>
      <trkpt lat="45.78119" lon="4.98256">
        <ele>231</ele>
        <time>2015-04-26T10:53:26Z</time>
      </trkpt>
      <trkpt lat="45.78123" lon="4.98258">
        <ele>231</ele>
        <time>2015-04-26T10:53:28Z</time>
      </trkpt>
      <trkpt lat="45.78126" lon="4.98261">
        <ele>232</ele>
        <time>2015-04-26T10:53:30Z</time>
      </trkpt>
      <trkpt lat="45.78129" lon="4.98263">
        <ele>231</ele>
        <time>2015-04-26T10:53:32Z</time>
      </trkpt>
      <trkpt lat="45.78133" lon="4.98266">
        <ele>232</ele>
        <time>2015-04-26T10:53:34Z</time>
      </trkpt>
      <trkpt lat="45.78136" lon="4.98268">
        <ele>232</ele>
        <time>2015-04-26T10:53:36Z</time>
      </trkpt>
      <trkpt lat="45.78139" lon="4.98271">
        <ele>232</ele>
        <time>2015-04-26T10:53:38Z</time>
      </trkpt>
      <trkpt lat="45.78142" lon="4.98274">
        <ele>231</ele>
        <time>2015-04-26T10:53:40Z</time>
      </trkpt>
      <trkpt lat="45.78145" lon="4.98276">
        <ele>231</ele>
        <time>2015-04-26T10:53:42Z</time>
      </trkpt>
      <trkpt lat="45.78149" lon="4.98278">
        <ele>231</ele>
        <time>2015-04-26T10:53:44Z</time>
      </trkpt>
      <trkpt lat="45.78152" lon="4.98278">
        <ele>231</ele>
        <time>2015-04-26T10:53:46Z</time>
      </trkpt>
      <trkpt lat="45.78156" lon="4.98278">
        <ele>231</ele>
        <time>2015-04-26T10:53:48Z</time>
      </trkpt>
      <trkpt lat="45.7816" lon="4.98277">
        <ele>231</ele>
        <time>2015-04-26T10:53:50Z</time>
      </trkpt>
      <trkpt lat="45.78164" lon="4.98276">
        <ele>231</ele>
        <time>2015-04-26T10:53:52Z</time>
      </trkpt>
      <trkpt lat="45.78169" lon="4.98275">
        <ele>232</ele>
        <time>2015-04-26T10:53:54Z</time>
      </trkpt>
      <trkpt lat="45.78172" lon="4.98274">
        <ele>232</ele>
        <time>2015-04-26T10:53:55Z</time>
      </trkpt>
      <trkpt lat="45.78178" lon="4.98274">
        <ele>231</ele>
        <time>2015-04-26T10:53:57Z</time>
      </trkpt>
      <trkpt lat="45.7818" lon="4.98274">
        <ele>231</ele>
        <time>2015-04-26T10:53:58Z</time>
      </trkpt>
      <trkpt lat="45.78186" lon="4.98274">
        <ele>231</ele>
        <time>2015-04-26T10:54:00Z</time>
      </trkpt>
      <trkpt lat="45.78188" lon="4.98274">
        <ele>231</ele>
        <time>2015-04-26T10:54:01Z</time>
      </trkpt>
      <trkpt lat="45.78194" lon="4.98274">
        <ele>231</ele>
        <time>2015-04-26T10:54:03Z</time>
      </trkpt>
      <trkpt lat="45.78196" lon="4.98275">
        <ele>231</ele>
        <time>2015-04-26T10:54:04Z</time>
      </trkpt>
      <trkpt lat="45.78202" lon="4.98275">
        <ele>230</ele>
        <time>2015-04-26T10:54:06Z</time>
      </trkpt>
      <trkpt lat="45.78205" lon="4.98275">
        <ele>230</ele>
        <time>2015-04-26T10:54:07Z</time>
      </trkpt>
      <trkpt lat="45.78211" lon="4.98275">
        <ele>230</ele>
        <time>2015-04-26T10:54:09Z</time>
      </trkpt>
      <trkpt lat="45.78214" lon="4.98276">
        <ele>230</ele>
        <time>2015-04-26T10:54:10Z</time>
      </trkpt>
      <trkpt lat="45.7822" lon="4.98277">
        <ele>230</ele>
        <time>2015-04-26T10:54:12Z</time>
      </trkpt>
      <trkpt lat="45.78222" lon="4.98278">
        <ele>230</ele>
        <time>2015-04-26T10:54:13Z</time>
      </trkpt>
      <trkpt lat="45.78227" lon="4.98278">
        <ele>230</ele>
        <time>2015-04-26T10:54:15Z</time>
      </trkpt>
      <trkpt lat="45.78229" lon="4.98278">
        <ele>230</ele>
        <time>2015-04-26T10:54:16Z</time>
      </trkpt>
      <trkpt lat="45.78234" lon="4.98278">
        <ele>230</ele>
        <time>2015-04-26T10:54:18Z</time>
      </trkpt>
      <trkpt lat="45.78237" lon="4.98278">
        <ele>230</ele>
        <time>2015-04-26T10:54:19Z</time>
      </trkpt>
      <trkpt lat="45.78242" lon="4.98278">
        <ele>230</ele>
        <time>2015-04-26T10:54:21Z</time>
      </trkpt>
      <trkpt lat="45.78244" lon="4.98278">
        <ele>230</ele>
        <time>2015-04-26T10:54:22Z</time>
      </trkpt>
      <trkpt lat="45.7825" lon="4.98277">
        <ele>231</ele>
        <time>2015-04-26T10:54:24Z</time>
      </trkpt>
      <trkpt lat="45.78253" lon="4.98277">
        <ele>231</ele>
        <time>2015-04-26T10:54:25Z</time>
      </trkpt>
      <trkpt lat="45.78259" lon="4.98277">
        <ele>231</ele>
        <time>2015-04-26T10:54:27Z</time>
      </trkpt>
      <trkpt lat="45.78261" lon="4.98277">
        <ele>231</ele>
        <time>2015-04-26T10:54:28Z</time>
      </trkpt>
      <trkpt lat="45.78267" lon="4.98278">
        <ele>230</ele>
        <time>2015-04-26T10:54:30Z</time>
      </trkpt>
      <trkpt lat="45.7827" lon="4.98278">
        <ele>230</ele>
        <time>2015-04-26T10:54:31Z</time>
      </trkpt>
      <trkpt lat="45.78276" lon="4.98279">
        <ele>230</ele>
        <time>2015-04-26T10:54:33Z</time>
      </trkpt>
      <trkpt lat="45.78278" lon="4.98279">
        <ele>230</ele>
        <time>2015-04-26T10:54:34Z</time>
      </trkpt>
      <trkpt lat="45.78284" lon="4.98279">
        <ele>231</ele>
        <time>2015-04-26T10:54:36Z</time>
      </trkpt>
      <trkpt lat="45.78287" lon="4.98279">
        <ele>231</ele>
        <time>2015-04-26T10:54:37Z</time>
      </trkpt>
      <trkpt lat="45.78293" lon="4.9828">
        <ele>231</ele>
        <time>2015-04-26T10:54:39Z</time>
      </trkpt>
      <trkpt lat="45.78295" lon="4.98281">
        <ele>231</ele>
        <time>2015-04-26T10:54:40Z</time>
      </trkpt>
      <trkpt lat="45.78301" lon="4.98282">
        <ele>231</ele>
        <time>2015-04-26T10:54:42Z</time>
      </trkpt>
      <trkpt lat="45.78304" lon="4.98282">
        <ele>231</ele>
        <time>2015-04-26T10:54:43Z</time>
      </trkpt>
      <trkpt lat="45.78309" lon="4.98283">
        <ele>231</ele>
        <time>2015-04-26T10:54:45Z</time>
      </trkpt>
      <trkpt lat="45.78312" lon="4.98283">
        <ele>231</ele>
        <time>2015-04-26T10:54:46Z</time>
      </trkpt>
      <trkpt lat="45.78318" lon="4.98284">
        <ele>231</ele>
        <time>2015-04-26T10:54:48Z</time>
      </trkpt>
      <trkpt lat="45.78321" lon="4.98284">
        <ele>231</ele>
        <time>2015-04-26T10:54:49Z</time>
      </trkpt>
      <trkpt lat="45.78327" lon="4.98284">
        <ele>231</ele>
        <time>2015-04-26T10:54:51Z</time>
      </trkpt>
      <trkpt lat="45.7833" lon="4.98284">
        <ele>231</ele>
        <time>2015-04-26T10:54:52Z</time>
      </trkpt>
      <trkpt lat="45.78335" lon="4.98285">
        <ele>231</ele>
        <time>2015-04-26T10:54:54Z</time>
      </trkpt>
      <trkpt lat="45.78338" lon="4.98285">
        <ele>231</ele>
        <time>2015-04-26T10:54:55Z</time>
      </trkpt>
      <trkpt lat="45.78343" lon="4.98284">
        <ele>231</ele>
        <time>2015-04-26T10:54:57Z</time>
      </trkpt>
      <trkpt lat="45.78345" lon="4.98284">
        <ele>231</ele>
        <time>2015-04-26T10:54:58Z</time>
      </trkpt>
      <trkpt lat="45.78351" lon="4.98284">
        <ele>231</ele>
        <time>2015-04-26T10:55:00Z</time>
      </trkpt>
      <trkpt lat="45.78354" lon="4.98284">
        <ele>231</ele>
        <time>2015-04-26T10:55:01Z</time>
      </trkpt>
      <trkpt lat="45.78359" lon="4.98284">
        <ele>231</ele>
        <time>2015-04-26T10:55:03Z</time>
      </trkpt>
      <trkpt lat="45.78362" lon="4.98284">
        <ele>231</ele>
        <time>2015-04-26T10:55:04Z</time>
      </trkpt>
      <trkpt lat="45.78368" lon="4.98284">
        <ele>231</ele>
        <time>2015-04-26T10:55:06Z</time>
      </trkpt>
      <trkpt lat="45.78371" lon="4.98285">
        <ele>231</ele>
        <time>2015-04-26T10:55:07Z</time>
      </trkpt>
      <trkpt lat="45.78378" lon="4.98285">
        <ele>231</ele>
        <time>2015-04-26T10:55:09Z</time>
      </trkpt>
      <trkpt lat="45.78381" lon="4.98285">
        <ele>231</ele>
        <time>2015-04-26T10:55:10Z</time>
      </trkpt>
      <trkpt lat="45.78386" lon="4.98286">
        <ele>231</ele>
        <time>2015-04-26T10:55:12Z</time>
      </trkpt>
      <trkpt lat="45.78389" lon="4.98286">
        <ele>231</ele>
        <time>2015-04-26T10:55:13Z</time>
      </trkpt>
      <trkpt lat="45.78394" lon="4.98288">
        <ele>231</ele>
        <time>2015-04-26T10:55:15Z</time>
      </trkpt>
      <trkpt lat="45.78397" lon="4.98289">
        <ele>231</ele>
        <time>2015-04-26T10:55:16Z</time>
      </trkpt>
      <trkpt lat="45.78401" lon="4.98291">
        <ele>231</ele>
        <time>2015-04-26T10:55:18Z</time>
      </trkpt>
      <trkpt lat="45.78403" lon="4.98293">
        <ele>231</ele>
        <time>2015-04-26T10:55:19Z</time>
      </trkpt>
      <trkpt lat="45.78408" lon="4.98295">
        <ele>231</ele>
        <time>2015-04-26T10:55:21Z</time>
      </trkpt>
      <trkpt lat="45.7841" lon="4.98296">
        <ele>232</ele>
        <time>2015-04-26T10:55:22Z</time>
      </trkpt>
      <trkpt lat="45.78415" lon="4.98299">
        <ele>232</ele>
        <time>2015-04-26T10:55:24Z</time>
      </trkpt>
      <trkpt lat="45.78417" lon="4.983">
        <ele>232</ele>
        <time>2015-04-26T10:55:25Z</time>
      </trkpt>
      <trkpt lat="45.78422" lon="4.98302">
        <ele>232</ele>
        <time>2015-04-26T10:55:27Z</time>
      </trkpt>
      <trkpt lat="45.78425" lon="4.98304">
        <ele>231</ele>
        <time>2015-04-26T10:55:28Z</time>
      </trkpt>
      <trkpt lat="45.78429" lon="4.98307">
        <ele>231</ele>
        <time>2015-04-26T10:55:30Z</time>
      </trkpt>
      <trkpt lat="45.78432" lon="4.98309">
        <ele>231</ele>
        <time>2015-04-26T10:55:31Z</time>
      </trkpt>
      <trkpt lat="45.78436" lon="4.98313">
        <ele>231</ele>
        <time>2015-04-26T10:55:33Z</time>
      </trkpt>
      <trkpt lat="45.78438" lon="4.98315">
        <ele>231</ele>
        <time>2015-04-26T10:55:34Z</time>
      </trkpt>
      <trkpt lat="45.78443" lon="4.9832">
        <ele>231</ele>
        <time>2015-04-26T10:55:36Z</time>
      </trkpt>
      <trkpt lat="45.78445" lon="4.98322">
        <ele>231</ele>
        <time>2015-04-26T10:55:37Z</time>
      </trkpt>
      <trkpt lat="45.78449" lon="4.98328">
        <ele>231</ele>
        <time>2015-04-26T10:55:39Z</time>
      </trkpt>
      <trkpt lat="45.78451" lon="4.98331">
        <ele>232</ele>
        <time>2015-04-26T10:55:40Z</time>
      </trkpt>
      <trkpt lat="45.78455" lon="4.98336">
        <ele>232</ele>
        <time>2015-04-26T10:55:42Z</time>
      </trkpt>
      <trkpt lat="45.78457" lon="4.98338">
        <ele>231</ele>
        <time>2015-04-26T10:55:43Z</time>
      </trkpt>
      <trkpt lat="45.78461" lon="4.98343">
        <ele>232</ele>
        <time>2015-04-26T10:55:45Z</time>
      </trkpt>
      <trkpt lat="45.78463" lon="4.98345">
        <ele>232</ele>
        <time>2015-04-26T10:55:46Z</time>
      </trkpt>
      <trkpt lat="45.78467" lon="4.98351">
        <ele>231</ele>
        <time>2015-04-26T10:55:48Z</time>
      </trkpt>
      <trkpt lat="45.78469" lon="4.98354">
        <ele>231</ele>
        <time>2015-04-26T10:55:49Z</time>
      </trkpt>
      <trkpt lat="45.78473" lon="4.98359">
        <ele>231</ele>
        <time>2015-04-26T10:55:51Z</time>
      </trkpt>
      <trkpt lat="45.78475" lon="4.98362">
        <ele>231</ele>
        <time>2015-04-26T10:55:52Z</time>
      </trkpt>
      <trkpt lat="45.78477" lon="4.98369">
        <ele>231</ele>
        <time>2015-04-26T10:55:54Z</time>
      </trkpt>
      <trkpt lat="45.78477" lon="4.98372">
        <ele>231</ele>
        <time>2015-04-26T10:55:55Z</time>
      </trkpt>
      <trkpt lat="45.78475" lon="4.98378">
        <ele>231</ele>
        <time>2015-04-26T10:55:57Z</time>
      </trkpt>
      <trkpt lat="45.78472" lon="4.98381">
        <ele>231</ele>
        <time>2015-04-26T10:55:58Z</time>
      </trkpt>
      <trkpt lat="45.78468" lon="4.98384">
        <ele>230</ele>
        <time>2015-04-26T10:56:01Z</time>
      </trkpt>
      <trkpt lat="45.78465" lon="4.98386">
        <ele>230</ele>
        <time>2015-04-26T10:56:02Z</time>
      </trkpt>
      <trkpt lat="45.78461" lon="4.98388">
        <ele>231</ele>
        <time>2015-04-26T10:56:05Z</time>
      </trkpt>
      <trkpt lat="45.78458" lon="4.98389">
        <ele>230</ele>
        <time>2015-04-26T10:56:07Z</time>
      </trkpt>
      <trkpt lat="45.78456" lon="4.98392">
        <ele>229</ele>
        <time>2015-04-26T10:56:09Z</time>
      </trkpt>
      <trkpt lat="45.78453" lon="4.98394">
        <ele>230</ele>
        <time>2015-04-26T10:56:11Z</time>
      </trkpt>
      <trkpt lat="45.7845" lon="4.98396">
        <ele>229</ele>
        <time>2015-04-26T10:56:13Z</time>
      </trkpt>
      <trkpt lat="45.78447" lon="4.98398">
        <ele>229</ele>
        <time>2015-04-26T10:56:15Z</time>
      </trkpt>
      <trkpt lat="45.78443" lon="4.98399">
        <ele>229</ele>
        <time>2015-04-26T10:56:17Z</time>
      </trkpt>
      <trkpt lat="45.7844" lon="4.98399">
        <ele>229</ele>
        <time>2015-04-26T10:56:19Z</time>
      </trkpt>
      <trkpt lat="45.78436" lon="4.98401">
        <ele>229</ele>
        <time>2015-04-26T10:56:21Z</time>
      </trkpt>
      <trkpt lat="45.78433" lon="4.98402">
        <ele>228</ele>
        <time>2015-04-26T10:56:23Z</time>
      </trkpt>
      <trkpt lat="45.7843" lon="4.98405">
        <ele>229</ele>
        <time>2015-04-26T10:56:25Z</time>
      </trkpt>
      <trkpt lat="45.78426" lon="4.98407">
        <ele>229</ele>
        <time>2015-04-26T10:56:27Z</time>
      </trkpt>
      <trkpt lat="45.78423" lon="4.98409">
        <ele>229</ele>
        <time>2015-04-26T10:56:29Z</time>
      </trkpt>
      <trkpt lat="45.78419" lon="4.98411">
        <ele>229</ele>
        <time>2015-04-26T10:56:31Z</time>
      </trkpt>
      <trkpt lat="45.78416" lon="4.98413">
        <ele>229</ele>
        <time>2015-04-26T10:56:33Z</time>
      </trkpt>
      <trkpt lat="45.78413" lon="4.98417">
        <ele>229</ele>
        <time>2015-04-26T10:56:35Z</time>
      </trkpt>
      <trkpt lat="45.7841" lon="4.9842">
        <ele>229</ele>
        <time>2015-04-26T10:56:37Z</time>
      </trkpt>
      <trkpt lat="45.78407" lon="4.98423">
        <ele>229</ele>
        <time>2015-04-26T10:56:39Z</time>
      </trkpt>
      <trkpt lat="45.78403" lon="4.98425">
        <ele>229</ele>
        <time>2015-04-26T10:56:41Z</time>
      </trkpt>
      <trkpt lat="45.784" lon="4.98427">
        <ele>229</ele>
        <time>2015-04-26T10:56:43Z</time>
      </trkpt>
      <trkpt lat="45.78396" lon="4.9843">
        <ele>229</ele>
        <time>2015-04-26T10:56:45Z</time>
      </trkpt>
      <trkpt lat="45.78393" lon="4.98433">
        <ele>229</ele>
        <time>2015-04-26T10:56:47Z</time>
      </trkpt>
      <trkpt lat="45.78389" lon="4.98435">
        <ele>228</ele>
        <time>2015-04-26T10:56:49Z</time>
      </trkpt>
      <trkpt lat="45.78386" lon="4.98437">
        <ele>229</ele>
        <time>2015-04-26T10:56:51Z</time>
      </trkpt>
      <trkpt lat="45.78382" lon="4.9844">
        <ele>228</ele>
        <time>2015-04-26T10:56:53Z</time>
      </trkpt>
      <trkpt lat="45.78379" lon="4.98443">
        <ele>228</ele>
        <time>2015-04-26T10:56:55Z</time>
      </trkpt>
      <trkpt lat="45.78376" lon="4.98446">
        <ele>228</ele>
        <time>2015-04-26T10:56:57Z</time>
      </trkpt>
      <trkpt lat="45.78373" lon="4.98449">
        <ele>228</ele>
        <time>2015-04-26T10:56:59Z</time>
      </trkpt>
      <trkpt lat="45.78371" lon="4.98453">
        <ele>228</ele>
        <time>2015-04-26T10:57:01Z</time>
      </trkpt>
      <trkpt lat="45.78368" lon="4.98457">
        <ele>228</ele>
        <time>2015-04-26T10:57:03Z</time>
      </trkpt>
      <trkpt lat="45.78365" lon="4.98461">
        <ele>228</ele>
        <time>2015-04-26T10:57:05Z</time>
      </trkpt>
      <trkpt lat="45.78362" lon="4.98465">
        <ele>228</ele>
        <time>2015-04-26T10:57:07Z</time>
      </trkpt>
      <trkpt lat="45.78358" lon="4.98468">
        <ele>228</ele>
        <time>2015-04-26T10:57:09Z</time>
      </trkpt>
      <trkpt lat="45.78354" lon="4.98471">
        <ele>228</ele>
        <time>2015-04-26T10:57:11Z</time>
      </trkpt>
      <trkpt lat="45.7835" lon="4.98473">
        <ele>228</ele>
        <time>2015-04-26T10:57:13Z</time>
      </trkpt>
      <trkpt lat="45.78346" lon="4.98476">
        <ele>229</ele>
        <time>2015-04-26T10:57:15Z</time>
      </trkpt>
      <trkpt lat="45.78343" lon="4.98479">
        <ele>228</ele>
        <time>2015-04-26T10:57:17Z</time>
      </trkpt>
      <trkpt lat="45.78339" lon="4.98483">
        <ele>228</ele>
        <time>2015-04-26T10:57:19Z</time>
      </trkpt>
      <trkpt lat="45.78336" lon="4.98486">
        <ele>229</ele>
        <time>2015-04-26T10:57:21Z</time>
      </trkpt>
      <trkpt lat="45.78332" lon="4.98489">
        <ele>228</ele>
        <time>2015-04-26T10:57:23Z</time>
      </trkpt>
      <trkpt lat="45.78329" lon="4.98492">
        <ele>228</ele>
        <time>2015-04-26T10:57:25Z</time>
      </trkpt>
      <trkpt lat="45.78325" lon="4.98495">
        <ele>228</ele>
        <time>2015-04-26T10:57:27Z</time>
      </trkpt>
      <trkpt lat="45.78321" lon="4.98498">
        <ele>228</ele>
        <time>2015-04-26T10:57:29Z</time>
      </trkpt>
      <trkpt lat="45.78318" lon="4.98502">
        <ele>228</ele>
        <time>2015-04-26T10:57:31Z</time>
      </trkpt>
      <trkpt lat="45.78314" lon="4.98504">
        <ele>228</ele>
        <time>2015-04-26T10:57:33Z</time>
      </trkpt>
      <trkpt lat="45.7831" lon="4.98506">
        <ele>228</ele>
        <time>2015-04-26T10:57:35Z</time>
      </trkpt>
      <trkpt lat="45.78306" lon="4.98508">
        <ele>228</ele>
        <time>2015-04-26T10:57:37Z</time>
      </trkpt>
      <trkpt lat="45.78302" lon="4.98511">
        <ele>228</ele>
        <time>2015-04-26T10:57:39Z</time>
      </trkpt>
      <trkpt lat="45.78299" lon="4.98513">
        <ele>228</ele>
        <time>2015-04-26T10:57:41Z</time>
      </trkpt>
      <trkpt lat="45.78295" lon="4.98516">
        <ele>227</ele>
        <time>2015-04-26T10:57:43Z</time>
      </trkpt>
      <trkpt lat="45.78291" lon="4.98519">
        <ele>227</ele>
        <time>2015-04-26T10:57:45Z</time>
      </trkpt>
      <trkpt lat="45.78288" lon="4.98522">
        <ele>227</ele>
        <time>2015-04-26T10:57:47Z</time>
      </trkpt>
      <trkpt lat="45.78284" lon="4.98525">
        <ele>227</ele>
        <time>2015-04-26T10:57:49Z</time>
      </trkpt>
      <trkpt lat="45.78281" lon="4.98529">
        <ele>227</ele>
        <time>2015-04-26T10:57:51Z</time>
      </trkpt>
      <trkpt lat="45.78278" lon="4.98533">
        <ele>227</ele>
        <time>2015-04-26T10:57:53Z</time>
      </trkpt>
      <trkpt lat="45.78275" lon="4.98537">
        <ele>227</ele>
        <time>2015-04-26T10:57:55Z</time>
      </trkpt>
      <trkpt lat="45.78272" lon="4.9854">
        <ele>227</ele>
        <time>2015-04-26T10:57:57Z</time>
      </trkpt>
      <trkpt lat="45.78269" lon="4.98544">
        <ele>227</ele>
        <time>2015-04-26T10:57:59Z</time>
      </trkpt>
      <trkpt lat="45.78265" lon="4.98548">
        <ele>227</ele>
        <time>2015-04-26T10:58:01Z</time>
      </trkpt>
      <trkpt lat="45.78262" lon="4.98552">
        <ele>227</ele>
        <time>2015-04-26T10:58:03Z</time>
      </trkpt>
      <trkpt lat="45.78259" lon="4.98556">
        <ele>227</ele>
        <time>2015-04-26T10:58:05Z</time>
      </trkpt>
      <trkpt lat="45.78256" lon="4.98559">
        <ele>228</ele>
        <time>2015-04-26T10:58:07Z</time>
      </trkpt>
      <trkpt lat="45.78252" lon="4.98562">
        <ele>228</ele>
        <time>2015-04-26T10:58:09Z</time>
      </trkpt>
      <trkpt lat="45.78248" lon="4.98565">
        <ele>227</ele>
        <time>2015-04-26T10:58:11Z</time>
      </trkpt>
      <trkpt lat="45.78245" lon="4.98569">
        <ele>227</ele>
        <time>2015-04-26T10:58:13Z</time>
      </trkpt>
      <trkpt lat="45.78242" lon="4.98574">
        <ele>227</ele>
        <time>2015-04-26T10:58:15Z</time>
      </trkpt>
      <trkpt lat="45.7824" lon="4.98578">
        <ele>227</ele>
        <time>2015-04-26T10:58:17Z</time>
      </trkpt>
      <trkpt lat="45.78237" lon="4.98582">
        <ele>227</ele>
        <time>2015-04-26T10:58:19Z</time>
      </trkpt>
      <trkpt lat="45.78234" lon="4.98586">
        <ele>227</ele>
        <time>2015-04-26T10:58:21Z</time>
      </trkpt>
      <trkpt lat="45.78231" lon="4.9859">
        <ele>227</ele>
        <time>2015-04-26T10:58:23Z</time>
      </trkpt>
      <trkpt lat="45.78228" lon="4.98594">
        <ele>228</ele>
        <time>2015-04-26T10:58:25Z</time>
      </trkpt>
      <trkpt lat="45.78225" lon="4.98598">
        <ele>228</ele>
        <time>2015-04-26T10:58:27Z</time>
      </trkpt>
      <trkpt lat="45.78221" lon="4.98601">
        <ele>228</ele>
        <time>2015-04-26T10:58:29Z</time>
      </trkpt>
      <trkpt lat="45.78218" lon="4.98605">
        <ele>227</ele>
        <time>2015-04-26T10:58:31Z</time>
      </trkpt>
      <trkpt lat="45.78215" lon="4.98609">
        <ele>227</ele>
        <time>2015-04-26T10:58:33Z</time>
      </trkpt>
      <trkpt lat="45.78212" lon="4.98614">
        <ele>228</ele>
        <time>2015-04-26T10:58:35Z</time>
      </trkpt>
      <trkpt lat="45.78208" lon="4.98617">
        <ele>228</ele>
        <time>2015-04-26T10:58:37Z</time>
      </trkpt>
      <trkpt lat="45.78204" lon="4.9862">
        <ele>228</ele>
        <time>2015-04-26T10:58:39Z</time>
      </trkpt>
      <trkpt lat="45.78201" lon="4.98623">
        <ele>228</ele>
        <time>2015-04-26T10:58:41Z</time>
      </trkpt>
      <trkpt lat="45.78197" lon="4.98626">
        <ele>228</ele>
        <time>2015-04-26T10:58:43Z</time>
      </trkpt>
      <trkpt lat="45.78193" lon="4.98629">
        <ele>228</ele>
        <time>2015-04-26T10:58:45Z</time>
      </trkpt>
      <trkpt lat="45.78189" lon="4.98632">
        <ele>228</ele>
        <time>2015-04-26T10:58:47Z</time>
      </trkpt>
      <trkpt lat="45.78185" lon="4.98635">
        <ele>229</ele>
        <time>2015-04-26T10:58:49Z</time>
      </trkpt>
      <trkpt lat="45.78183" lon="4.98636">
        <ele>229</ele>
        <time>2015-04-26T10:58:50Z</time>
      </trkpt>
      <trkpt lat="45.78178" lon="4.98638">
        <ele>229</ele>
        <time>2015-04-26T10:58:52Z</time>
      </trkpt>
      <trkpt lat="45.78175" lon="4.9864">
        <ele>228</ele>
        <time>2015-04-26T10:58:53Z</time>
      </trkpt>
      <trkpt lat="45.7817" lon="4.98643">
        <ele>229</ele>
        <time>2015-04-26T10:58:56Z</time>
      </trkpt>
      <trkpt lat="45.78168" lon="4.98645">
        <ele>228.5</ele>
        <time>2015-04-26T10:58:57Z</time>
      </trkpt>
      <trkpt lat="45.78163" lon="4.98647">
        <ele>228</ele>
        <time>2015-04-26T10:59:00Z</time>
      </trkpt>
      <trkpt lat="45.78161" lon="4.9865">
        <ele>228</ele>
        <time>2015-04-26T10:59:01Z</time>
      </trkpt>
      <trkpt lat="45.78156" lon="4.98654">
        <ele>228</ele>
        <time>2015-04-26T10:59:04Z</time>
      </trkpt>
      <trkpt lat="45.78153" lon="4.98655">
        <ele>228</ele>
        <time>2015-04-26T10:59:05Z</time>
      </trkpt>
      <trkpt lat="45.78149" lon="4.98657">
        <ele>228</ele>
        <time>2015-04-26T10:59:08Z</time>
      </trkpt>
      <trkpt lat="45.78146" lon="4.98659">
        <ele>229</ele>
        <time>2015-04-26T10:59:09Z</time>
      </trkpt>
      <trkpt lat="45.78141" lon="4.98663">
        <ele>229</ele>
        <time>2015-04-26T10:59:12Z</time>
      </trkpt>
      <trkpt lat="45.78138" lon="4.98664">
        <ele>229</ele>
        <time>2015-04-26T10:59:13Z</time>
      </trkpt>
      <trkpt lat="45.78134" lon="4.98668">
        <ele>229</ele>
        <time>2015-04-26T10:59:16Z</time>
      </trkpt>
      <trkpt lat="45.78131" lon="4.98669">
        <ele>229</ele>
        <time>2015-04-26T10:59:17Z</time>
      </trkpt>
      <trkpt lat="45.78126" lon="4.98673">
        <ele>229</ele>
        <time>2015-04-26T10:59:20Z</time>
      </trkpt>
      <trkpt lat="45.78123" lon="4.98676">
        <ele>229</ele>
        <time>2015-04-26T10:59:21Z</time>
      </trkpt>
      <trkpt lat="45.78119" lon="4.98679">
        <ele>229</ele>
        <time>2015-04-26T10:59:24Z</time>
      </trkpt>
      <trkpt lat="45.78115" lon="4.98679">
        <ele>229</ele>
        <time>2015-04-26T10:59:25Z</time>
      </trkpt>
      <trkpt lat="45.7811" lon="4.98679">
        <ele>229</ele>
        <time>2015-04-26T10:59:28Z</time>
      </trkpt>
      <trkpt lat="45.78107" lon="4.98678">
        <ele>229.5</ele>
        <time>2015-04-26T10:59:29Z</time>
      </trkpt>
      <trkpt lat="45.78104" lon="4.98673">
        <ele>230</ele>
        <time>2015-04-26T10:59:32Z</time>
      </trkpt>
      <trkpt lat="45.78103" lon="4.98669">
        <ele>230</ele>
        <time>2015-04-26T10:59:33Z</time>
      </trkpt>
      <trkpt lat="45.78102" lon="4.98663">
        <ele>231</ele>
        <time>2015-04-26T10:59:36Z</time>
      </trkpt>
      <trkpt lat="45.78102" lon="4.98658">
        <ele>231</ele>
        <time>2015-04-26T10:59:38Z</time>
      </trkpt>
      <trkpt lat="45.78101" lon="4.98654">
        <ele>231</ele>
        <time>2015-04-26T10:59:40Z</time>
      </trkpt>
      <trkpt lat="45.78101" lon="4.98649">
        <ele>232</ele>
        <time>2015-04-26T10:59:42Z</time>
      </trkpt>
      <trkpt lat="45.78102" lon="4.98645">
        <ele>232</ele>
        <time>2015-04-26T10:59:44Z</time>
      </trkpt>
      <trkpt lat="45.78102" lon="4.9864">
        <ele>232</ele>
        <time>2015-04-26T10:59:46Z</time>
      </trkpt>
      <trkpt lat="45.78102" lon="4.98636">
        <ele>233</ele>
        <time>2015-04-26T10:59:48Z</time>
      </trkpt>
      <trkpt lat="45.78102" lon="4.98631">
        <ele>233</ele>
        <time>2015-04-26T10:59:50Z</time>
      </trkpt>
      <trkpt lat="45.78102" lon="4.98626">
        <ele>233</ele>
        <time>2015-04-26T10:59:52Z</time>
      </trkpt>
      <trkpt lat="45.78102" lon="4.98621">
        <ele>234</ele>
        <time>2015-04-26T10:59:54Z</time>
      </trkpt>
      <trkpt lat="45.78102" lon="4.98617">
        <ele>233</ele>
        <time>2015-04-26T10:59:56Z</time>
      </trkpt>
      <trkpt lat="45.78102" lon="4.98612">
        <ele>233</ele>
        <time>2015-04-26T10:59:58Z</time>
      </trkpt>
      <trkpt lat="45.78102" lon="4.98608">
        <ele>233</ele>
        <time>2015-04-26T11:00:00Z</time>
      </trkpt>
      <trkpt lat="45.78102" lon="4.98603">
        <ele>234</ele>
        <time>2015-04-26T11:00:02Z</time>
      </trkpt>
      <trkpt lat="45.78102" lon="4.98598">
        <ele>234</ele>
        <time>2015-04-26T11:00:04Z</time>
      </trkpt>
      <trkpt lat="45.78102" lon="4.98593">
        <ele>233</ele>
        <time>2015-04-26T11:00:06Z</time>
      </trkpt>
      <trkpt lat="45.78102" lon="4.98587">
        <ele>234</ele>
        <time>2015-04-26T11:00:08Z</time>
      </trkpt>
      <trkpt lat="45.78102" lon="4.98582">
        <ele>234</ele>
        <time>2015-04-26T11:00:10Z</time>
      </trkpt>
      <trkpt lat="45.78102" lon="4.98576">
        <ele>234</ele>
        <time>2015-04-26T11:00:12Z</time>
      </trkpt>
      <trkpt lat="45.78102" lon="4.98571">
        <ele>234</ele>
        <time>2015-04-26T11:00:14Z</time>
      </trkpt>
      <trkpt lat="45.78101" lon="4.98565">
        <ele>234</ele>
        <time>2015-04-26T11:00:16Z</time>
      </trkpt>
      <trkpt lat="45.781" lon="4.9856">
        <ele>233</ele>
        <time>2015-04-26T11:00:18Z</time>
      </trkpt>
      <trkpt lat="45.78099" lon="4.98555">
        <ele>233</ele>
        <time>2015-04-26T11:00:20Z</time>
      </trkpt>
      <trkpt lat="45.78097" lon="4.98549">
        <ele>233</ele>
        <time>2015-04-26T11:00:22Z</time>
      </trkpt>
      <trkpt lat="45.78096" lon="4.98544">
        <ele>233</ele>
        <time>2015-04-26T11:00:24Z</time>
      </trkpt>
      <trkpt lat="45.78095" lon="4.98538">
        <ele>234</ele>
        <time>2015-04-26T11:00:26Z</time>
      </trkpt>
      <trkpt lat="45.78094" lon="4.98533">
        <ele>234</ele>
        <time>2015-04-26T11:00:28Z</time>
      </trkpt>
      <trkpt lat="45.78093" lon="4.98527">
        <ele>233</ele>
        <time>2015-04-26T11:00:30Z</time>
      </trkpt>
      <trkpt lat="45.78092" lon="4.98522">
        <ele>234</ele>
        <time>2015-04-26T11:00:32Z</time>
      </trkpt>
      <trkpt lat="45.78091" lon="4.98516">
        <ele>234</ele>
        <time>2015-04-26T11:00:34Z</time>
      </trkpt>
      <trkpt lat="45.78089" lon="4.98511">
        <ele>234</ele>
        <time>2015-04-26T11:00:36Z</time>
      </trkpt>
      <trkpt lat="45.78087" lon="4.98506">
        <ele>234</ele>
        <time>2015-04-26T11:00:38Z</time>
      </trkpt>
      <trkpt lat="45.78085" lon="4.98501">
        <ele>234</ele>
        <time>2015-04-26T11:00:40Z</time>
      </trkpt>
      <trkpt lat="45.78081" lon="4.98497">
        <ele>234</ele>
        <time>2015-04-26T11:00:42Z</time>
      </trkpt>
      <trkpt lat="45.78078" lon="4.98494">
        <ele>234</ele>
        <time>2015-04-26T11:00:44Z</time>
      </trkpt>
      <trkpt lat="45.78075" lon="4.9849">
        <ele>234</ele>
        <time>2015-04-26T11:00:46Z</time>
      </trkpt>
      <trkpt lat="45.78073" lon="4.98484">
        <ele>234</ele>
        <time>2015-04-26T11:00:48Z</time>
      </trkpt>
      <trkpt lat="45.78071" lon="4.98479">
        <ele>234</ele>
        <time>2015-04-26T11:00:50Z</time>
      </trkpt>
      <trkpt lat="45.7807" lon="4.98474">
        <ele>234</ele>
        <time>2015-04-26T11:00:52Z</time>
      </trkpt>
      <trkpt lat="45.78068" lon="4.98469">
        <ele>234</ele>
        <time>2015-04-26T11:00:54Z</time>
      </trkpt>
      <trkpt lat="45.78067" lon="4.98464">
        <ele>234</ele>
        <time>2015-04-26T11:00:56Z</time>
      </trkpt>
      <trkpt lat="45.78066" lon="4.98459">
        <ele>234</ele>
        <time>2015-04-26T11:00:58Z</time>
      </trkpt>
      <trkpt lat="45.78065" lon="4.98454">
        <ele>234</ele>
        <time>2015-04-26T11:01:00Z</time>
      </trkpt>
      <trkpt lat="45.78065" lon="4.98449">
        <ele>235</ele>
        <time>2015-04-26T11:01:03Z</time>
      </trkpt>
      <trkpt lat="45.78064" lon="4.98444">
        <ele>235</ele>
        <time>2015-04-26T11:01:05Z</time>
      </trkpt>
      <trkpt lat="45.78064" lon="4.98438">
        <ele>234</ele>
        <time>2015-04-26T11:01:08Z</time>
      </trkpt>
      <trkpt lat="45.78064" lon="4.98434">
        <ele>234</ele>
        <time>2015-04-26T11:01:10Z</time>
      </trkpt>
      <trkpt lat="45.78064" lon="4.98429">
        <ele>235</ele>
        <time>2015-04-26T11:01:12Z</time>
      </trkpt>
      <trkpt lat="45.78064" lon="4.98424">
        <ele>235</ele>
        <time>2015-04-26T11:01:15Z</time>
      </trkpt>
      <trkpt lat="45.78063" lon="4.98419">
        <ele>235</ele>
        <time>2015-04-26T11:01:17Z</time>
      </trkpt>
      <trkpt lat="45.78063" lon="4.98414">
        <ele>234</ele>
        <time>2015-04-26T11:01:20Z</time>
      </trkpt>
      <trkpt lat="45.78063" lon="4.98409">
        <ele>234.5</ele>
        <time>2015-04-26T11:01:22Z</time>
      </trkpt>
      <trkpt lat="45.78062" lon="4.98404">
        <ele>235</ele>
        <time>2015-04-26T11:01:25Z</time>
      </trkpt>
      <trkpt lat="45.78062" lon="4.98399">
        <ele>235</ele>
        <time>2015-04-26T11:01:28Z</time>
      </trkpt>
      <trkpt lat="45.78061" lon="4.98394">
        <ele>235</ele>
        <time>2015-04-26T11:01:30Z</time>
      </trkpt>
      <trkpt lat="45.7806" lon="4.98388">
        <ele>235</ele>
        <time>2015-04-26T11:01:33Z</time>
      </trkpt>
      <trkpt lat="45.78058" lon="4.98385">
        <ele>234.5</ele>
        <time>2015-04-26T11:01:34Z</time>
      </trkpt>
      <trkpt lat="45.78054" lon="4.9838">
        <ele>235</ele>
        <time>2015-04-26T11:01:37Z</time>
      </trkpt>
      <trkpt lat="45.78052" lon="4.98377">
        <ele>235</ele>
        <time>2015-04-26T11:01:38Z</time>
      </trkpt>
      <trkpt lat="45.78048" lon="4.98373">
        <ele>235</ele>
        <time>2015-04-26T11:01:41Z</time>
      </trkpt>
      <trkpt lat="45.78046" lon="4.9837">
        <ele>234</ele>
        <time>2015-04-26T11:01:43Z</time>
      </trkpt>
      <trkpt lat="45.78043" lon="4.98365">
        <ele>234</ele>
        <time>2015-04-26T11:01:46Z</time>
      </trkpt>
      <trkpt lat="45.78041" lon="4.98361">
        <ele>234</ele>
        <time>2015-04-26T11:01:48Z</time>
      </trkpt>
      <trkpt lat="45.78039" lon="4.98357">
        <ele>234</ele>
        <time>2015-04-26T11:01:51Z</time>
      </trkpt>
      <trkpt lat="45.78036" lon="4.98353">
        <ele>234.5</ele>
        <time>2015-04-26T11:01:54Z</time>
      </trkpt>
      <trkpt lat="45.78034" lon="4.98349">
        <ele>235</ele>
        <time>2015-04-26T11:01:57Z</time>
      </trkpt>
      <trkpt lat="45.78033" lon="4.98345">
        <ele>235</ele>
        <time>2015-04-26T11:02:00Z</time>
      </trkpt>
      <trkpt lat="45.78031" lon="4.9834">
        <ele>235</ele>
        <time>2015-04-26T11:02:03Z</time>
      </trkpt>
      <trkpt lat="45.78029" lon="4.98336">
        <ele>234.5</ele>
        <time>2015-04-26T11:02:06Z</time>
      </trkpt>
    </trkseg>
  </trk>
</gpx>